[[{"header":{"parameterUnit":"m.s-1","parameterCategory":1,"la1":30.6,"la2":28.766,"lo1":-90.7593,"lo2":-88.6598,"dx":0.0162,"dy":0.0183,"nx":116,"ny":114,"refTime":"2022-12-20T06:00:00:Z","depth":0,"parameterNumber":2,"parameterNumberName":"U-component_of_WINDS"},"data":[0.0,0.0,0.0,0.0,0.0,0.0,0.0,0.0,0.0,0.0,0.0,0.0,0.0,0.0,0.0,0.0,0.0,0.0,0.0,0.0,0.0,0.0,0.0,0.0,0.0,0.0,0.0,0.0,0.0,0.0,0.0,0.0,0.0,0.0,0.0,0.0,0.0,0.0,0.0,0.0,0.0,0.0,0.0,0.0,0.0,0.0,0.0,0.0,0.0,0.0,0.0,0.0,0.0,0.0,0.0,0.0,0.0,0.0,0.0,0.0,0.0,0.0,0.0,0.0,0.0,0.0,0.0,0.0,0.0,0.0,0.0,0.0,0.0,0.0,0.0,0.0,0.0,0.0,0.0,0.0,0.0,0.0,0.0,0.0,0.0,0.0,0.0,0.0,0.0,0.0,0.0,0.0,0.0,0.0,0.0,0.0,0.0,0.0,0.0,0.0,0.0,0.0,0.0,0.0,0.0,0.0,0.0,0.0,0.0,0.0,0.0,0.0,0.0,0.0,0.0,0.0,0.0,0.0,0.0,0.0,0.0,0.0,0.0,0.0,0.0,0.0,0.0,0.0,0.0,0.0,0.0,0.0,0.0,0.0,0.0,0.0,0.0,0.0,0.0,0.0,0.0,0.0,0.0,0.0,0.0,0.0,0.0,0.0,0.0,0.0,0.0,0.0,0.0,0.0,0.0,0.0,0.0,0.0,0.0,0.0,0.0,0.0,0.0,0.0,0.0,0.0,0.0,0.0,0.0,0.0,0.0,0.0,0.0,0.0,0.0,0.0,0.0,0.0,0.0,0.0,0.0,0.0,0.0,0.0,0.0,0.0,0.0,0.0,0.0,0.0,0.0,0.0,0.0,0.0,0.0,0.0,0.0,0.0,0.0,0.0,0.0,0.0,0.0,0.0,0.0,0.0,0.0,0.0,0.0,0.0,0.0,0.0,0.0,0.0,0.0,0.0,0.0,0.0,0.0,0.0,0.0,0.0,0.0,0.0,0.0,0.0,0.0,0.0,0.0,0.0,0.0,0.0,0.0,0.0,0.0,0.0,0.0,0.0,0.0,0.0,0.0,0.0,0.0,0.0,0.0,0.0,0.0,0.0,0.0,0.0,0.0,0.0,0.0,0.0,0.0,0.0,0.0,0.0,0.0,0.0,0.0,0.0,0.0,0.0,0.0,0.0,0.0,0.0,0.0,0.0,0.0,0.0,0.0,0.0,0.0,0.0,0.0,0.0,0.0,0.0,0.0,0.0,0.0,0.0,0.0,0.0,0.0,0.0,0.0,0.0,0.0,0.0,0.0,0.0,0.0,0.0,0.0,0.0,0.0,0.0,0.0,0.0,0.0,0.0,0.0,0.0,0.0,0.0,0.0,0.0,0.0,0.0,0.0,0.0,0.0,0.0,0.0,0.0,0.0,0.0,0.0,0.0,0.0,0.0,0.0,0.0,0.0,0.0,0.0,0.0,0.0,0.0,0.0,0.0,0.0,0.0,0.0,0.0,0.0,0.0,0.0,0.0,0.0,0.0,0.0,0.0,0.0,0.0,0.0,0.0,0.0,0.0,0.0,0.0,0.0,0.0,0.0,0.0,0.0,0.0,0.0,0.0,0.0,0.0,0.0,0.0,0.0,0.0,0.0,0.0,0.0,0.0,0.0,0.0,0.0,0.0,0.0,0.0,0.0,0.0,0.0,0.0,0.0,0.0,0.0,0.0,0.0,0.0,0.0,0.0,0.0,0.0,0.0,0.0,0.0,0.0,0.0,0.0,0.0,0.0,0.0,0.0,0.0,0.0,0.0,0.0,0.0,0.0,0.0,0.0,0.0,0.0,0.0,0.0,0.0,0.0,0.0,0.0,0.0,0.0,0.0,0.0,0.0,0.0,0.0,0.0,0.0,0.0,0.0,0.0,0.0,0.0,0.0,0.0,0.0,0.0,0.0,0.0,0.0,0.0,0.0,0.0,0.0,0.0,0.0,0.0,0.0,0.0,0.0,0.0,0.0,0.0,0.0,0.0,0.0,0.0,0.0,0.0,0.0,0.0,0.0,0.0,0.0,0.0,0.0,0.0,0.0,0.0,0.0,0.0,0.0,0.0,0.0,0.0,0.0,0.0,0.0,0.0,0.0,0.0,0.0,0.0,0.0,0.0,0.0,0.0,0.0,0.0,0.0,0.0,0.0,0.0,0.0,0.0,0.0,0.0,0.0,0.0,0.0,0.0,0.0,0.0,0.0,0.0,0.0,0.0,0.0,0.0,0.0,0.0,0.0,0.0,0.0,0.0,0.0,0.0,0.0,0.0,0.0,0.0,0.0,0.0,0.0,0.0,0.0,0.0,0.0,0.0,0.0,0.0,0.0,0.0,0.0,0.0,0.0,0.0,0.0,0.0,0.0,0.0,0.0,0.0,0.0,0.0,0.0,0.0,0.0,0.0,0.0,0.0,0.0,0.0,0.0,0.0,0.0,0.0,0.0,0.0,0.0,0.0,0.0,0.0,0.0,0.0,0.0,0.0,0.0,0.0,0.0,0.0,0.0,0.0,0.0,0.0,0.0,0.0,0.0,0.0,0.0,0.0,0.0,0.0,0.0,0.0,0.0,0.0,0.0,0.0,0.0,0.0,0.0,0.0,0.0,0.0,0.0,0.0,0.0,0.0,0.0,0.0,0.0,0.0,0.0,0.0,0.0,0.0,0.0,0.0,0.0,0.0,0.0,0.0,0.0,0.0,0.0,0.0,0.0,0.0,0.0,0.0,0.0,0.0,0.0,0.0,0.0,0.0,0.0,0.0,0.0,0.0,0.0,0.0,0.0,0.0,0.0,0.0,0.0,0.0,0.0,0.0,0.0,0.0,0.0,0.0,0.0,0.0,0.0,0.0,0.0,0.0,0.0,0.0,0.0,0.0,0.0,0.0,0.0,0.0,0.0,0.0,0.0,0.0,0.0,0.0,0.0,0.0,0.0,0.0,0.0,0.0,0.0,0.0,0.0,0.0,0.0,0.0,0.0,0.0,0.0,0.0,0.0,0.0,0.0,0.0,0.0,0.0,0.0,0.0,0.0,0.0,0.0,0.0,0.0,0.0,0.0,0.0,0.0,0.0,0.0,0.0,0.0,0.0,0.0,0.0,0.0,0.0,0.0,0.0,0.0,0.0,0.0,0.0,0.0,0.0,0.0,0.0,0.0,0.0,0.0,0.0,0.0,0.0,0.0,0.0,0.0,0.0,0.0,0.0,0.0,0.0,0.0,0.0,0.0,0.0,0.0,0.0,0.0,0.0,0.0,0.0,0.0,0.0,0.0,0.0,0.0,0.0,0.0,0.0,0.0,0.0,0.0,0.0,0.0,0.0,0.0,0.0,0.0,0.0,0.0,0.0,0.0,0.0,0.0,0.0,0.0,0.0,0.0,0.0,0.0,0.0,0.0,0.0,0.0,0.0,0.0,0.0,0.0,0.0,0.0,0.0,0.0,0.0,0.0,0.0,0.0,0.0,0.0,0.0,0.0,0.0,0.0,0.0,0.0,0.0,0.0,0.0,0.0,0.0,0.0,0.0,0.0,0.0,0.0,0.0,0.0,0.0,0.0,0.0,0.0,0.0,0.0,0.0,0.0,0.0,0.0,0.0,0.0,0.0,0.0,0.0,0.0,0.0,0.0,0.0,0.0,0.0,0.0,0.0,0.0,0.0,0.0,0.0,0.0,0.0,0.0,0.0,0.0,0.0,0.0,0.0,0.0,0.0,0.0,0.0,0.0,0.0,0.0,0.0,0.0,0.0,0.0,0.0,0.0,0.0,0.0,0.0,0.0,0.0,0.0,0.0,0.0,0.0,0.0,0.0,0.0,0.0,0.0,0.0,0.0,0.0,0.0,0.0,0.0,0.0,0.0,0.0,0.0,0.0,0.0,0.0,0.0,0.0,0.0,0.0,0.0,0.0,0.0,0.0,0.0,0.0,0.0,0.0,0.0,0.0,0.0,0.0,0.0,0.0,0.0,0.0,0.0,0.0,0.0,0.0,0.0,0.0,0.0,0.0,0.0,0.0,0.0,0.0,0.0,0.0,0.0,0.0,0.0,0.0,0.0,0.0,0.0,0.0,0.0,0.0,0.0,0.0,0.0,0.0,0.0,0.0,0.0,0.0,0.0,0.0,0.0,0.0,0.0,0.0,0.0,0.0,0.0,0.0,0.0,0.0,0.0,0.0,0.0,0.0,0.0,0.0,0.0,0.0,0.0,0.0,0.0,0.0,0.0,0.0,0.0,0.0,0.0,0.0,0.0,0.0,0.0,0.0,0.0,0.0,0.0,0.0,0.0,0.0,0.0,0.0,0.0,0.0,0.0,0.0,0.0,0.0,0.0,0.0,0.0,0.0,0.0,0.0,0.0,0.0,0.0,0.0,0.0,0.0,0.0,0.0,0.0,0.0,0.0,0.0,0.0,0.0,0.0,0.0,0.0,0.0,0.0,0.0,0.0,0.0,0.0,0.0,0.0,0.0,0.0,0.0,0.0,0.0,0.0,0.0,0.0,0.0,0.0,0.0,0.0,0.0,0.0,0.0,0.0,0.0,0.0,0.0,0.0,0.0,0.0,0.0,0.0,0.0,0.0,0.0,0.0,0.0,0.0,0.0,0.0,0.0,0.0,0.0,0.0,0.0,0.0,0.0,0.0,0.0,0.0,0.0,0.0,0.0,0.0,0.0,0.0,0.0,0.0,0.0,0.0,0.0,0.0,0.0,0.0,0.0,0.0,0.0,0.0,0.0,0.0,0.0,0.0,0.0,0.0,0.0,0.0,0.0,0.0,0.0,0.0,0.0,0.0,0.0,0.0,0.0,0.0,0.0,0.0,0.0,0.0,0.0,0.0,0.0,0.0,0.0,0.0,0.0,0.0,0.0,0.0,0.0,0.0,0.0,0.0,0.0,0.0,0.0,0.0,0.0,0.0,0.0,0.0,0.0,0.0,0.0,0.0,0.0,0.0,0.0,0.0,0.0,0.0,0.0,0.0,0.0,0.0,0.0,0.0,0.0,0.0,0.0,0.0,0.0,0.0,0.0,0.0,0.0,0.0,0.0,0.0,0.0,0.0,0.0,0.0,0.0,0.0,0.0,0.0,0.0,0.0,0.0,0.0,0.0,0.0,0.0,0.0,0.0,0.0,0.0,0.0,0.0,0.0,0.0,0.0,0.0,0.0,0.0,0.0,0.0,0.0,0.0,0.0,0.0,0.0,0.0,0.0,0.0,0.0,0.0,0.0,0.0,0.0,0.0,0.0,0.0,0.0,0.0,0.0,0.0,0.0,0.0,0.0,0.0,0.0,0.0,0.0,0.0,0.0,0.0,0.0,0.0,0.0,0.0,0.0,0.0,0.0,0.0,0.0,0.0,0.0,0.0,0.0,0.0,0.0,0.0,0.0,0.0,0.0,0.0,0.0,0.0,0.0,0.0,0.0,0.0,0.0,0.0,0.0,0.0,0.0,0.0,0.0,0.0,0.0,0.0,0.0,0.0,0.0,0.0,0.0,0.0,0.0,0.0,0.0,0.0,0.0,0.0,0.0,0.0,0.0,0.0,0.0,0.0,0.0,0.0,0.0,0.0,0.0,0.0,0.0,0.0,0.0,0.0,0.0,0.0,0.0,0.0,0.0,0.0,0.0,0.0,0.0,0.0,0.0,0.0,0.0,0.0,0.0,0.0,0.0,0.0,0.0,0.0,0.0,0.0,0.0,0.0,0.0,0.0,0.0,0.0,0.0,0.0,0.0,0.0,0.0,0.0,0.0,0.0,0.0,0.0,0.0,0.0,0.0,0.0,0.0,0.0,0.0,0.0,0.0,0.0,0.0,0.0,0.0,0.0,0.0,0.0,0.0,0.0,0.0,0.0,0.0,0.0,0.0,0.0,0.0,0.0,0.0,0.0,0.0,0.0,0.0,0.0,0.0,0.0,0.0,0.0,0.0,0.0,0.0,0.0,0.0,0.0,0.0,0.0,0.0,0.0,0.0,0.0,0.0,0.0,0.0,0.0,0.0,0.0,0.0,0.0,0.0,0.0,0.0,0.0,0.0,0.0,0.0,0.0,0.0,0.0,0.0,0.0,0.0,0.0,0.0,0.0,0.0,0.0,0.0,0.0,7.8348,0.0,0.0,0.0,0.0,0.0,0.0,0.0,0.0,0.0,0.0,0.0,0.0,0.0,0.0,0.0,0.0,0.0,0.0,0.0,0.0,0.0,0.0,0.0,0.0,6.3294,6.3531,6.3531,6.3869,0.0,0.0,0.0,0.0,0.0,0.0,0.0,0.0,0.0,6.5121,6.6237,6.7354,6.8098,6.847,6.7692,6.7726,6.847,0.0,0.0,0.0,0.0,0.0,0.0,0.0,0.0,0.0,0.0,0.0,0.0,0.0,0.0,0.0,0.0,0.0,0.0,0.0,0.0,0.0,0.0,0.0,0.0,0.0,0.0,0.0,0.0,0.0,0.0,0.0,0.0,0.0,0.0,0.0,0.0,0.0,0.0,0.0,0.0,0.0,0.0,0.0,0.0,0.0,0.0,0.0,0.0,0.0,0.0,0.0,0.0,0.0,0.0,0.0,0.0,0.0,0.0,0.0,0.0,0.0,0.0,0.0,0.0,0.0,0.0,0.0,0.0,0.0,0.0,0.0,7.9667,0.0,0.0,0.0,0.0,0.0,0.0,0.0,0.0,0.0,0.0,0.0,0.0,0.0,0.0,0.0,0.0,0.0,0.0,0.0,0.0,0.0,6.1637,6.2482,6.326,6.3497,6.3024,6.3666,6.3835,6.3193,6.3159,0.0,0.0,0.0,0.0,0.0,0.0,6.573,6.6812,6.7557,6.8368,6.9282,6.9147,6.9248,6.9485,6.9214,0.0,0.0,0.0,0.0,0.0,0.0,0.0,0.0,0.0,0.0,0.0,0.0,0.0,0.0,0.0,0.0,0.0,0.0,0.0,0.0,0.0,0.0,0.0,0.0,0.0,0.0,0.0,0.0,0.0,0.0,0.0,0.0,0.0,0.0,0.0,0.0,0.0,0.0,0.0,0.0,0.0,0.0,0.0,0.0,0.0,0.0,0.0,0.0,0.0,0.0,0.0,0.0,0.0,0.0,0.0,0.0,0.0,0.0,0.0,0.0,0.0,0.0,0.0,0.0,8.2678,8.278,8.278,8.3186,8.3795,8.1832,8.1663,8.2712,0.0,0.0,0.0,0.0,0.0,0.0,0.0,0.0,0.0,0.0,0.0,0.0,0.0,0.0,0.0,0.0,0.0,0.0,0.0,0.0,6.1839,6.3226,6.4005,6.4681,6.5189,6.5933,6.6339,6.6237,6.6237,0.0,0.0,0.0,0.0,0.0,6.6474,6.7252,6.6812,6.7557,6.8639,7.0026,6.9383,6.9789,7.0973,6.9688,6.9113,6.9079,0.0,0.0,0.0,0.0,0.0,0.0,0.0,0.0,0.0,0.0,0.0,0.0,0.0,0.0,0.0,0.0,0.0,0.0,0.0,0.0,0.0,0.0,0.0,0.0,0.0,0.0,0.0,0.0,0.0,0.0,0.0,0.0,0.0,0.0,0.0,0.0,0.0,0.0,0.0,0.0,0.0,7.5033,7.6555,0.0,0.0,0.0,0.0,0.0,0.0,0.0,0.0,0.0,0.0,0.0,0.0,0.0,0.0,8.0479,8.1021,8.1596,8.2272,8.3016,8.3693,8.4336,8.4336,8.4742,8.5418,8.4471,0.0,8.4302,8.4133,0.0,0.0,0.0,0.0,0.0,0.0,0.0,0.0,0.0,0.0,0.0,0.0,0.0,0.0,0.0,0.0,0.0,0.0,0.0,0.0,0.0,6.441,6.4546,6.4478,6.4783,6.4952,6.4952,6.4952,0.0,0.0,0.0,0.0,6.5831,6.6373,6.7117,6.8098,6.8436,6.9113,7.0161,6.9451,6.9451,7.006,6.9383,6.9316,6.9654,6.8774,0.0,0.0,0.0,0.0,0.0,0.0,0.0,0.0,0.0,0.0,0.0,0.0,0.0,0.0,0.0,0.0,0.0,0.0,0.0,0.0,0.0,0.0,0.0,0.0,0.0,0.0,0.0,0.0,0.0,0.0,0.0,0.0,0.0,0.0,0.0,0.0,0.0,0.0,0.0,7.6521,7.7232,7.9126,7.9363,7.9938,0.0,0.0,0.0,0.0,0.0,0.0,0.0,0.0,0.0,8.2543,8.2949,8.3016,8.2678,8.3016,8.3558,8.4302,8.464,8.5182,8.5892,8.5892,8.6332,8.7008,8.667,8.6771,8.7042,8.579,8.552,8.5892,0.0,0.0,0.0,0.0,0.0,8.6061,0.0,0.0,0.0,0.0,0.0,0.0,0.0,0.0,0.0,0.0,0.0,0.0,6.441,6.4613,6.4478,6.4106,6.4241,6.4343,6.4343,6.4546,6.4884,6.5425,0.0,6.6339,6.7658,6.7117,6.7658,6.9383,6.9383,6.9755,7.0466,7.0297,7.0229,7.0229,7.0229,7.0094,6.9857,6.8876,6.935,7.0669,0.0,0.0,0.0,0.0,0.0,0.0,0.0,0.0,0.0,0.0,0.0,0.0,0.0,0.0,0.0,0.0,0.0,0.0,0.0,0.0,0.0,0.0,0.0,0.0,0.0,0.0,0.0,0.0,0.0,0.0,0.0,0.0,0.0,0.0,0.0,0.0,0.0,7.8551,0.0,8.0818,8.1325,8.1934,0.0,0.0,0.0,0.0,0.0,0.0,8.349,8.3862,8.4065,8.4065,8.464,8.5012,8.5215,8.5215,8.5587,8.6332,8.6163,8.6467,8.7177,8.7008,8.7313,8.7989,8.7786,8.8226,8.897,8.7313,8.6974,8.7448,8.7279,8.7177,8.7245,8.7583,8.7719,8.7719,0.0,0.0,0.0,0.0,0.0,0.0,0.0,0.0,0.0,0.0,0.0,6.2178,6.4377,6.4613,6.4884,6.5527,6.6237,6.6643,6.6643,6.7286,6.7692,6.7726,6.847,6.9248,6.9992,6.9992,7.0026,7.0128,7.0128,7.0534,7.1278,7.2631,7.3274,7.3274,7.3274,7.1718,6.9214,6.9823,6.9755,6.9316,7.0669,0.0,0.0,0.0,0.0,0.0,0.0,0.0,0.0,0.0,0.0,0.0,0.0,0.0,0.0,0.0,0.0,0.0,0.0,0.0,0.0,0.0,0.0,0.0,0.0,0.0,0.0,0.0,0.0,0.0,0.0,0.0,0.0,0.0,0.0,0.0,0.0,0.0,0.0,8.0242,8.1494,0.0,0.0,0.0,0.0,8.2577,8.4437,8.5012,8.3558,8.4877,8.5655,8.5655,8.5723,8.6061,8.6805,8.6805,8.7177,8.7888,8.7177,8.7245,8.7922,8.7211,8.7313,8.7955,8.7279,8.7786,8.9072,8.897,8.8937,8.8903,8.8226,8.7955,8.7854,8.7211,8.6974,8.6974,0.0,0.0,0.0,5.7881,5.7881,5.8152,5.8896,5.9404,6.052,6.2821,6.2888,6.3734,6.644,6.5459,6.5087,6.6305,6.5797,6.5595,6.6068,6.6779,6.7421,6.7895,6.8673,6.9214,6.9485,7.0872,7.1616,7.1616,7.2563,7.3172,7.3443,7.3984,7.395,7.3477,7.3477,7.2902,7.1853,7.0669,7.0601,7.1176,7.077,7.0838,0.0,0.0,0.0,0.0,0.0,0.0,0.0,0.0,0.0,0.0,0.0,0.0,0.0,0.0,0.0,0.0,0.0,0.0,0.0,0.0,0.0,0.0,0.0,0.0,0.0,0.0,0.0,0.0,0.0,0.0,0.0,0.0,0.0,0.0,0.0,0.0,0.0,8.2949,8.3524,0.0,0.0,8.464,8.4877,8.4606,8.4877,8.4809,8.4268,8.4742,8.5046,8.5046,8.5046,8.5148,8.5452,8.5452,8.5824,8.6569,8.6805,8.7279,8.7989,8.8226,8.8734,8.941,8.914,8.9579,9.0527,9.0527,8.9951,8.9038,8.8801,8.87,8.8666,8.8395,8.8632,8.9038,0.0,5.8626,0.0,5.8254,5.8254,5.8524,5.9268,6.0216,6.1501,6.3294,6.3937,6.4986,6.6948,6.6068,6.573,6.6711,6.5933,6.5764,6.6779,6.7523,6.8402,6.9383,7.0398,7.0737,7.0229,7.2394,7.3375,7.3138,7.439,7.4965,7.4999,7.527,7.4965,7.4255,7.4525,7.4492,7.4119,7.2394,7.1954,7.2326,7.1616,7.1582,7.1988,0.0,0.0,0.0,0.0,0.0,0.0,0.0,0.0,0.0,0.0,0.0,0.0,0.0,0.0,0.0,0.0,0.0,0.0,0.0,0.0,0.0,0.0,0.0,0.0,0.0,0.0,0.0,0.0,0.0,0.0,0.0,0.0,0.0,0.0,0.0,8.3253,8.4471,8.464,8.4809,8.5351,8.5384,8.5486,8.5757,8.5046,8.464,8.464,8.464,8.4742,8.5012,8.5283,8.552,8.5757,8.5993,8.6399,8.6907,8.7414,8.7888,8.8395,8.8869,8.9342,8.9816,8.9816,9.0121,9.056,9.056,8.9951,8.914,8.9647,8.9816,8.9816,8.9816,9.0154,9.0527,0.0,5.8998,5.8998,5.9032,5.9032,5.9268,6.0013,6.1434,6.2651,6.3429,6.4783,6.5696,6.573,6.6373,6.6846,6.688,6.688,6.7489,6.9045,6.9823,7.0872,7.236,7.3815,7.3916,7.2496,7.4593,7.5371,7.4728,7.5439,7.5777,7.5811,7.6589,7.6521,7.5811,7.6589,7.6487,7.5743,7.4999,7.3883,7.2631,7.324,7.2665,7.1481,0.0,0.0,0.0,0.0,0.0,0.0,0.0,0.0,0.0,0.0,0.0,0.0,0.0,0.0,0.0,0.0,0.0,0.0,0.0,0.0,0.0,0.0,0.0,0.0,0.0,0.0,0.0,0.0,0.0,0.0,0.0,0.0,0.0,8.4471,8.3964,8.3795,8.4539,8.464,8.464,8.464,8.464,8.4945,8.5689,8.5046,8.464,8.4674,8.4674,8.5012,8.579,8.6535,8.7245,8.7955,8.8666,8.9004,8.9004,8.9038,8.9038,8.9038,8.9072,8.9106,8.9106,8.914,8.9173,8.9173,8.9207,8.9207,8.9342,9.0696,9.1237,9.1237,9.1237,9.1237,9.1169,5.893,5.8592,5.8355,5.893,5.9032,5.9471,6.0757,6.1772,6.2651,6.3429,6.4783,6.5899,6.644,6.6677,6.7252,6.8368,6.7929,6.8233,6.9789,7.0601,7.165,7.3105,7.3578,7.3849,7.3984,7.5134,7.6149,7.7063,7.7266,7.7638,7.8179,7.7841,7.757,7.7367,7.7604,7.757,7.7333,7.713,7.6826,7.6284,7.4289,7.3578,7.368,0.0,0.0,0.0,0.0,0.0,0.0,0.0,0.0,0.0,0.0,0.0,0.0,0.0,0.0,0.0,0.0,0.0,0.0,0.0,0.0,0.0,0.0,0.0,0.0,0.0,0.0,0.0,0.0,0.0,0.0,0.0,0.0,8.3558,8.3761,8.4099,8.4403,8.4606,8.464,8.464,8.464,8.464,8.4708,8.4911,8.4742,8.4877,8.5452,8.5452,8.5824,8.6569,8.6805,8.7008,8.7211,8.7414,8.7516,8.7516,8.8057,8.8294,8.8294,8.8835,8.9376,8.9918,9.0459,9.1,9.1541,9.2116,9.2353,9.2184,9.0391,8.9681,8.9681,8.9681,9.0019,9.056,5.8998,5.866,5.8592,5.9336,5.9471,5.9877,6.1129,6.2448,6.326,6.3057,6.5425,6.6812,6.5967,6.7015,6.7996,6.8538,6.8166,6.8808,7.0973,7.2394,7.3544,7.4356,7.4728,7.4965,7.5067,7.642,7.7401,7.7976,7.8314,7.8686,7.9092,7.8348,7.7976,7.7976,7.7976,7.7976,7.7976,7.7976,7.7976,7.7841,7.6082,7.5439,7.554,7.51,7.4965,7.4999,7.4559,7.4424,7.4492,7.5067,0.0,0.0,0.0,0.0,0.0,0.0,0.0,0.0,0.0,0.0,0.0,0.0,0.0,0.0,0.0,0.0,0.0,0.0,0.0,0.0,0.0,0.0,0.0,0.0,8.4268,8.3964,8.3964,8.4336,8.4742,8.508,8.4809,8.4742,8.508,8.4809,8.4877,8.552,8.5283,8.5452,8.623,8.6264,8.6467,8.6907,8.7211,8.738,8.738,8.7685,8.7989,8.8294,8.8734,8.9072,8.941,8.9816,9.0256,0.0,9.1102,9.1541,9.1981,9.2421,9.2624,0.0,0.0,0.0,0.0,0.0,9.1237,9.1677,5.9268,5.9133,5.937,6.0114,6.025,6.0486,6.1298,6.3226,6.4072,6.2584,6.6237,6.7861,6.4918,6.7218,6.8707,6.8098,6.803,6.9316,7.2326,7.4525,7.5709,7.5709,7.6454,7.6589,7.598,7.801,7.8822,7.8247,7.8822,7.916,7.9228,7.8483,7.8145,7.8247,7.8247,7.8247,7.8247,7.8247,7.8247,7.8247,7.8247,7.7739,7.7029,7.7029,7.6623,7.6082,7.6082,7.6149,7.6115,7.5473,0.0,0.0,0.0,0.0,0.0,0.0,0.0,0.0,0.0,0.0,0.0,0.0,0.0,0.0,0.0,0.0,0.0,0.0,0.0,0.0,0.0,0.0,0.0,0.0,8.464,8.464,8.464,8.464,8.4877,8.5587,8.5046,8.4945,8.5723,8.5148,8.5351,8.6805,8.6298,8.623,8.6974,0.0,0.0,0.0,0.0,8.8294,8.8361,8.9004,8.9681,9.0324,9.0324,9.0662,9.1305,9.1305,9.1305,9.1305,9.1372,9.1406,9.144,9.1508,9.1541,9.1677,9.2861,9.3334,9.3334,9.3334,9.3334,9.3334,6.0047,5.9877,6.0148,6.0926,6.1061,6.1332,6.2076,6.3565,6.4072,6.2584,6.573,6.7218,6.485,6.6711,6.8335,6.8808,6.8876,7.0128,7.3071,7.4796,7.5709,7.5709,7.6454,7.7096,7.7536,7.8585,7.9329,7.9769,7.9329,7.9397,7.9972,7.9228,7.9194,7.9769,7.9769,7.9769,7.9769,7.9769,7.9769,7.9769,7.9769,7.8957,7.7773,7.7773,7.8044,7.845,7.845,7.8822,7.9295,7.916,7.872,7.8213,7.8077,7.7807,0.0,0.0,0.0,0.0,0.0,0.0,0.0,0.0,0.0,0.0,0.0,0.0,0.0,0.0,0.0,0.0,0.0,0.0,0.0,8.4606,8.464,8.464,8.464,8.464,8.4674,8.4843,8.4708,8.4945,8.5723,8.5655,8.5926,8.6839,8.6771,8.7008,8.7753,8.7786,0.0,8.9545,8.9715,9.0053,9.0662,9.0797,9.0932,9.1102,0.0,0.0,9.1305,9.1305,9.1305,9.1338,9.1947,9.2218,9.2252,9.2895,9.3131,9.3064,9.2116,9.1744,9.1744,9.1744,9.1744,9.1744,6.1332,6.0622,6.0351,6.1163,6.1298,6.167,6.2787,6.3903,6.4343,6.3599,6.6406,6.7793,6.5933,6.7692,6.935,7.0128,7.121,7.2496,7.395,7.51,7.5879,7.6284,7.7029,7.7604,7.7976,7.9092,7.9667,7.9667,7.9667,7.9837,8.0175,7.9837,7.987,8.0209,8.0209,8.0209,8.0209,8.0209,8.0209,8.0209,8.0209,7.9769,7.9058,7.8686,7.8788,7.9126,7.9126,7.9092,7.916,7.9532,7.916,7.8551,7.8551,7.8551,7.8686,0.0,0.0,0.0,0.0,0.0,0.0,0.0,0.0,0.0,0.0,0.0,0.0,0.0,0.0,8.4302,0.0,0.0,8.464,8.464,8.464,8.4776,8.5148,8.5215,8.5215,8.5215,8.5215,8.5486,8.6264,8.6332,8.667,8.7414,8.7448,8.7922,8.9038,8.9106,8.9613,9.0729,9.0763,9.0932,9.1305,9.1305,9.1474,9.1846,9.1846,9.2049,9.2455,9.2455,9.2455,9.2455,9.2827,9.2996,9.303,9.3436,9.3571,9.3503,9.2725,9.2455,9.2455,9.2455,9.2455,9.2455,6.2381,6.14,6.0757,6.14,6.1501,6.1975,6.3328,6.414,6.4613,6.4613,6.6981,6.8199,6.6948,6.8571,7.0094,7.1007,7.2868,7.4086,7.439,7.5067,7.5845,7.6623,7.7638,7.8145,7.7976,7.9431,7.9904,7.9329,7.9904,8.0209,8.0209,8.0209,8.0209,8.0209,8.0209,8.0209,8.0209,8.0209,8.0209,8.0209,8.0209,8.0209,8.0141,7.9532,7.9329,7.9329,7.9498,7.916,7.872,7.9329,7.9126,7.8619,7.845,7.8822,7.9498,8.0378,8.0513,0.0,0.0,0.0,0.0,0.0,0.0,0.0,0.0,0.0,8.4809,8.5418,8.5046,8.4809,8.5452,8.5046,8.4674,8.4809,8.4843,8.5114,8.5892,8.5993,8.6061,8.6196,8.6095,8.6298,8.7042,8.711,8.7482,8.8361,8.8429,8.9004,9.0357,9.0425,9.0763,9.1474,9.1508,9.1575,9.1744,9.1744,9.2049,9.2658,9.2658,9.2962,9.3571,9.374,9.3808,9.3808,9.3943,9.4011,9.4011,9.4011,9.4011,9.4011,9.4011,9.4011,9.3977,9.3706,9.3673,9.3808,6.2381,6.2245,6.2144,6.2245,6.2279,6.255,6.3396,6.414,6.4613,6.4613,6.6034,6.7015,6.6846,6.7624,6.8741,7.0195,7.1142,7.2225,7.3544,7.4322,7.5067,7.5811,7.7841,7.8686,7.801,7.9431,8.0175,8.0073,8.0175,8.0209,8.0209,8.0209,8.0209,8.0209,8.0209,8.0209,8.0209,8.0209,8.0209,8.0209,8.0209,8.0209,8.0175,8.0107,8.0073,8.0175,8.0818,8.0987,8.0919,8.1021,8.0987,8.0818,8.0141,8.0006,8.0344,8.1765,8.1697,8.1359,8.2171,8.1799,0.0,8.1156,8.2272,8.3389,0.0,0.0,8.464,8.4742,8.4674,8.464,8.4742,8.4674,8.4843,8.5554,8.5655,8.5926,8.667,8.6771,8.7008,8.7685,8.7177,8.7076,8.782,8.7888,8.8463,8.985,8.9951,9.0324,9.1135,9.1169,9.1508,9.2286,9.2286,9.2624,9.3334,9.3334,9.3368,9.347,9.347,9.3503,9.3605,9.4282,9.4586,9.462,9.5263,9.5533,9.5533,9.5533,9.5533,9.5533,9.5533,9.5533,9.5398,9.4079,9.4011,9.4586,6.2381,6.2381,6.2381,6.2381,6.2381,6.2787,6.3971,6.441,6.4918,6.5764,6.6812,6.7455,6.7455,6.891,7.0297,7.1379,7.2157,7.2834,7.3443,7.4187,7.4762,7.5067,7.7232,7.8314,7.801,7.9431,8.0209,8.0209,8.0209,8.0209,8.0209,8.0209,8.0209,8.0209,8.0209,8.0209,8.0209,8.0209,8.0209,8.0175,7.9735,7.9566,7.9566,7.9566,7.9295,7.916,8.1224,8.1663,0.0,8.1799,8.1934,8.1799,8.1054,8.1122,8.1596,8.2238,8.1866,8.1257,8.1156,8.119,0.0,0.0,8.1426,8.2205,8.2205,8.3118,8.3862,8.3422,8.437,8.5182,8.4708,8.5351,8.6061,0.0,8.6433,8.6704,8.7448,8.755,8.7989,8.914,8.9004,8.8937,8.9241,8.9275,8.9715,9.0763,9.0831,9.1169,9.1913,9.1947,9.2319,9.3064,9.3098,9.3267,9.3571,9.4011,9.4248,9.4248,9.4654,9.4857,9.489,9.5195,9.533,9.5364,9.5669,9.5804,9.5804,9.5804,9.5804,9.5804,9.5804,9.5804,9.5736,9.5093,9.506,9.533,6.299,6.299,6.299,6.299,6.299,6.3362,6.4444,6.4613,6.5121,6.6609,6.7286,6.7658,6.7895,6.9755,7.121,7.1751,7.2259,7.2732,7.3172,7.3883,7.439,7.4593,7.6792,7.7976,7.7976,7.9261,8.0006,8.0209,8.0209,8.0209,8.0209,8.0209,8.0209,8.0209,8.0209,8.0209,8.0209,8.0209,8.0209,8.0141,7.9634,7.9397,7.9397,7.9397,7.9194,7.916,8.1325,8.1629,8.1122,8.2069,8.2408,8.2306,8.1765,8.1968,8.2408,8.2408,8.2035,8.1426,8.0682,8.0885,0.0,8.0378,8.075,8.1291,8.1291,8.2441,8.3355,8.2813,8.4336,8.5621,8.5046,8.6027,0.0,8.7177,8.7211,8.755,8.8463,8.8598,8.9072,9.0357,9.0493,9.0594,9.0797,9.0628,9.0831,9.1541,9.1609,9.1947,9.2692,9.2759,9.2996,9.3571,9.3774,9.3876,9.3876,9.462,9.5026,9.5026,9.5533,9.5804,9.5804,9.6007,9.621,9.6413,9.6413,9.6413,9.6413,9.6413,9.6413,9.6413,9.6413,9.6413,9.6413,9.6413,9.6277,9.6108,6.4546,6.4546,6.4546,6.4546,6.4546,6.4546,6.458,6.4613,6.5121,6.6609,6.6846,6.7117,6.7827,6.9282,7.0229,7.0263,7.0263,7.0906,7.2326,7.3105,7.3849,7.4593,7.6792,7.7976,7.7976,7.8754,7.9498,8.0209,8.0209,8.0209,8.0209,8.0209,8.0209,8.0209,8.0209,8.0209,8.0209,8.0209,8.0209,8.0209,8.0175,8.0175,8.0175,8.0175,8.0581,8.119,8.1291,8.0851,8.0445,8.1934,8.2408,8.2408,8.2374,8.2408,8.2408,8.2408,8.2408,8.2205,8.146,0.0,8.1088,8.0378,8.075,8.1291,8.1291,8.2441,8.349,8.3456,8.4708,8.579,8.5757,8.6399,8.7144,8.7854,8.7955,8.8463,8.9951,9.0154,9.0425,9.1169,9.1271,9.1541,0.0,9.1711,9.1575,9.2319,9.2387,9.2725,9.3503,9.3537,9.3571,9.3571,9.4282,9.4687,9.4687,9.5398,9.577,9.577,9.577,9.5804,9.5804,9.6514,9.7258,9.7935,9.7935,9.7935,9.7935,9.7935,9.7935,9.7935,9.7935,9.7935,9.7935,9.7935,9.7461,9.6853,6.4613,6.4613,6.4613,6.4613,6.4613,6.4749,6.5256,6.5324,6.5696,6.6677,6.6812,0.0,0.0,0.0,0.0,0.0,7.0635,7.1142,7.165,7.28,7.3612,7.3849,7.6048,7.7266,7.7266,7.8483,7.9228,7.9464,7.9464,7.9735,8.0175,7.9701,7.9735,8.0209,8.0209,8.0209,8.0209,8.0209,8.0209,8.0175,7.9667,7.9464,7.9532,8.0006,8.0344,8.075,0.0,8.2611,8.2475,8.2949,8.3456,8.3795,8.3287,8.349,8.3795,8.3287,8.2441,8.1596,8.1359,0.0,8.0513,8.0242,8.0378,8.0682,8.119,8.2069,8.278,8.278,8.5148,8.711,8.6636,8.7922,8.9342,9.0053,8.9782,8.9816,9.0797,9.0932,9.1203,9.1947,9.2049,0.0,0.0,0.0,0.0,9.3131,9.3199,9.33,9.3571,9.4045,9.4315,9.4315,9.506,9.5432,9.5432,9.6142,9.6514,9.6514,9.7022,9.7258,9.7258,9.7529,9.7766,9.8003,9.8003,9.8003,9.8003,9.8003,9.8003,9.8003,9.8003,9.8003,9.807,9.8544,9.8578,9.8273,6.5392,6.5392,6.5392,6.5392,6.5392,0.0,0.0,0.0,0.0,0.0,0.0,0.0,0.0,0.0,0.0,0.0,0.0,7.1312,7.1312,7.2428,7.3206,7.3477,7.5168,7.6352,7.6893,7.8077,7.8855,7.9126,7.9363,7.96,7.9803,7.9329,7.9363,7.9803,7.9803,7.9938,8.0209,8.0209,8.0344,8.0513,7.9803,7.9803,8.031,8.0513,8.075,0.0,8.2881,8.349,8.3524,8.3795,8.4031,8.4133,8.3659,8.3659,8.3828,8.3896,8.2847,0.0,0.0,8.0953,8.0648,8.0919,8.0987,8.119,8.19,8.2678,8.3219,8.3219,8.5554,8.7617,8.7685,8.9072,9.0459,9.1169,9.0899,9.0865,9.1609,9.1711,9.1981,9.2759,9.2827,0.0,0.0,0.0,0.0,9.3537,9.3571,9.3706,9.3977,9.4451,9.4823,9.5093,9.5804,9.6176,9.6176,9.692,9.7292,9.7292,9.7766,9.8003,9.8003,9.8003,9.8003,9.8003,9.8003,9.8172,9.8375,9.8375,9.8544,9.8815,9.8815,9.8815,9.8848,9.9322,9.9491,9.9424,6.6812,6.6812,6.6812,0.0,0.0,0.0,0.0,0.0,0.0,0.0,0.0,0.0,0.0,0.0,0.0,0.0,0.0,0.0,7.1312,7.1988,7.2699,7.3409,7.4187,7.5303,7.6758,7.7536,7.8314,7.9058,7.9735,7.9769,7.916,7.9126,7.9126,7.916,7.916,7.9566,8.0242,8.0242,8.0648,8.1224,8.0581,8.1122,8.2272,8.1596,8.1799,8.2509,8.3253,8.349,8.3625,8.437,8.4133,8.349,8.3456,8.2949,8.2678,8.4099,8.349,8.2205,8.1528,8.1325,8.1494,8.2272,8.2475,8.2678,8.3422,8.4167,8.4708,8.4742,8.5993,8.7516,0.0,0.0,9.0628,9.1406,9.1474,9.1677,9.2421,9.2522,9.2759,0.0,0.0,0.0,0.0,0.0,0.0,9.3639,0.0,9.3977,9.4721,9.4789,9.5127,9.5838,9.6548,9.6954,9.6954,9.7664,9.8003,9.8003,9.8003,9.8037,9.807,9.807,9.807,9.8104,9.8104,9.851,9.9153,9.9153,9.9559,10.0235,10.0235,10.0235,10.0235,10.0235,10.0303,10.0337,0.0,0.0,0.0,0.0,0.0,0.0,0.0,0.0,0.0,0.0,0.0,0.0,0.0,0.0,0.0,0.0,0.0,0.0,7.1312,7.1988,7.2496,7.2665,7.3916,7.4796,7.5202,7.6487,7.7536,7.828,7.845,7.9025,7.9904,7.9363,7.9397,7.9938,7.9938,8.031,8.1021,8.1021,8.1122,8.1325,8.1697,8.1731,8.1596,8.1968,8.2238,8.2509,8.3253,8.349,8.3625,8.437,8.4133,0.0,0.0,8.2543,8.2475,8.2881,8.2306,8.1663,8.2035,8.1731,8.1596,8.2881,8.3219,8.3558,8.4911,8.5351,8.5655,8.623,8.7955,8.9647,0.0,0.0,0.0,9.4417,9.3706,0.0,9.4011,9.3639,0.0,0.0,0.0,9.3571,9.3571,9.4112,0.0,0.0,9.4417,9.4755,9.5466,9.6041,9.6413,9.6582,9.7326,9.7732,9.7732,9.7901,9.8003,9.8003,9.8003,9.8307,9.8815,9.8815,9.9119,9.966,9.966,9.9762,9.9931,9.9931,10.0032,10.0235,10.0235,10.0235,10.0303,10.0878,10.1419,10.1995,0.0,0.0,0.0,0.0,0.0,0.0,0.0,0.0,0.0,0.0,0.0,0.0,0.0,0.0,0.0,0.0,0.0,0.0,0.0,7.1684,7.1921,7.1921,7.3037,7.3781,7.4119,7.5608,7.6893,7.7976,7.8314,7.8923,7.9701,7.9295,7.9329,7.9735,7.9735,8.0141,8.0818,8.1156,8.1291,0.0,0.0,8.2035,8.2238,8.2002,8.2306,8.2949,8.3355,8.3693,8.3964,0.0,0.0,8.2949,8.2543,8.2171,8.1968,8.2306,0.0,8.1799,8.19,8.2069,8.2611,8.4133,8.4742,8.5384,8.6873,8.6974,8.6974,8.7719,8.8835,0.0,0.0,0.0,0.0,0.0,0.0,0.0,9.4687,9.4079,9.3571,0.0,9.3876,0.0,9.4079,9.4755,9.533,0.0,9.5364,9.5499,9.6244,9.665,9.7022,9.736,9.7766,9.8003,9.8003,9.8003,9.8172,9.8476,9.8476,9.8882,9.9593,9.9593,9.9829,10.0235,0.0,10.0405,10.0777,10.1115,10.1419,10.169,10.169,10.169,10.1724,10.1792,10.2096,10.2603,0.0,0.0,0.0,0.0,0.0,0.0,0.0,0.0,0.0,6.7117,6.7557,0.0,0.0,0.0,0.0,0.0,0.0,0.0,0.0,0.0,7.1278,7.1176,7.1853,7.2597,7.3341,7.4695,7.6217,7.7841,7.8483,7.8855,7.8957,7.9058,7.9126,7.9126,7.9228,7.9667,8.0378,8.1021,8.1291,8.1291,8.1494,8.2272,8.3219,0.0,8.2306,8.349,8.349,8.4065,0.0,0.0,8.2408,8.2374,8.2171,8.1663,8.1291,8.2035,8.234,8.2306,8.1866,8.2746,8.4167,8.5689,8.6569,8.7414,8.8767,8.8598,8.8361,8.9072,0.0,9.0053,9.2319,0.0,9.506,9.6074,0.0,9.5702,9.5093,9.4349,9.3842,9.374,9.4315,9.4755,9.4857,9.5499,9.621,9.6819,9.6379,9.6345,9.6988,9.7022,9.7326,9.8003,9.8003,9.8003,9.8003,9.8003,9.8375,9.9085,9.9085,9.9525,10.0405,10.0405,10.0506,10.0641,0.0,0.0,10.169,10.2299,10.2908,10.3483,10.3585,10.3585,10.3517,10.3111,10.3009,10.3111,0.0,0.0,0.0,0.0,0.0,0.0,0.0,6.7726,6.7963,6.8605,6.8233,6.8166,0.0,0.0,0.0,0.0,0.0,0.0,0.0,0.0,0.0,7.0398,7.1109,7.1853,7.2563,7.3443,7.4931,7.7096,7.7232,7.7604,7.8179,7.8822,7.9126,7.9126,7.9735,8.0412,8.1088,8.1224,8.1291,8.1393,8.2611,8.2915,8.2577,8.2306,0.0,0.0,8.349,8.4403,8.5249,8.3118,8.2408,8.2205,8.0987,8.0479,8.0547,8.1257,8.1934,8.2644,8.3761,8.4708,8.5757,8.7245,8.7719,8.8023,8.8869,8.897,0.0,0.0,0.0,9.1609,9.3876,9.4518,0.0,9.8104,0.0,0.0,0.0,0.0,9.5195,0.0,0.0,0.0,0.0,0.0,0.0,0.0,0.0,0.0,9.78,9.78,9.7867,9.8003,9.8003,9.8003,9.8003,9.8003,9.8375,9.9085,9.9085,9.9829,10.1183,10.1183,10.1893,10.2976,10.2401,0.0,10.3179,10.2705,10.2603,10.2806,10.3382,10.3585,10.372,10.4802,10.5614,10.6189,0.0,0.0,0.0,0.0,0.0,0.0,0.0,6.8267,6.8808,6.9553,6.935,6.9248,6.962,7.0331,7.077,0.0,0.0,0.0,0.0,0.0,0.0,7.0229,7.0906,7.165,7.2394,7.3105,7.4627,7.6893,0.0,7.7266,7.801,7.8348,7.872,7.9126,7.9464,8.004,8.075,8.1122,8.1054,8.0851,8.234,8.2712,8.2408,8.2408,0.0,0.0,0.0,0.0,8.6163,8.4674,8.3896,8.3219,8.1359,8.075,8.0919,8.1663,8.2678,8.3727,8.4437,8.5757,8.711,8.782,8.8294,8.8869,8.9985,0.0,0.0,0.0,9.1643,9.2455,9.4349,9.5026,0.0,0.0,0.0,0.0,0.0,0.0,0.0,0.0,0.0,0.0,0.0,0.0,0.0,0.0,0.0,0.0,9.8003,9.8003,9.8003,9.8003,9.8003,9.8003,9.8003,9.8375,9.895,9.9694,10.01,10.0878,10.1995,10.1995,10.2401,10.3009,10.2705,0.0,10.3077,10.3483,10.3618,10.3686,10.4498,10.4701,10.4802,10.5513,10.5783,10.5885,0.0,0.0,0.0,0.0,0.0,0.0,0.0,6.8944,6.9586,7.0331,7.0432,7.0432,7.0432,7.0973,7.1312,0.0,0.0,0.0,0.0,0.0,0.0,0.0,0.0,7.1481,7.2394,0.0,0.0,0.0,7.6657,0.0,0.0,0.0,0.0,0.0,7.8957,7.9431,8.0006,8.075,8.0818,0.0,0.0,8.2509,0.0,0.0,0.0,0.0,0.0,0.0,0.0,0.0,8.5384,8.4573,8.2813,8.19,8.1663,8.2441,8.3592,8.4674,8.4843,8.6399,8.8023,8.8192,8.8666,8.9444,9.0763,9.0628,0.0,9.2116,9.2556,9.3131,9.4654,9.5398,9.6311,0.0,9.8104,0.0,0.0,0.0,0.0,0.0,0.0,0.0,0.0,0.0,0.0,0.0,0.0,0.0,9.8003,9.8003,9.8003,9.8003,9.8172,9.8172,9.8003,9.8882,9.9627,10.0235,10.1183,10.1893,10.2502,10.2705,10.2705,10.2705,10.2705,0.0,0.0,10.4193,10.4667,10.4769,10.5513,10.5817,10.5817,10.6189,10.5919,10.558,0.0,0.0,0.0,0.0,0.0,0.0,0.0,7.0026,7.0364,7.1109,7.121,7.121,7.121,7.1278,7.1312,0.0,0.0,0.0,0.0,0.0,0.0,0.0,0.0,0.0,0.0,0.0,0.0,0.0,0.0,0.0,0.0,0.0,0.0,0.0,0.0,0.0,7.9261,8.0006,0.0,0.0,0.0,0.0,0.0,0.0,0.0,0.0,0.0,0.0,0.0,0.0,0.0,8.5621,8.5418,8.3964,8.2441,8.3186,0.0,0.0,8.5486,8.6805,8.8158,8.8801,8.9038,8.9309,9.0121,0.0,9.0628,9.2116,9.2996,9.3943,9.5432,9.5736,9.648,9.8645,9.8442,9.7969,9.7834,9.78,9.7529,9.6785,0.0,0.0,0.0,0.0,0.0,0.0,0.0,0.0,0.0,9.8003,9.8003,9.8003,9.8645,9.8679,9.8003,9.9424,10.0134,10.0235,10.1724,10.2401,10.2502,10.3212,10.3483,10.3483,10.3483,0.0,0.0,10.4599,10.4667,10.4769,10.5513,10.5817,10.5986,10.7306,10.7813,10.7915,0.0,0.0,0.0,0.0,0.0,0.0,7.0094,7.0567,7.0973,7.1278,7.1312,7.1312,7.1312,7.1312,7.1312,7.1312,0.0,0.0,0.0,0.0,0.0,0.0,0.0,0.0,0.0,0.0,0.0,0.0,0.0,0.0,0.0,0.0,0.0,0.0,0.0,0.0,0.0,8.0073,0.0,0.0,0.0,0.0,0.0,0.0,0.0,0.0,0.0,0.0,0.0,0.0,0.0,0.0,8.711,8.6196,8.4979,0.0,8.5351,8.6535,8.5926,8.7177,8.8734,8.9004,8.9072,8.941,9.0594,9.1203,9.1981,9.347,9.4383,9.5229,9.6244,9.6447,9.6886,9.8206,9.8578,9.8037,9.6277,9.6785,9.6886,9.5702,9.5973,0.0,0.0,0.0,0.0,0.0,0.0,0.0,0.0,9.8003,9.8206,9.8645,9.895,9.9187,9.9322,10.0405,10.1115,10.1622,10.2198,10.2705,10.3179,10.3483,10.3585,10.3585,10.4092,0.0,0.0,10.5174,10.5377,10.5411,10.6189,10.6494,10.6595,10.761,10.8016,10.8219,0.0,0.0,0.0,0.0,0.0,7.0667,7.0731,7.1151,7.1491,7.1401,7.1367,7.1401,7.1312,7.1312,7.1312,7.1367,7.1312,0.0,0.0,0.0,0.0,0.0,0.0,0.0,0.0,0.0,0.0,0.0,0.0,0.0,0.0,0.0,0.0,0.0,0.0,0.0,0.0,0.0,0.0,0.0,0.0,0.0,0.0,0.0,0.0,0.0,0.0,0.0,0.0,0.0,0.0,8.8328,8.8328,8.7955,8.7177,8.5215,8.5926,8.711,8.6061,8.7076,8.8531,8.897,8.9241,8.9816,9.1305,9.2218,9.3199,9.4721,9.5601,9.6277,9.6785,9.7056,9.7394,9.7935,9.824,9.7698,9.5635,9.6244,9.648,9.5466,0.0,0.0,0.0,0.0,0.0,0.0,0.0,0.0,0.0,9.8341,9.8578,9.9085,9.9525,9.9931,10.0235,10.1216,10.1893,10.2198,10.2603,10.3111,10.3585,10.3787,10.3889,10.399,0.0,0.0,0.0,10.5817,10.6122,10.6189,10.6697,10.7001,10.7306,10.7813,10.8016,10.8219,0.0,0.0,0.0,0.0,0.0,0.0,7.1883,7.1985,7.1898,7.16,7.16,7.1512,7.1312,7.1312,7.1367,7.16,7.1367,0.0,0.0,0.0,0.0,0.0,0.0,0.0,0.0,0.0,0.0,0.0,0.0,0.0,0.0,0.0,0.0,0.0,0.0,0.0,0.0,0.0,0.0,0.0,0.0,0.0,0.0,0.0,0.0,0.0,0.0,0.0,0.0,0.0,0.0,0.0,0.0,8.9072,8.8463,8.5486,8.5182,8.579,8.579,8.6332,8.7279,8.8734,8.9647,9.0594,9.2083,9.2996,9.3977,9.5466,9.6379,9.6886,9.6886,9.7495,9.8003,9.8003,9.7394,9.6886,9.6853,9.6853,9.6886,0.0,0.0,0.0,0.0,0.0,0.0,0.0,0.0,0.0,0.0,9.9085,9.9085,9.9085,10.0574,10.098,10.0235,10.1724,10.2096,10.1386,10.2874,10.3585,10.3585,10.4363,10.4667,0.0,0.0,0.0,0.0,10.6595,10.69,10.69,10.69,10.7306,10.8016,10.8016,10.8016,10.8118,0.0,0.0,0.0,0.0,0.0,0.0,0.0,7.1985,7.1985,7.1898,7.1688,7.16,7.1546,7.1546,7.1512,7.16,7.1367,0.0,0.0,0.0,0.0,0.0,0.0,0.0,0.0,0.0,0.0,0.0,0.0,0.0,0.0,0.0,0.0,0.0,0.0,0.0,0.0,0.0,0.0,0.0,0.0,0.0,0.0,0.0,0.0,0.0,0.0,0.0,0.0,0.0,0.0,0.0,0.0,0.0,0.0,8.6771,8.7076,8.782,8.6839,8.7448,8.8497,8.897,9.0019,9.1203,9.2184,9.3808,9.5364,9.6345,9.7123,9.7664,9.7664,9.8679,9.9018,9.7495,9.7901,9.7698,9.5669,9.6683,0.0,9.6954,0.0,0.0,0.0,0.0,0.0,0.0,0.0,0.0,0.0,9.9593,10.01,10.0675,10.1081,10.1487,10.1792,10.2299,10.2908,10.3652,10.3585,10.4092,10.5107,10.531,0.0,0.0,0.0,0.0,0.0,10.6798,10.69,10.6967,10.7509,10.7813,10.8016,10.8016,10.8693,10.9505,0.0,0.0,0.0,0.0,0.0,0.0,0.0,7.2245,7.2245,7.2159,7.1985,7.1864,7.1776,7.1776,7.1913,7.2273,7.2165,0.0,0.0,0.0,0.0,0.0,0.0,0.0,0.0,0.0,0.0,0.0,0.0,0.0,7.8613,7.9194,7.9532,7.9532,0.0,0.0,0.0,0.0,0.0,0.0,0.0,0.0,8.755,0.0,0.0,0.0,0.0,0.0,0.0,0.0,0.0,0.0,0.0,0.0,0.0,0.0,8.8801,8.9173,8.7719,8.8192,8.914,8.9444,9.0831,9.2353,9.3098,9.4789,9.6413,9.7157,9.7225,9.7258,9.7529,9.8104,9.8172,9.7056,9.7428,9.7394,9.6142,9.7123,0.0,9.7732,0.0,0.0,0.0,0.0,0.0,0.0,0.0,0.0,0.0,0.0,10.0709,10.1792,10.1792,10.1995,10.2502,10.2806,10.3382,10.4295,10.4092,10.4599,10.5817,10.5817,0.0,0.0,0.0,0.0,0.0,10.7204,10.7306,10.7407,10.7813,10.8219,10.849,10.849,10.92,11.0283,0.0,0.0,0.0,0.0,0.0,0.0,0.0,7.2671,7.2586,7.2331,7.2331,7.2245,7.2072,7.2053,7.2448,7.3429,0.0,0.0,0.0,0.0,0.0,0.0,0.0,0.0,0.0,0.0,0.0,7.7278,7.8579,7.9325,7.959,8.0071,8.0209,8.0209,8.0209,8.0242,0.0,0.0,0.0,0.0,0.0,0.0,0.0,0.0,0.0,0.0,0.0,0.0,0.0,0.0,0.0,0.0,0.0,0.0,0.0,0.0,0.0,0.0,0.0,8.8734,8.941,9.0188,9.2015,9.3842,9.462,9.5905,0.0,9.78,9.6819,9.6108,9.6819,9.6413,9.6176,9.692,9.6379,9.6413,9.7935,9.8206,9.8476,0.0,0.0,0.0,0.0,0.0,0.0,0.0,0.0,0.0,0.0,0.0,10.0912,10.2502,10.2603,10.2603,10.2603,10.328,10.3686,10.3787,10.4464,10.5174,10.5885,10.5885,0.0,0.0,0.0,0.0,0.0,10.7712,10.8016,10.8016,10.8016,10.8524,10.9268,10.9268,10.9809,11.0621,0.0,0.0,0.0,0.0,0.0,0.0,0.0,0.0,0.0,0.0,7.2416,7.2331,7.2245,7.2793,7.3205,0.0,0.0,0.0,0.0,0.0,0.0,0.0,0.0,0.0,0.0,0.0,0.0,7.8347,7.9303,7.9956,8.0338,8.0607,8.0709,8.051,8.051,8.0816,0.0,0.0,0.0,0.0,0.0,0.0,0.0,0.0,0.0,0.0,8.711,8.7888,0.0,0.0,0.0,0.0,0.0,0.0,0.0,0.0,9.0785,9.093,9.0945,0.0,9.0966,9.1711,9.3165,9.462,0.0,9.6683,9.7631,9.7225,9.6853,9.6853,9.7597,9.7597,9.7732,9.8442,9.7495,9.736,9.9424,10.0202,10.0405,9.9999,0.0,0.0,0.0,0.0,0.0,0.0,0.0,0.0,0.0,0.0,10.0912,10.2502,10.3009,10.3314,10.3314,10.3483,10.4193,10.531,10.5479,10.5919,10.6595,10.6595,0.0,0.0,0.0,0.0,10.7712,10.7306,10.7509,10.8016,10.8016,10.8828,11.0012,11.0012,11.1196,11.2786,0.0,0.0,0.0,0.0,0.0,0.0,0.0,0.0,0.0,0.0,0.0,7.2501,7.2501,7.3189,0.0,0.0,0.0,0.0,0.0,0.0,0.0,0.0,0.0,0.0,0.0,0.0,0.0,0.0,8.011,8.0595,8.1005,8.1005,8.0906,8.0808,8.1149,8.1899,0.0,0.0,0.0,0.0,0.0,0.0,0.0,0.0,0.0,0.0,8.6616,8.7125,0.0,8.8504,8.9007,8.9644,0.0,0.0,0.0,0.0,9.2031,9.2313,9.2839,9.2543,9.2212,9.2992,9.4197,9.5398,9.6142,9.7191,9.7901,9.7495,9.7123,9.7123,9.7867,9.7732,9.7732,9.8476,9.8206,9.8578,10.0506,10.1081,10.1183,10.0811,0.0,0.0,0.0,0.0,0.0,0.0,0.0,0.0,0.0,10.0608,10.1419,10.2976,10.3382,10.3585,10.3585,10.4295,10.5005,10.5817,10.6122,10.6494,10.69,10.69,10.69,0.0,0.0,0.0,10.7509,10.7813,10.8185,10.8591,10.893,10.9809,11.0824,11.1196,11.2279,11.3598,0.0,0.0,0.0,0.0,0.0,0.0,0.0,0.0,0.0,0.0,0.0,0.0,0.0,0.0,0.0,0.0,0.0,0.0,0.0,0.0,0.0,0.0,0.0,0.0,0.0,0.0,7.9599,8.0355,8.0926,8.1371,8.1565,8.1474,8.1444,8.1479,8.2197,8.3326,0.0,0.0,0.0,0.0,0.0,0.0,0.0,0.0,0.0,0.0,0.0,0.0,0.0,8.7496,8.8243,8.9083,9.0707,0.0,0.0,0.0,0.0,0.0,9.4409,9.3805,9.3236,9.4223,9.5213,9.6128,9.6974,9.7686,9.8126,9.8003,9.7495,9.7415,9.816,9.7664,9.7461,9.8329,9.9074,9.9887,10.0836,10.1047,10.1183,10.1081,0.0,0.0,0.0,0.0,0.0,0.0,0.0,0.0,0.0,10.1115,10.2198,10.3686,10.3889,10.3889,10.3889,10.5208,10.5885,10.5986,10.6595,10.69,10.69,10.69,10.69,0.0,0.0,0.0,10.7373,10.8659,10.9302,10.9572,11.0215,11.0993,11.1805,11.238,11.3192,11.4004,0.0,0.0,0.0,0.0,0.0,0.0,0.0,0.0,0.0,0.0,0.0,0.0,0.0,0.0,0.0,0.0,0.0,0.0,0.0,0.0,0.0,0.0,0.0,0.0,0.0,0.0,7.9786,8.051,8.1956,8.2549,8.2355,8.3168,8.3478,8.3217,8.4304,8.513,8.5822,8.7229,0.0,0.0,0.0,0.0,0.0,0.0,0.0,0.0,0.0,0.0,0.0,8.8017,8.9282,9.0776,9.1594,0.0,0.0,0.0,0.0,0.0,9.4713,9.4258,9.4042,9.5866,9.6315,9.6623,9.7983,9.8546,9.8648,9.8126,9.8147,9.8439,9.9186,9.9097,9.9232,10.0507,10.1133,10.0782,0.0,0.0,10.0202,0.0,0.0,0.0,0.0,0.0,0.0,0.0,0.0,0.0,0.0,0.0,10.3009,10.4464,10.5107,10.5479,10.5479,10.5716,10.6122,10.6697,10.6798,10.69,10.69,10.69,10.69,0.0,0.0,10.7712,10.8862,10.9065,10.9877,11.1095,11.1196,11.2076,11.3293,11.3395,11.4308,11.5526,0.0,0.0,0.0,0.0,0.0,0.0,0.0,0.0,0.0,0.0,0.0,0.0,0.0,0.0,0.0,0.0,0.0,0.0,0.0,0.0,0.0,0.0,0.0,0.0,0.0,7.9741,8.0672,8.1845,8.2569,8.3024,8.3306,8.3748,8.4161,8.4476,8.4919,8.5505,8.6196,8.771,0.0,0.0,0.0,0.0,0.0,0.0,0.0,0.0,0.0,0.0,0.0,0.0,8.9223,9.0417,9.2085,0.0,0.0,0.0,0.0,0.0,9.4669,9.4756,9.5262,9.6292,9.5914,9.5804,9.7678,9.8241,9.8378,9.8546,9.9261,10.0166,10.095,10.0282,9.984,10.0547,0.0,0.0,0.0,0.0,0.0,0.0,0.0,0.0,0.0,0.0,0.0,0.0,0.0,0.0,0.0,0.0,10.4238,10.5472,10.5879,10.6252,10.6392,10.6392,10.6595,10.69,10.69,10.69,10.69,10.69,10.69,10.69,0.0,10.849,10.9268,11.008,11.0993,11.2008,11.2414,11.3226,11.4207,11.4613,11.5222,11.5729,0.0,0.0,0.0,0.0,0.0,0.0,0.0,0.0,0.0,0.0,0.0,0.0,0.0,0.0,0.0,0.0,0.0,0.0,0.0,0.0,0.0,0.0,0.0,0.0,0.0,8.0327,8.1362,8.2914,8.3087,8.3742,8.4811,8.4639,8.4984,8.5708,8.5708,8.6018,8.6674,8.8191,8.864,0.0,0.0,0.0,0.0,0.0,0.0,0.0,0.0,0.0,0.0,0.0,0.0,0.0,0.0,0.0,0.0,9.4089,9.4813,9.5262,9.471,9.5254,9.6106,9.6676,9.6017,9.5879,9.7795,9.8376,9.8753,9.959,10.0649,10.1797,10.2379,10.125,10.0549,10.0908,0.0,0.0,0.0,0.0,0.0,0.0,0.0,0.0,0.0,0.0,0.0,0.0,0.0,0.0,0.0,0.0,10.5612,10.6482,10.6648,10.6822,10.7,10.7134,10.7134,10.7,10.7,10.7,10.7,10.7204,10.7271,10.7204,10.8794,10.9572,10.9775,11.1437,11.2454,11.309,11.3944,11.4444,11.5019,11.5628,11.5729,11.5492,0.0,0.0,0.0,0.0,0.0,0.0,0.0,0.0,0.0,0.0,0.0,0.0,0.0,0.0,0.0,0.0,0.0,0.0,0.0,0.0,0.0,0.0,0.0,0.0,0.0,8.0603,8.1362,8.2914,8.3604,8.5052,8.7156,8.6467,8.6536,8.726,8.726,8.7294,8.7432,8.8984,8.9226,8.8639,8.9364,0.0,0.0,0.0,0.0,0.0,0.0,0.0,0.0,0.0,0.0,0.0,0.0,0.0,9.4227,9.4261,9.4813,9.5365,9.5331,9.54,9.5813,9.7227,9.7827,9.8317,9.921,10.0132,10.1096,10.1968,10.2399,10.2712,10.2815,10.1818,10.1627,10.3398,0.0,0.0,0.0,0.0,0.0,0.0,0.0,0.0,0.0,0.0,0.0,0.0,0.0,0.0,0.0,0.0,0.0,10.7298,10.7762,10.7762,10.7434,10.7664,10.7664,10.7434,10.7434,10.7434,10.7434,10.8148,10.8253,10.8016,10.9606,11.0587,11.1365,11.3244,11.4154,11.4647,11.5824,11.5986,11.5729,11.5831,11.5391,11.4782,0.0,0.0,0.0,0.0,0.0,0.0,0.0,0.0,0.0,0.0,0.0,0.0,0.0,0.0,0.0,0.0,0.0,0.0,0.0,0.0,0.0,0.0,0.0,8.0845,8.1362,8.181,8.2569,8.3604,8.4846,8.6122,8.7398,8.6674,8.6708,8.7398,8.6915,8.6984,8.7467,8.8019,8.8398,8.857,8.8364,8.7915,0.0,0.0,0.0,0.0,0.0,0.0,0.0,0.0,8.995,9.0985,9.195,9.2847,9.3537,9.3537,9.4434,9.5296,9.4813,9.5365,9.6331,9.74,9.8458,9.9203,9.9147,9.9698,10.0353,10.0855,10.1715,10.2626,10.304,10.3263,10.3022,10.2351,0.0,0.0,0.0,0.0,0.0,0.0,0.0,0.0,0.0,0.0,0.0,0.0,0.0,0.0,0.0,0.0,0.0,10.8091,10.8221,10.8057,10.783,10.7961,10.7961,10.8091,10.7864,10.7864,10.7733,10.8826,10.9135,10.9135,11.0929,11.2217,11.3244,11.4438,11.5464,11.6111,11.6274,11.6155,11.5831,11.5831,11.5323,11.4647,0.0,0.0,0.0,0.0,0.0,0.0,0.0,0.0,0.0,0.0,0.0,0.0,0.0,0.0,0.0,0.0,0.0,0.0,0.0,0.0,0.0,0.0,0.0,8.1121,8.2121,8.288,8.35,8.4018,8.5777,8.7053,8.7777,8.726,8.7156,8.7398,8.7156,8.7191,8.7432,8.7674,8.795,8.8157,8.7639,8.726,0.0,0.0,0.0,0.0,0.0,0.0,0.0,0.0,9.0398,9.1054,9.233,9.2916,9.3158,9.3399,9.4399,9.5331,9.5055,9.5917,9.7124,9.8124,9.9504,10.0366,9.9366,9.9711,10.0297,10.0297,10.147,10.2884,10.3815,10.4091,0.0,0.0,0.0,0.0,0.0,0.0,0.0,0.0,0.0,0.0,0.0,0.0,0.0,0.0,0.0,0.0,0.0,0.0,0.0,0.0,10.8641,10.8513,10.8255,10.8255,10.8453,10.8985,10.8856,10.8563,10.8536,11.0048,11.0698,11.0664,11.2633,11.403,11.4749,11.5571,11.6536,11.7087,11.6662,11.6376,11.6266,11.6266,11.5655,11.4704,0.0,0.0,0.0,0.0,0.0,0.0,0.0,0.0,0.0,0.0,0.0,0.0,0.0,0.0,0.0,0.0,0.0,0.0,7.9431,7.8844,7.9086,8.0569,8.0638,8.1362,8.288,8.3638,8.4018,8.4052,8.6294,8.7812,8.8605,8.857,8.8157,0.0,0.0,0.0,8.7467,8.826,8.8122,8.7432,8.7432,8.6984,8.6398,0.0,0.0,0.0,0.0,0.0,0.0,0.0,9.0812,9.095,9.1744,9.2502,9.3261,9.4054,9.4813,9.5537,9.6296,9.7055,9.8021,9.9504,10.0987,10.178,10.0194,10.0504,10.109,10.109,10.2263,10.3781,10.5333,10.4298,0.0,0.0,0.0,0.0,0.0,0.0,0.0,0.0,0.0,0.0,0.0,0.0,0.0,0.0,0.0,0.0,0.0,0.0,0.0,0.0,10.8735,10.8862,10.8479,10.8862,10.9402,11.0127,11.0127,11.0068,10.968,11.2015,11.2741,11.2641,11.4896,11.5887,11.5955,11.7093,11.7507,11.7542,11.7087,11.698,11.698,11.698,11.5989,11.4725,0.0,0.0,0.0,0.0,0.0,0.0,0.0,0.0,0.0,0.0,0.0,0.0,0.0,0.0,0.0,0.0,0.0,0.0,8.1017,8.0396,8.0638,8.2155,8.2224,8.2673,8.3673,8.4466,8.5363,8.6398,8.657,8.757,8.9329,8.7743,0.0,8.895,0.0,0.0,8.8226,8.7881,8.795,8.8226,8.8226,8.8122,8.795,0.0,0.0,0.0,0.0,0.0,0.0,0.0,0.0,0.0,9.2364,9.2916,9.3365,9.4675,9.5227,9.5675,9.6986,9.671,9.6676,9.9262,10.0194,10.0297,9.9331,10.0573,10.1677,10.1194,10.2263,10.3401,10.3884,10.3194,0.0,0.0,0.0,0.0,0.0,0.0,0.0,0.0,0.0,0.0,0.0,0.0,0.0,0.0,0.0,0.0,0.0,0.0,0.0,0.0,10.8345,10.8345,10.8827,10.9575,10.992,11.0196,11.1817,11.2265,11.1652,11.3144,11.3939,11.4625,11.6027,11.6779,11.7093,11.7716,11.7819,11.7404,11.6785,11.6817,11.6878,11.5784,11.5101,11.4657,0.0,0.0,0.0,0.0,0.0,0.0,0.0,0.0,8.1086,8.1086,8.1086,8.1259,0.0,0.0,0.0,8.1741,8.0396,0.0,8.1259,8.0603,8.0879,8.2397,8.2466,8.2949,8.3983,8.5087,8.6087,8.6984,8.6811,8.7605,8.9226,8.7846,0.0,8.8743,0.0,8.8019,8.857,8.8398,8.8605,8.9019,8.8708,8.8605,8.8639,0.0,0.0,0.0,0.0,0.0,0.0,0.0,0.0,0.0,9.2606,9.2882,9.302,9.4848,9.5193,9.5331,9.7193,9.6779,9.6572,9.9607,10.0366,10.0297,10.0194,10.0504,10.0987,10.1401,10.1987,10.2504,10.278,10.247,0.0,0.0,0.0,0.0,0.0,0.0,0.0,0.0,0.0,0.0,0.0,0.0,0.0,0.0,0.0,0.0,0.0,0.0,0.0,0.0,10.8402,10.8609,10.9023,10.9713,11.0437,11.1092,11.2817,11.3817,11.43,11.486,11.5548,11.5928,11.7027,11.7576,11.7819,11.7957,11.7991,11.775,11.6959,11.6856,11.6785,11.5585,11.4968,11.4659,0.0,0.0,0.0,0.0,0.0,0.0,0.0,8.181,8.181,8.181,8.181,8.181,0.0,0.0,0.0,8.1741,8.0534,8.0017,8.0672,8.0086,8.0396,8.1948,8.2086,8.2707,8.3983,8.5397,8.6122,8.6191,8.6949,8.7777,8.8708,0.0,8.8226,8.7777,0.0,8.926,8.8743,8.9433,8.9709,8.964,8.9053,8.8812,8.8881,8.9536,0.0,0.0,0.0,0.0,0.0,0.0,0.0,0.0,9.264,9.264,9.2537,9.4813,9.4951,9.4882,9.7158,9.7158,9.7193,10.0159,10.0883,10.109,10.1884,10.0401,9.9469,10.1573,0.0,10.1263,10.1884,0.0,0.0,0.0,0.0,0.0,0.0,0.0,0.0,0.0,0.0,0.0,0.0,0.0,0.0,0.0,0.0,0.0,0.0,0.0,0.0,10.7919,10.8609,10.9023,10.9127,10.9816,11.1024,11.2507,11.3403,11.4886,11.699,11.699,11.699,11.7094,11.7818,11.8094,11.8094,11.8094,11.8094,11.7922,11.7197,11.6887,11.6783,11.5921,11.5197,11.4714,0.0,0.0,0.0,0.0,0.0,0.0,8.181,8.181,8.181,8.181,8.181,8.181,8.181,8.1638,0.0,8.1776,8.15,8.1362,8.1535,8.1397,8.1983,8.3466,8.4121,8.4328,8.4018,8.4328,8.4811,8.5432,8.6191,8.7536,8.9433,0.0,0.0,9.0054,0.0,8.9053,8.9467,8.964,8.9709,8.9743,9.0157,9.0329,9.0329,9.0502,9.0571,0.0,0.0,0.0,0.0,0.0,0.0,0.0,9.2813,9.2985,9.3296,9.5572,9.5744,9.5641,9.7917,9.7538,9.6952,9.8814,9.9262,9.9642,10.0987,10.047,9.978,10.0297,10.078,0.0,0.0,0.0,0.0,0.0,0.0,0.0,0.0,0.0,0.0,0.0,0.0,0.0,0.0,0.0,0.0,0.0,0.0,0.0,0.0,0.0,0.0,10.7919,10.8092,10.8713,10.992,11.0713,11.1817,0.0,11.4714,11.5921,11.699,11.699,11.7301,11.7887,11.799,11.8094,11.8094,11.8094,11.7784,11.7197,11.6404,11.6094,11.5921,11.461,11.43,11.461,0.0,0.0,0.0,0.0,0.0,0.0,0.0,0.0,8.219,8.1845,8.181,8.181,8.181,8.181,0.0,0.0,8.181,8.181,8.181,8.181,8.2466,8.3949,8.5121,8.519,8.4052,8.4397,8.4604,8.4639,8.5397,8.6742,0.0,0.0,0.0,8.9743,0.0,8.9329,8.9709,9.0088,9.0226,9.026,9.0674,9.0812,9.0812,9.0812,9.0812,9.0812,9.0812,0.0,0.0,0.0,0.0,0.0,0.0,0.0,9.3985,9.5503,9.5951,9.6262,9.7848,9.74,9.6779,9.7952,9.909,9.9987,10.0401,10.047,10.0366,9.9987,0.0,0.0,0.0,0.0,0.0,0.0,0.0,0.0,0.0,0.0,0.0,0.0,0.0,0.0,0.0,0.0,0.0,0.0,0.0,0.0,0.0,10.654,10.7126,10.7919,10.7919,10.8609,11.0196,11.1299,11.261,11.4128,11.568,11.6783,11.7508,11.7197,11.7404,11.8094,11.7301,11.7197,11.7508,11.7197,11.6783,11.63,11.5611,11.53,11.5128,11.399,11.3817,11.4093,0.0,0.0,0.0,0.0,0.0,0.0,0.0,0.0,0.0,8.1879,8.1965,8.1965,8.181,8.181,8.1741,0.0,0.0,0.0,8.1603,8.1948,8.2673,8.3776,8.5294,8.5466,8.4052,8.4535,8.4604,8.4225,8.4604,8.557,0.0,0.0,0.0,8.8812,8.9571,8.9881,8.995,9.0536,9.0812,9.0812,9.0812,9.0812,9.0812,9.0812,9.0881,9.0985,9.0847,9.0881,9.1123,9.1778,0.0,0.0,0.0,0.0,9.4606,9.5193,9.602,9.6814,9.7331,9.709,9.6779,9.7193,9.8986,10.047,9.9676,10.0194,10.0676,10.0194,0.0,0.0,0.0,0.0,0.0,0.0,0.0,0.0,0.0,0.0,0.0,0.0,0.0,0.0,0.0,0.0,0.0,0.0,0.0,0.0,10.5436,10.6229,10.7023,10.7712,10.8092,10.9023,11.061,11.192,11.3403,11.5093,11.6507,11.7404,11.7887,11.7094,11.7197,11.7818,11.6404,11.6197,11.6714,11.6094,11.5714,11.5507,11.4921,11.461,11.4404,11.3817,11.361,11.361,0.0,0.0,0.0,0.0,0.0,0.0,0.0,0.0,0.0,0.0,8.2453,8.26,8.1871,8.181,8.1535,8.0845,8.1397,8.15,8.081,0.0,0.0,8.3087,8.4535,8.4915,8.4018,8.35,8.3811,8.5052,8.3811,8.3983,0.0,0.0,0.0,8.9605,0.0,9.0674,9.0674,9.0778,9.0812,9.0812,9.0812,9.0812,9.0812,9.0812,9.1226,9.1744,9.1054,9.1261,9.1847,9.195,9.2399,0.0,0.0,0.0,9.5262,9.5365,9.64,9.74,9.6814,9.709,9.7227,9.5986,9.74,9.8883,9.8159,9.9055,10.0194,0.0,0.0,0.0,0.0,0.0,0.0,0.0,0.0,0.0,0.0,0.0,0.0,0.0,0.0,0.0,0.0,0.0,0.0,0.0,0.0,0.0,10.4677,10.5988,10.6747,10.6919,10.8816,11.061,11.2127,11.2989,11.4507,11.6714,11.7508,11.768,11.7094,11.63,11.6404,11.7094,11.6197,11.5887,11.599,11.5818,11.5404,11.4817,11.4714,11.43,11.3714,11.361,11.361,11.361,0.0,0.0,0.0,0.0,0.0,0.0,0.0,0.0,0.0,0.0,0.0,8.2781,8.1871,8.181,8.15,8.0672,8.1362,8.1638,8.1293,8.2604,8.3431,8.3535,8.4604,8.4811,8.4018,8.4121,8.4294,8.4535,8.3845,8.4087,0.0,8.6639,8.7708,0.0,0.0,0.0,9.0812,9.0812,9.0812,9.0812,9.0812,9.1196,9.1606,9.1506,9.2062,9.272,9.2232,9.233,9.2675,9.3123,9.3503,9.3916,9.4675,0.0,0.0,0.0,9.7055,9.8745,9.7986,9.7745,9.74,9.6296,9.74,9.8607,9.7848,9.8814,10.009,0.0,0.0,0.0,0.0,0.0,0.0,0.0,0.0,0.0,0.0,0.0,0.0,0.0,0.0,0.0,0.0,0.0,0.0,0.0,0.0,10.5195,10.5712,10.6022,10.6712,10.7919,10.9023,11.0506,11.2403,11.361,11.5404,11.7611,11.7508,11.7301,11.699,11.5714,11.5611,11.63,11.5093,11.4817,11.5197,11.4714,11.4404,11.4093,11.4093,11.3886,11.361,11.361,11.361,11.3679,0.0,0.0,0.0,0.0,0.0,0.0,0.0,0.0,0.0,0.0,0.0,8.363,8.2544,0.0,0.0,0.0,8.1515,8.181,8.181,8.2656,8.3478,8.3983,8.4777,8.5018,8.4604,8.4984,8.5018,8.4604,8.419,8.4432,8.5225,8.5949,8.6708,0.0,8.9019,0.0,0.0,0.0,0.0,9.0812,9.1299,9.1952,9.2653,9.2681,9.33,9.4038,9.3481,9.3451,9.3864,0.0,9.4721,9.4951,9.5503,9.6607,0.0,0.0,0.0,9.9262,9.8883,9.8538,9.8021,9.7055,9.8228,9.94,9.8469,0.0,0.0,0.0,0.0,0.0,0.0,0.0,0.0,0.0,0.0,0.0,0.0,0.0,0.0,0.0,0.0,0.0,0.0,0.0,0.0,0.0,0.0,10.5298,10.6402,10.6333,10.7023,10.892,10.9609,11.092,11.2989,11.4714,11.6404,11.8094,11.737,11.6887,11.6611,11.53,11.4921,11.5197,11.4093,11.3886,11.4404,11.3817,11.361,11.361,11.361,11.361,11.361,11.361,11.3714,11.399,0.0,0.0,0.0,0.0,0.0,0.0,0.0,0.0,0.0,0.0,0.0,8.606,8.442,8.3505,8.2664,8.1857,8.1817,8.181,8.181,8.3206,8.4065,8.3983,8.4777,0.0,8.6191,8.5535,8.5535,8.6191,8.4742,0.0,8.5225,8.5949,8.6708,8.7467,8.9019,9.0123,9.0812,0.0,0.0,0.0,9.2643,9.339,9.3489,9.4492,9.533,9.5757,9.4331,9.4596,0.0,0.0,0.0,0.0,9.6434,9.7021,9.7503,0.0,0.0,0.0,9.8607,9.9262,9.9435,9.7986,9.9849,10.1608,10.009,0.0,0.0,0.0,0.0,0.0,0.0,0.0,0.0,0.0,0.0,0.0,0.0,0.0,0.0,0.0,0.0,0.0,0.0,0.0,0.0,0.0,0.0,10.5609,10.5712,10.7023,10.8195,10.9023,11.1127,11.3024,11.461,11.6818,11.799,11.8094,11.737,11.6611,11.5818,11.5093,11.43,11.3714,11.361,11.361,11.3679,11.361,11.361,11.361,11.361,11.361,11.361,11.361,11.4024,11.461,0.0,0.0,0.0,0.0,0.0,0.0,0.0,0.0,0.0,0.0,0.0,0.0,0.0,8.5642,8.4975,8.3661,8.2524,8.2042,8.2565,8.3171,8.414,8.564,8.5448,8.5635,8.6437,8.6682,8.6682,8.6472,8.6495,8.6929,8.7705,8.741,8.7833,8.9054,8.95,9.0123,9.0812,9.0812,0.0,0.0,0.0,0.0,9.5237,9.5615,9.6255,0.0,0.0,0.0,0.0,0.0,0.0,0.0,0.0,9.7855,9.9408,9.9423,9.8607,9.8055,9.978,9.9366,9.8469,9.84,9.9952,10.1194,10.009,10.1677,0.0,0.0,0.0,0.0,0.0,0.0,0.0,0.0,0.0,0.0,0.0,0.0,0.0,0.0,0.0,0.0,0.0,0.0,0.0,0.0,0.0,0.0,10.6333,10.7333,10.823,10.9023,11.123,11.361,11.6197,11.7508,11.7887,11.7404,11.6611,11.5818,11.5093,11.43,11.3817,11.361,11.361,11.361,11.361,11.361,11.361,11.361,11.361,11.361,11.3679,11.4093,11.4507,11.4817,0.0,0.0,0.0,0.0,0.0,0.0,0.0,0.0,0.0,0.0,0.0,0.0,0.0,0.0,8.5974,8.4942,8.429,8.4109,8.4333,8.4592,8.55,8.7036,8.6505,8.654,8.7387,8.7881,8.8023,8.7866,8.8453,8.907,0.0,8.9518,8.9729,9.0406,9.092,9.1185,0.0,0.0,0.0,9.3129,0.0,0.0,9.7047,0.0,0.0,0.0,0.0,0.0,0.0,0.0,0.0,0.0,0.0,9.9214,10.0831,10.103,10.0431,9.9702,10.0838,10.0248,9.9451,9.9515,10.0504,10.147,10.1401,10.278,0.0,0.0,0.0,0.0,0.0,0.0,0.0,0.0,0.0,0.0,0.0,0.0,0.0,0.0,0.0,0.0,0.0,0.0,0.0,0.0,0.0,0.0,10.6712,10.7712,10.8816,11.0127,11.2127,11.4404,11.699,11.7715,11.7715,11.699,11.6197,11.5404,11.4714,11.3921,11.361,11.361,11.361,11.361,11.361,11.361,11.361,11.361,11.361,11.3783,11.399,11.4507,11.5024,11.5611,0.0,0.0,0.0,0.0,0.0,0.0,0.0,0.0,0.0,0.0,0.0,0.0,0.0,0.0,0.0,8.5739,8.722,8.7732,8.6919,8.7653,8.8093,8.8027,8.7978,8.8371,8.9106,8.9142,8.9585,9.0336,9.0371,9.0852,9.1638,0.0,9.2148,9.1407,9.3093,9.3355,9.24,0.0,9.3438,9.5158,0.0,9.8165,9.8976,0.0,0.0,0.0,9.9695,10.0005,0.0,0.0,0.0,0.0,0.0,10.1212,10.1643,10.1643,10.2062,10.2483,0.0,0.0,0.0,10.1371,10.176,10.2658,10.4177,0.0,0.0,0.0,0.0,0.0,0.0,0.0,0.0,0.0,0.0,0.0,0.0,0.0,0.0,0.0,0.0,0.0,0.0,0.0,0.0,0.0,0.0,10.6747,10.6747,10.823,11.0023,11.2334,11.3886,11.5404,11.699,11.7715,11.7715,11.699,11.6197,11.5404,11.461,11.3921,11.361,11.361,11.361,11.361,11.361,11.361,11.361,11.361,11.361,11.4093,11.4714,11.4783,11.5714,11.699,0.0,0.0,0.0,0.0,0.0,9.3602,9.3602,9.3125,0.0,0.0,0.0,0.0,0.0,0.0,0.0,8.8353,8.8185,8.8004,8.7732,8.7968,8.86,8.9818,8.9277,8.932,9.0114,9.0692,9.1125,9.1341,9.2605,9.3571,9.4373,9.383,9.3769,0.0,9.4463,9.4875,9.5234,9.451,0.0,0.0,9.8415,9.9542,0.0,0.0,0.0,0.0,0.0,10.0599,0.0,0.0,10.1422,10.4159,0.0,10.3169,10.2832,10.3437,10.333,10.3017,10.3123,0.0,0.0,0.0,0.0,0.0,0.0,0.0,0.0,0.0,0.0,0.0,0.0,0.0,0.0,0.0,0.0,0.0,0.0,0.0,0.0,0.0,0.0,0.0,0.0,0.0,0.0,0.0,10.6505,10.7023,10.754,10.8506,11.0023,11.2334,11.2817,11.43,11.699,11.7197,11.6887,11.6128,11.5921,11.5128,11.3886,11.3714,11.361,11.361,11.361,11.361,11.361,11.361,11.361,11.3679,11.4197,11.4507,11.4817,11.599,11.6611,11.7094,0.0,0.0,9.3749,9.4226,9.4006,9.3786,9.3786,9.3088,9.2721,0.0,0.0,0.0,0.0,0.0,0.0,0.0,9.0547,9.0547,9.0219,9.0182,9.0481,9.1106,9.0956,9.113,9.1567,9.2368,9.2951,9.3316,9.4292,9.5217,9.6025,9.5449,9.5295,9.5688,9.5699,9.6182,9.6883,0.0,0.0,0.0,9.9596,0.0,0.0,10.2321,10.2301,0.0,0.0,0.0,0.0,10.0918,10.2328,0.0,0.0,0.0,10.443,10.4763,10.4933,10.4773,10.4706,10.451,10.4172,10.387,0.0,0.0,0.0,0.0,0.0,0.0,0.0,0.0,0.0,0.0,0.0,0.0,0.0,0.0,0.0,0.0,0.0,0.0,0.0,0.0,0.0,0.0,0.0,10.7126,10.7816,10.8506,10.9299,10.9713,11.0713,11.2334,11.2714,11.4093,11.6507,11.6507,11.63,11.5818,11.5507,11.4714,11.361,11.361,11.361,11.361,11.361,11.361,11.361,11.361,11.3783,11.4093,11.4507,11.5093,11.5783,11.668,11.7197,11.7508,0.0,0.0,9.4336,9.441,9.3786,9.3235,9.3235,9.2501,9.2024,0.0,0.0,0.0,0.0,0.0,0.0,0.0,9.3455,9.4006,9.3272,9.3235,9.2905,9.2097,9.2831,9.3235,9.3235,9.4006,9.4777,9.5511,0.0,0.0,0.0,0.0,0.0,9.6436,9.6814,9.7283,9.79,9.9777,0.0,10.0319,10.0613,10.142,0.0,0.0,10.3182,0.0,10.3696,10.3696,10.3513,10.2889,0.0,0.0,0.0,0.0,0.0,10.5958,10.6466,10.6901,10.6264,10.6103,10.6061,10.5748,10.4545,0.0,0.0,0.0,0.0,0.0,0.0,0.0,0.0,0.0,0.0,0.0,0.0,0.0,0.0,0.0,0.0,0.0,0.0,0.0,0.0,10.723,10.8023,10.8299,10.9506,11.061,11.1299,11.1299,11.161,11.2403,11.3093,11.4197,11.5818,11.5714,11.5714,11.5818,11.5093,11.43,11.361,11.361,11.361,11.361,11.361,11.361,11.361,11.3714,11.4093,11.4714,11.4817,11.5714,11.699,11.7094,11.7508,11.8094,9.3822,9.4189,9.4483,9.5144,9.4593,9.4079,9.4079,9.3382,9.3308,0.0,0.0,0.0,0.0,0.0,0.0,0.0,9.4116,9.4226,9.4079,9.4079,9.3969,9.3822,9.3969,9.4079,9.4079,9.485,9.5364,9.5511,0.0,0.0,0.0,0.0,0.0,0.0,9.8039,9.8699,9.8943,0.0,0.0,10.0503,10.2412,0.0,0.0,10.3182,10.2999,10.2081,10.2705,10.2485,10.2008,0.0,10.3219,10.4137,0.0,0.0,0.0,0.0,0.0,10.6605,10.6813,10.7071,10.7175,10.6857,0.0,0.0,0.0,0.0,0.0,0.0,0.0,0.0,0.0,0.0,0.0,0.0,0.0,0.0,0.0,0.0,0.0,0.0,0.0,0.0,0.0,10.8437,10.8713,11.0506,11.092,11.1127,11.1299,11.1299,11.161,11.2403,11.261,11.3714,11.5818,11.5197,11.5197,11.5818,11.5093,11.43,11.361,11.361,11.361,11.361,11.361,11.361,11.361,11.4197,11.461,11.4783,11.5404,11.6197,11.7094,11.768,11.799,11.8094,9.4813,9.5217,9.5621,9.6025,9.5107,9.4446,9.485,9.4226,9.4006,0.0,0.0,0.0,0.0,0.0,0.0,0.0,0.0,9.5327,9.4923,9.4887,9.4703,9.4299,9.4666,9.5107,9.5474,9.6282,9.6685,9.6685,9.7493,0.0,0.0,0.0,0.0,0.0,9.8741,9.9769,0.0,0.0,10.2485,10.2191,10.2999,0.0,10.1604,10.2815,10.2815,10.2301,10.3513,10.3403,10.2889,10.41,10.4284,0.0,0.0,10.6009,10.6376,0.0,10.667,10.7025,0.0,10.7498,10.7722,10.7889,0.0,0.0,0.0,0.0,0.0,0.0,0.0,0.0,0.0,0.0,0.0,0.0,0.0,0.0,0.0,0.0,0.0,0.0,0.0,0.0,0.0,11.0804,11.1338,11.2594,11.3116,11.3141,11.2472,11.3395,11.3534,11.2989,11.3881,11.4679,11.5197,11.506,11.5095,11.5231,11.4507,11.399,11.361,11.361,11.361,11.361,11.361,11.361,11.3679,11.4404,11.4921,11.53,11.6094,11.6887,11.7611,11.799,11.8094,11.8094,9.5914,9.6135,9.6465,9.6465,9.5254,9.452,9.518,9.4703,9.4336,0.0,0.0,0.0,0.0,0.0,0.0,0.0,0.0,9.6282,9.5768,9.5731,9.5364,9.4556,9.529,9.5951,9.6465,9.7273,9.7676,9.7676,0.0,0.0,0.0,0.0,0.0,0.0,0.0,0.0,0.0,0.0,0.0,10.3806,0.0,0.0,10.2081,10.2999,10.3219,10.3109,10.4394,10.4614,10.432,10.5678,0.0,10.4798,10.6192,10.6596,0.0,0.0,0.0,0.0,0.0,0.0,0.0,0.0,0.0,10.7,0.0,0.0,0.0,0.0,0.0,0.0,0.0,0.0,0.0,0.0,0.0,0.0,0.0,0.0,0.0,0.0,0.0,0.0,0.0,11.2688,11.3837,11.4466,11.4684,11.4713,11.4252,11.5642,11.5817,11.4176,11.5838,11.6418,11.5284,11.5432,11.5362,11.5007,11.4087,11.361,11.361,11.361,11.361,11.361,11.361,11.3679,11.3886,11.461,11.5404,11.6094,11.6714,11.7473,11.8094,11.8094,11.8094,11.8094,9.6869,9.6061,9.5658,9.5658,9.4887,9.4336,9.441,9.4336,9.4556,0.0,0.0,0.0,0.0,0.0,0.0,0.0,0.0,0.0,9.6539,0.0,9.6208,9.5401,9.6135,9.6282,9.5658,9.6428,9.6832,9.6832,9.6942,9.6869,0.0,9.6906,9.7346,9.808,9.8778,0.0,0.0,0.0,10.3182,0.0,10.3806,10.3696,0.0,10.5385,10.5091,10.3806,10.399,10.4394,10.5018,0.0,10.6119,10.7183,0.0,10.7477,0.0,0.0,0.0,0.0,0.0,0.0,0.0,0.0,10.8101,0.0,0.0,0.0,0.0,0.0,0.0,0.0,0.0,0.0,0.0,0.0,0.0,0.0,0.0,0.0,0.0,0.0,0.0,0.0,0.0,0.0,11.3822,11.5637,11.3859,11.3834,11.6579,11.6716,11.6527,11.6208,11.7514,11.7904,11.7399,11.6052,11.5666,11.6313,11.4575,11.361,11.361,11.361,11.361,11.361,11.361,11.399,11.461,11.5404,11.6128,11.6887,11.699,11.7473,11.8094,11.8094,11.8094,11.8094,9.7419,9.6759,9.6208,9.6208,9.5547,9.5144,9.5621,9.5694,9.5804,0.0,0.0,0.0,0.0,0.0,0.0,0.0,0.0,0.0,0.0,0.0,9.6759,9.6906,9.7676,9.8154,9.83,9.8154,9.808,9.808,9.808,9.7603,9.6722,9.8117,9.8704,9.8668,10.0393,0.0,10.1604,0.0,0.0,0.0,0.0,0.0,0.0,10.5201,10.5495,10.5275,10.4798,10.5422,10.6413,0.0,10.5899,0.0,0.0,0.0,0.0,0.0,0.0,0.0,0.0,0.0,0.0,0.0,0.0,0.0,10.7991,0.0,10.8909,0.0,0.0,0.0,0.0,0.0,0.0,0.0,11.0193,0.0,0.0,0.0,0.0,0.0,0.0,0.0,0.0,0.0,0.0,0.0,0.0,11.6206,11.7797,11.8418,11.8439,11.7668,11.8823,11.9182,11.8874,11.7861,11.7157,11.6492,11.5362,11.4287,11.361,11.361,11.361,11.361,11.361,11.399,11.4783,11.5507,11.63,11.699,11.7508,11.7818,11.8094,11.8094,11.8094,11.8094,9.7787,9.7236,9.6685,9.6685,9.6208,9.6025,9.6612,9.6685,9.6612,0.0,0.0,0.0,9.4923,9.485,0.0,0.0,0.0,9.463,0.0,0.0,9.6649,0.0,0.0,0.0,0.0,9.9181,9.9108,9.9108,9.9108,9.8521,9.7419,9.9145,9.9879,9.9842,0.0,10.2485,10.2889,0.0,0.0,10.421,10.5495,10.5605,10.4908,10.5091,10.5605,10.6302,10.5715,10.6413,10.7367,10.6192,10.6413,0.0,10.7073,0.0,0.0,0.0,0.0,0.0,10.9386,0.0,0.0,0.0,0.0,0.0,0.0,0.0,0.0,0.0,0.0,0.0,0.0,0.0,10.7991,10.9166,0.0,10.8982,0.0,11.0377,0.0,0.0,0.0,0.0,0.0,0.0,0.0,0.0,0.0,11.7724,11.9272,11.9851,11.9851,11.9223,12.0246,12.0391,11.9832,11.9274,11.8371,11.7195,11.6307,11.5315,11.4064,11.4064,11.3934,11.3576,11.4176,11.4722,11.5519,11.6247,11.7044,11.7771,11.7989,11.8094,11.8094,11.8094,11.8094,11.8094,9.7897,9.7236,9.6685,9.6685,9.6685,9.6685,9.6685,9.6685,9.6428,0.0,0.0,0.0,0.0,0.0,0.0,0.0,0.0,9.463,9.5474,0.0,9.5547,0.0,0.0,0.0,0.0,0.0,9.9108,9.9108,9.9108,9.9071,9.9035,9.9108,9.9952,10.1384,10.1494,10.3293,10.6082,10.4577,10.5275,10.7294,10.5789,10.6082,10.7294,0.0,10.5605,10.6376,10.6376,0.0,0.0,10.7477,10.8101,0.0,0.0,0.0,0.0,0.0,0.0,0.0,0.0,0.0,0.0,10.8615,0.0,0.0,0.0,0.0,10.8799,0.0,0.0,0.0,0.0,10.8175,10.7587,10.7661,10.8285,0.0,0.0,0.0,0.0,0.0,0.0,0.0,0.0,0.0,0.0,0.0,0.0,0.0,12.1708,12.0833,12.0497,12.1259,12.1823,12.1385,12.0174,11.9447,11.9049,11.8907,11.7641,11.6533,11.5245,11.5245,11.4727,11.3742,11.5656,11.6913,11.7721,11.8528,11.9265,11.9875,11.8603,11.8094,11.8094,11.8094,11.8094,11.8094,9.8704,9.8484,9.8117,9.7566,9.7493,9.7493,9.7493,9.7493,9.7016,0.0,0.0,0.0,0.0,0.0,9.4483,0.0,0.0,9.463,9.5474,9.6502,0.0,0.0,0.0,9.9916,0.0,0.0,9.9879,9.9879,9.9365,9.9108,9.9145,10.0209,10.098,10.1567,0.0,10.3917,0.0,0.0,0.0,0.0,0.0,10.6009,10.5899,0.0,0.0,10.7807,10.678,10.7881,0.0,10.8101,10.8468,10.9606,10.9606,10.8688,10.8064,11.0487,11.0781,0.0,0.0,0.0,11.1992,11.0707,0.0,0.0,0.0,0.0,0.0,0.0,0.0,0.0,0.0,10.8578,10.8395,10.8395,10.8615,10.8799,0.0,0.0,0.0,0.0,0.0,0.0,0.0,0.0,0.0,0.0,0.0,0.0,0.0,12.1244,12.1046,12.185,12.1488,12.1598,12.2152,12.0936,12.0097,11.9773,11.8769,11.7789,11.665,11.665,11.6451,11.5975,11.7266,11.8212,11.9029,11.981,12.0627,12.1058,11.991,11.9427,11.9331,11.8468,11.8094,11.8094,9.8668,9.8924,9.8961,9.8411,9.8337,9.8227,9.7933,9.764,0.0,0.0,9.5694,0.0,0.0,0.0,9.518,0.0,9.4556,9.507,9.5878,9.6649,0.0,0.0,9.9805,0.0,0.0,0.0,0.0,10.0686,10.0209,10.0209,10.0796,10.1604,10.2191,10.2815,0.0,10.4908,0.0,0.0,10.6192,0.0,0.0,10.5899,0.0,0.0,10.6302,10.7807,0.0,10.8175,10.9679,10.8101,10.8468,10.9606,10.9606,10.8872,10.8395,11.0487,11.1111,11.1295,11.2102,11.291,0.0,11.1919,11.1405,0.0,11.0193,0.0,0.0,0.0,0.0,0.0,0.0,10.9202,10.9202,10.9202,10.9202,10.9202,0.0,10.99,0.0,0.0,0.0,0.0,0.0,0.0,0.0,0.0,0.0,0.0,0.0,0.0,12.1683,12.249,12.2013,12.2086,12.2894,12.1793,12.1061,12.0433,11.9923,11.9012,11.7863,11.7863,11.7856,11.7654,11.8859,11.9909,12.0699,12.1524,12.2134,12.245,12.1216,12.0348,11.984,11.8603,11.8332,11.8668,9.808,9.8704,9.9255,9.9292,9.9218,9.8888,9.808,0.0,9.6539,0.0,9.496,9.452,9.4483,9.5217,9.5364,9.4593,0.0,0.0,9.6759,9.6135,0.0,0.0,9.9181,9.9218,0.0,0.0,0.0,0.0,10.1567,10.2301,10.3806,10.3109,10.3623,10.5128,10.5128,0.0,10.7587,10.7661,10.7294,10.6596,10.4908,10.6082,10.8615,10.6229,10.5789,10.6596,10.7294,10.7587,10.7661,10.7587,10.8101,10.8799,10.8799,10.8799,10.8909,10.8909,10.8909,10.9092,10.99,11.0707,11.1588,11.2286,11.1919,0.0,0.0,0.0,10.9679,0.0,0.0,0.0,0.0,11.0083,11.0193,11.0083,10.9973,10.9973,11.001,11.0707,0.0,0.0,0.0,0.0,0.0,0.0,0.0,0.0,0.0,0.0,0.0,0.0,12.238,12.3298,12.3298,12.3004,12.2196,12.2196,12.1683,12.0912,12.0912,12.0315,11.9117,11.9117,11.8877,11.8746,12.0646,12.1981,12.2778,12.3612,12.3902,12.3829,12.2522,12.118,11.9968,11.8737,11.9067,11.9875,10.0686,10.0686,10.109,10.1714,10.0796,9.9732,0.0,0.0,0.0,0.0,9.7236,9.764,9.7016,9.7676,9.8117,9.7897,9.808,0.0,0.0,0.0,0.0,9.9108,10.0209,10.0907,10.0907,0.0,0.0,10.2412,0.0,10.2595,10.2999,10.4027,10.4724,10.5128,10.5789,10.6596,10.7661,10.8872,10.9973,11.0707,10.9092,10.8909,0.0,0.0,10.8101,10.7183,10.678,10.7477,10.8395,10.7771,10.8101,10.8799,10.8799,10.9202,10.9679,10.9679,11.0487,11.1515,11.1698,11.28,11.3791,11.3387,11.3607,11.3791,0.0,0.0,0.0,0.0,0.0,0.0,0.0,0.0,11.2286,11.1111,10.99,10.9496,11.0707,0.0,0.0,0.0,0.0,0.0,0.0,0.0,0.0,0.0,0.0,0.0,0.0,0.0,0.0,12.3298,12.3885,12.3812,12.3004,12.3004,12.2307,12.0912,12.0912,12.0742,12.0413,12.0413,12.0654,12.1183,12.2326,12.3304,12.4109,12.4877,12.5206,12.5104,12.3793,12.245,12.1337,12.0003,12.0348,12.118,10.1677,10.1494,10.1898,10.2999,0.0,0.0,9.9853,0.0,0.0,9.7978,0.0,0.0,9.8447,9.8851,9.9108,9.9108,9.9108,0.0,0.0,0.0,0.0,10.0099,10.0686,10.098,10.098,10.1274,0.0,10.2191,0.0,0.0,10.3806,10.4724,10.5495,10.6192,10.6302,10.7,10.8175,10.9496,11.0891,11.2212,11.0304,0.0,0.0,10.8799,10.7881,10.7,10.6596,10.7183,10.8175,10.7771,10.8101,10.8799,10.8799,10.9386,10.9973,10.9973,11.0891,11.1992,11.2286,11.3093,11.3791,11.4084,11.4194,11.4305,11.4305,11.3901,11.3387,0.0,11.2983,11.3277,0.0,0.0,11.3277,11.2396,11.1184,11.0707,0.0,0.0,0.0,0.0,0.0,0.0,0.0,0.0,0.0,0.0,0.0,0.0,0.0,0.0,0.0,12.3812,12.3922,12.3922,12.3812,12.3114,12.249,12.1903,12.1609,12.1389,12.1389,12.1095,12.1499,12.26,12.3114,12.3995,12.5096,12.55,12.5684,12.5583,12.4261,12.3684,12.3427,12.2101,12.2137,12.245,10.2375,0.0,10.2412,0.0,0.0,0.0,0.0,9.9452,0.0,9.9456,0.0,9.8631,9.9328,9.9402,9.9475,0.0,0.0,9.9916,0.0,10.0099,0.0,10.1788,10.1017,10.0686,10.0796,10.1384,0.0,0.0,0.0,0.0,10.5128,10.5311,10.6192,10.7587,10.7,10.7697,10.9312,11.001,11.1184,11.2506,11.001,10.9386,10.9679,10.7294,10.6376,10.6376,10.6486,10.7,10.7587,10.7587,10.8101,10.8799,10.8799,10.9386,10.9973,10.9973,11.0597,11.1405,11.2102,11.2286,11.2689,11.4121,11.4011,11.357,11.3681,11.3791,11.357,11.291,11.3387,11.3974,0.0,0.0,11.357,11.357,11.291,0.0,0.0,0.0,0.0,0.0,0.0,0.0,0.0,0.0,11.7718,0.0,0.0,0.0,0.0,0.0,0.0,12.4509,12.3812,12.3812,12.4582,0.0,12.271,12.3298,12.249,12.2086,12.2086,12.1389,12.1903,12.3298,12.3408,12.4289,12.5684,12.5684,12.5684,12.5583,12.451,12.472,12.5583,12.4547,12.3974,12.3938,0.0,0.0,0.0,0.0,0.0,10.2628,0.0,10.1419,10.0383,10.0376,10.0818,0.0,10.1053,10.109,10.131,10.2008,10.2118,0.0,0.0,0.0,0.0,10.3476,10.2705,10.2595,10.3293,10.2779,10.2485,0.0,0.0,0.0,10.5128,10.6486,10.7294,10.7587,10.8101,10.9606,11.1808,11.1882,0.0,11.4121,11.1001,10.99,10.9679,10.7294,10.6376,10.6486,10.7183,10.7477,10.7587,10.7587,10.8101,10.8799,10.8799,10.9386,10.9973,10.9973,11.0597,11.1221,11.1405,11.1919,11.2506,11.2689,11.3203,11.3791,11.4415,11.4598,11.4525,11.4415,11.5516,11.6213,11.4818,0.0,0.0,0.0,0.0,0.0,0.0,0.0,0.0,0.0,0.0,0.0,0.0,0.0,11.6617,11.7498,0.0,0.0,0.0,0.0,0.0,0.0,12.4399,0.0,0.0,0.0,12.3812,12.3298,12.249,12.2086,12.2086,12.1976,12.238,12.3298,12.3995,12.4803,12.5684,12.5684,12.5684,12.5684,12.5483,12.5547,12.572,12.541,12.5345,12.5206,0.0,0.0,0.0,0.0,0.0,0.0,0.0,10.3795,0.0,10.1719,10.1788,10.2116,10.2365,10.288,10.3212,10.3492,10.3492,10.3558,10.388,10.388,10.388,10.388,10.3513,0.0,10.388,0.0,10.3293,10.3293,0.0,0.0,10.5789,10.6596,10.7587,10.8872,11.0083,11.0817,11.1184,11.2506,0.0,11.28,11.0781,10.979,10.9202,10.7587,10.7,10.7073,10.7881,10.8505,10.8799,10.8395,10.8505,10.8799,10.8799,10.9386,11.0083,11.0487,11.0891,11.1405,11.2212,11.2396,11.2616,11.3387,11.3901,11.4415,11.5185,11.5406,11.5516,11.5993,11.6323,11.6213,11.5002,11.4084,0.0,0.0,0.0,0.0,0.0,0.0,0.0,0.0,0.0,0.0,0.0,0.0,11.6801,11.7204,11.8416,11.9297,0.0,0.0,12.1793,0.0,0.0,0.0,0.0,0.0,0.0,12.3298,12.249,12.2086,12.2086,12.2086,12.249,12.3298,12.4179,12.4986,12.5684,12.5684,12.5684,12.5684,12.5684,12.5684,12.5684,12.5684,12.5684,12.5547,0.0,10.5023,0.0,0.0,10.6413,0.0,0.0,10.5802,10.4801,10.3167,10.2793,10.2939,10.3601,10.4191,10.4593,10.4581,10.4618,10.4611,10.4476,10.4513,10.4513,10.4394,10.4284,10.421,10.421,10.4284,10.4284,0.0,0.0,0.0,10.667,10.667,10.7881,11.001,11.1111,11.1295,11.0891,0.0,11.2689,11.1588,11.0597,10.979,10.8982,10.8175,10.7881,10.7991,10.8799,10.9496,10.99,10.9496,10.9312,10.9312,10.9312,10.9716,11.0414,11.1221,11.1295,11.1588,11.3167,11.2983,11.2689,11.4194,11.4488,11.4782,11.5589,11.5699,11.5993,11.6801,11.6617,11.6103,11.5406,11.4708,0.0,0.0,0.0,0.0,0.0,0.0,0.0,0.0,0.0,0.0,0.0,0.0,0.0,11.7718,11.9407,12.0398,12.0398,0.0,0.0,0.0,0.0,12.3995,12.539,0.0,12.3812,12.3812,12.2784,12.238,12.238,12.238,12.271,12.3408,12.4289,12.5096,12.5684,12.5684,12.5684,12.5684,12.5684,12.5684,12.5684,12.5684,12.5684,12.5684,0.0,0.0,0.0,0.0,0.0,0.0,0.0,10.6693,10.5915,10.476,10.4612,10.4609,10.4487,10.4598,10.4893,10.5632,10.5706,10.5921,10.6415,10.6452,10.6443,10.6192,10.5422,10.5018,10.5018,10.5789,10.5789,0.0,0.0,10.7367,10.7477,10.7477,10.8395,10.9973,10.9386,11.0707,0.0,11.2689,11.28,11.3203,11.1698,11.0597,10.979,10.8982,10.8688,10.8799,10.9606,10.99,11.0083,11.0781,11.1001,11.1001,11.1001,11.1001,11.1221,11.2102,11.1808,11.1588,11.3167,11.2983,11.2579,11.3497,11.3681,11.3901,11.4708,11.4892,11.5112,11.592,11.6617,11.7094,11.7021,11.6287,11.5296,0.0,0.0,0.0,0.0,0.0,0.0,11.7094,0.0,0.0,0.0,11.7388,11.6984,11.9187,11.8893,11.8599,0.0,0.0,0.0,12.238,0.0,12.3701,12.4582,12.517,12.55,12.5463,12.3885,12.3188,12.3188,12.3188,12.3224,12.3408,12.4876,12.5573,12.5684,12.5684,12.5684,12.5684,12.5684,12.5684,12.5684,12.5684,12.5684,12.5684,0.0,0.0,0.0,0.0,0.0,0.0,0.0,10.8068,10.7625,10.6581,10.6062,10.5802,10.5689,10.6134,10.6501,10.6719,10.6677,10.6746,10.6673,10.671,10.6627,10.6376,10.6082,10.5899,10.5899,10.6706,10.689,0.0,0.0,0.0,10.979,10.9276,10.9606,11.0707,11.0891,11.1405,11.2212,11.2286,11.2286,11.2102,11.0891,11.0304,10.9973,11.0193,11.0193,11.0414,11.1698,11.1882,11.1478,11.1808,11.1588,11.1221,11.1221,11.1221,11.1515,11.2689,11.2212,11.1698,11.3791,11.3681,11.3277,11.4084,11.4708,11.5112,11.5406,11.5516,11.5699,11.6617,11.7388,11.7792,11.7314,11.6911,11.669,11.6507,0.0,0.0,0.0,0.0,0.0,11.7902,0.0,11.8379,0.0,0.0,11.7792,11.8783,11.8122,0.0,0.0,0.0,0.0,12.1976,0.0,12.4693,12.4509,12.5794,12.5684,12.4215,12.3114,12.282,12.3298,12.3298,12.3812,12.4803,12.539,12.5684,12.5684,12.5684,12.5684,12.5684,12.5684,12.5684,12.5794,12.6197,12.6087,12.5794,10.8469,0.0,10.9285,0.0,11.063,11.0597,11.0003,11.0003,10.9706,10.8814,10.822,10.7699,10.7217,10.7402,10.7586,10.7765,10.7505,10.72,10.6918,10.6874,10.6792,10.6627,10.6627,0.0,10.6875,10.772,10.8187,10.837,10.8872,0.0,11.0817,11.0304,11.0414,11.1221,11.1808,11.1882,11.1588,11.1919,11.1992,11.1808,11.1001,11.1001,11.1405,11.1808,11.2102,11.2396,11.3277,11.3203,11.28,11.28,11.2212,11.1515,11.1295,11.1221,11.1515,11.28,11.2286,11.1698,11.3901,11.3901,11.3387,11.4194,11.5075,11.5589,11.5589,11.581,11.6213,11.7021,11.7718,11.8012,11.7902,11.7718,11.7718,11.8306,0.0,0.0,0.0,11.7608,0.0,11.8306,11.8306,11.8489,11.9407,11.8819,0.0,0.0,0.0,0.0,0.0,0.0,0.0,0.0,0.0,0.0,0.0,12.6308,12.5904,12.3995,12.3004,12.2784,12.3298,12.3518,12.4399,12.5684,12.5684,12.5684,12.5684,12.5684,12.5684,12.5684,12.5684,12.5794,12.6087,12.6711,12.6491,12.6197,10.8703,10.952,11.03,11.1117,11.1935,11.2529,11.2529,11.2529,11.2195,11.1415,11.1229,11.0597,10.9,10.8108,10.7922,10.8814,10.8108,10.7511,10.7279,10.7316,10.72,0.0,0.0,10.7405,10.818,10.8782,10.9508,11.0318,0.0,0.0,10.9973,10.9973,11.0414,11.1221,11.1221,11.1698,11.2286,11.1515,11.2102,11.3497,11.2689,11.3313,11.4708,11.3901,11.4084,11.4708,11.3901,11.357,11.357,11.357,11.3093,11.2212,11.1515,11.1221,11.1405,11.2212,11.1808,11.1588,11.3203,11.2983,11.2579,11.3387,11.4194,11.4818,11.4818,11.5406,11.6213,11.7021,11.7204,11.7718,11.9297,11.8893,11.8416,11.8416,0.0,0.0,0.0,11.5993,0.0,11.8195,11.6287,11.6801,12.1572,0.0,0.0,0.0,0.0,0.0,0.0,0.0,0.0,12.4399,12.6014,0.0,12.6895,12.6895,12.6491,12.5684,12.3995,12.3298,12.3298,12.4105,12.4876,12.5684,12.5684,12.5684,12.5684,12.5684,12.5684,12.5684,12.5684,12.6197,12.6895,12.6895,12.6895,12.7005,11.1303,11.2009,11.2715,11.3012,11.3718,11.3829,11.2715,11.2529,11.2009,11.0709,11.0523,11.0523,11.0523,10.9817,10.9408,0.0,10.9,10.8402,0.0,10.7612,10.7496,10.7774,10.7774,10.818,10.8993,10.9797,11.0313,11.0608,0.0,0.0,0.0,11.1588,11.1808,11.1992,11.1405,11.1625,11.2396,11.2689,11.3093,11.357,11.3901,11.4305,11.4818,11.4488,11.4892,11.5589,11.5296,11.5185,11.5185,11.4598,11.4194,11.3901,11.3093,11.2506,11.2212,11.2983,11.2616,11.2212,11.3277,11.3387,11.3387,11.4194,11.5002,11.5589,11.5589,11.581,11.6213,11.7021,11.7608,11.8195,11.8709,11.948,11.9884,11.9297,11.9187,0.0,11.8489,11.8489,11.8599,11.9187,11.9076,11.959,0.0,11.9517,0.0,0.0,0.0,0.0,0.0,0.0,0.0,0.0,12.55,0.0,12.6087,12.6601,12.6491,12.5684,12.4105,12.3298,12.3298,12.4693,12.5463,12.5684,12.5684,12.5684,12.5684,12.5684,12.5684,12.5684,12.5684,12.6197,12.7005,12.7519,12.7409,12.7115,11.2529,11.2901,11.3309,11.3309,11.3718,11.3829,11.3123,11.3012,11.2603,11.16,11.1489,11.16,11.1712,11.1303,0.0,11.0597,10.9817,10.9293,10.9141,10.858,10.8506,10.8866,10.8903,10.9273,11.0088,11.0598,0.0,11.1338,11.141,11.1852,11.2396,11.2396,11.2632,11.3051,11.2653,11.2926,11.3529,11.3954,11.4378,11.5002,11.5185,11.581,11.658,11.6287,11.669,11.7278,11.669,11.6507,11.6287,11.5516,11.5296,11.5185,11.5002,11.4598,11.4121,11.3681,11.3497,11.3313,11.3497,11.357,11.3681,11.4194,11.5002,11.5589,11.5883,11.5993,11.6103,11.6617,11.7094,11.7608,11.7902,11.9113,11.9884,11.959,11.9884,11.9994,11.959,11.9884,12.0104,12.0104,12.0581,0.0,0.0,12.0398,12.0104,0.0,0.0,0.0,0.0,0.0,0.0,12.3885,12.528,0.0,12.6601,12.6197,12.572,12.5206,12.3922,12.3298,12.3408,12.4986,12.5684,12.5684,12.5684,12.5684,12.5684,12.5684,12.5684,12.5684,12.5977,12.6601,12.7409,12.7886,12.7996,12.7923,11.2529,11.2529,11.2603,0.0,11.2603,0.0,11.3718,11.3792,11.3792,11.3718,11.3718,11.3421,11.2603,11.2603,11.2306,11.1526,0.0,0.0,0.0,11.0114,11.0114,11.0189,11.0189,11.0597,11.1489,11.133,11.1576,11.2465,11.2011,11.2072,11.2632,11.2632,11.3088,11.3964,11.4522,11.4926,11.5216,11.4983,11.5773,11.7131,11.6397,11.7498,11.948,11.8709,11.8893,11.9297,11.7792,11.7204,11.7204,11.6397,11.6177,11.6397,11.7094,11.7314,11.6911,11.4488,11.4305,11.4708,11.3974,11.3681,11.3681,11.3791,11.4305,11.5112,11.581,11.5993,11.5993,11.6103,11.6177,11.6397,11.7204,11.8012,11.8783,11.948,12.0288,12.0581,11.9774,12.0398,12.0985,12.0912,0.0,0.0,0.0,12.1976,12.2196,0.0,0.0,0.0,0.0,0.0,12.3408,12.6601,12.539,12.5684,12.7886,12.5684,12.4509,12.4399,12.3701,12.3298,12.3408,12.4986,12.5684,12.5684,12.5684,12.5684,12.5684,12.5684,12.5684,12.5794,12.6601,12.7409,12.8106,12.8106,12.8583,12.9318,0.0,0.0,11.3495,11.3495,11.4015,11.4312,11.3904,11.3792,11.3606,11.2901,11.2826,11.2715,11.2529,11.3123,11.3421,11.3198,11.1897,11.1006,11.1006,11.0411,11.0411,11.1006,11.1006,11.1712,11.3198,11.3154,11.3778,11.4984,11.49,11.4804,11.4766,11.4766,11.4631,11.4188,11.4447,11.4678,11.5216,11.5752,11.6507,11.7204,11.7718,11.8489,11.948,11.8709,11.8489,11.8599,11.7608,11.7608,11.8012,11.7204,11.7718,11.8673,11.8195,11.8489,11.8709,11.6911,11.5993,11.5699,11.5479,11.5002,11.4708,11.5296,11.5589,11.5773,11.5993,11.5993,11.6287,11.7608,11.7792,11.8085,11.8893,11.97,12.0178,11.97,12.0288,12.0802,12.0581,12.1279,12.1572,12.0985,12.1389,12.1609,12.1205,12.0581,12.0288,0.0,0.0,0.0,0.0,12.1389,12.2086,12.4105,12.561,12.6308,12.6271,12.5096,12.4215,12.3591,12.3408,12.3591,12.4215,12.5206,12.5684,12.5684,12.5684,12.5684,12.5684,12.5684,12.5684,12.5794,12.6601,12.7409,12.8106,12.8106,12.8583,12.9318,11.2529,11.2901,11.3198,11.3198,11.3606,11.3718,11.3309,11.3495,11.3606,11.3198,11.3421,11.3606,11.3606,11.4089,11.4312,11.4312,11.3495,11.3012,11.3012,11.2603,11.2715,11.3495,11.3532,11.4127,11.5427,11.5427,11.5642,11.5873,11.5873,11.5603,11.4976,11.4976,11.4988,11.5,11.5321,11.59,11.6749,11.7184,11.7702,11.8014,11.8269,11.8709,11.9003,11.8599,11.8416,11.8306,11.7902,11.8012,11.8306,11.7902,11.8599,11.948,11.9076,11.948,11.9994,11.9113,11.8306,11.7571,11.7204,11.6801,11.6507,11.6507,11.6287,11.6103,11.6507,11.6507,11.6911,11.8122,11.8416,11.8599,11.948,12.0288,12.0691,12.0288,12.0875,12.1279,12.0985,12.1572,12.2086,12.2013,12.238,12.249,12.2013,12.1205,12.0691,12.0691,12.0398,0.0,12.1389,12.1389,12.2013,12.3298,12.4215,12.4693,12.4582,12.3812,12.3408,12.3298,12.3298,12.3701,12.4509,12.528,12.5684,12.5684,12.5684,12.5684,12.5684,12.5684,12.5684,12.5794,12.7005,12.7702,12.8106,12.8106,12.8804,12.9721,11.2529,11.2603,11.2715,11.2715,11.2826,11.2901,11.2901,11.3495,11.4015,11.4015,11.4609,11.5018,11.5018,11.513,11.5204,11.5204,11.5315,11.5315,11.5204,11.5204,11.5501,11.6207,11.6318,11.6727,11.7433,11.7507,11.7201,11.6513,11.6402,11.5836,11.4878,11.4878,11.5418,11.6143,11.6591,11.7293,11.8133,11.8396,11.8621,11.864,11.8456,11.8436,11.8546,11.8546,11.8509,11.8473,11.8473,11.8583,11.8693,11.8693,11.9207,11.9942,12.0016,12.0471,12.1095,12.1095,12.0581,11.9994,11.9003,11.8709,11.8416,11.7608,11.6911,11.6507,11.7204,11.7498,11.7828,11.8783,11.8893,11.9003,11.9811,12.0581,12.0985,12.0691,12.1572,12.1976,12.0985,12.1572,12.2307,12.2894,12.2894,12.3004,12.3114,12.249,12.2086,12.2086,12.1499,12.1389,12.2086,12.2086,12.249,12.3298,12.2784,12.271,12.3298,12.249,12.249,12.3298,12.3298,12.3812,12.4693,12.539,12.5684,12.5684,12.5684,12.5684,12.5684,12.5684,12.5684,12.5867,12.7482,12.7996,12.7886,12.818,12.9097,13.0088,11.2529,11.3123,11.3606,11.3606,11.4201,11.4609,11.4609,11.4721,11.4795,11.4795,11.4907,11.5018,11.5018,11.5613,11.6021,11.6021,11.6616,11.6727,11.6095,11.6021,11.6095,11.6207,11.6913,11.7321,11.7433,11.8102,11.8733,11.9328,11.8463,11.8092,11.7943,11.7943,11.7721,11.7164,11.7312,11.734,11.7318,11.7306,11.7488,11.7793,11.7719,11.807,11.8695,11.8695,11.8916,11.9097,11.9097,11.9503,12.0093,12.0093,12.0463,12.105,12.1786,12.1911,12.1903,12.1903,12.2307,12.2417,12.0912,11.9994,11.9187,11.8416,11.8122,11.8085,11.8195,11.8709,11.97,12.1205,12.0985,12.0802,12.1572,12.1793,12.1499,11.9994,12.1683,12.26,12.1095,12.1572,12.1903,12.1316,12.1279,12.1499,12.2196,12.2196,12.2086,12.2086,12.1976,12.1976,12.2086,12.2086,12.249,12.3298,12.3812,12.3885,12.3298,12.249,12.249,12.3298,12.3298,12.4105,12.55,12.5573,12.5684,12.5684,12.5684,12.5684,12.5684,12.5684,12.5684,12.5867,12.7482,12.7702,12.7299,12.862,12.9318,12.9501,11.5092,11.513,11.5204,11.5724,11.5724,11.5613,11.5613,11.5613,11.5613,11.5613,11.6021,11.6318,11.6318,11.6616,11.6839,11.6839,11.721,11.7433,11.7507,11.7099,11.7024,11.7507,11.7804,11.8325,11.8696,11.9105,11.929,11.9216,11.8807,11.8399,11.8027,11.8027,11.7804,11.7433,11.7433,11.7275,11.7302,11.7626,11.7639,11.7377,11.7621,11.7679,11.7679,11.8195,11.8396,11.8596,11.9482,12.0073,12.0479,12.1403,12.1865,12.2178,12.2989,12.3059,12.2978,12.2978,12.2477,12.1903,12.1609,12.0581,11.948,11.9113,11.8709,11.8489,11.8893,11.9297,12.0104,12.1793,12.1793,12.1793,12.26,12.3077,12.3004,12.1793,12.26,12.2894,12.1683,12.1499,12.1499,12.1499,12.1499,12.1683,12.2086,12.2086,12.1903,12.1499,12.1866,12.2086,12.2086,12.2086,12.227,12.26,12.3004,12.3004,12.2674,12.2307,12.249,12.3298,12.3701,12.4582,12.5684,12.5684,12.5684,12.5684,12.5684,12.5684,12.5684,12.5684,12.5684,12.5867,12.7482,12.7592,12.7115,12.8694,12.9318,12.9318,11.7277,11.7016,11.6824,11.7061,11.6801,11.6504,11.6504,11.6504,11.6504,11.6504,11.7024,11.7433,11.7433,11.7433,11.7433,11.7433,11.7433,11.773,11.8325,11.773,11.7804,11.8622,11.8622,11.8993,11.9885,11.9699,11.929,11.8622,11.8436,11.8027,11.7433,11.7433,11.7433,11.7433,11.7433,11.7433,11.7433,11.7933,11.7651,11.7133,11.7515,11.7502,11.7095,11.7798,11.8278,11.881,12.0289,12.0992,12.1288,12.2805,12.3157,12.3305,12.4118,12.419,12.4001,12.4001,12.2838,12.1544,12.194,12.1279,12.0398,11.9994,11.9407,11.9113,11.9774,11.9994,12.0508,12.1793,12.2086,12.2307,12.2894,12.3701,12.3995,12.3188,12.3518,12.3408,12.227,12.1683,12.1499,12.1793,12.1793,12.1903,12.2086,12.227,12.2086,12.1499,12.2013,12.238,12.238,12.2196,12.2086,12.2086,12.1903,12.1903,12.2086,12.2086,12.249,12.3298,12.4105,12.4876,12.5684,12.5684,12.5684,12.5684,12.5684,12.5684,12.5684,12.5684,12.5684,12.5794,12.7299,12.7409,12.7115,12.8694,12.9318,12.9318,11.7637,11.7942,11.7905,11.6519,11.6913,11.7321,11.7321,11.7321,11.7321,11.7321,11.7396,11.7433,11.7433,11.7433,11.7433,11.7433,11.7433,11.7433,11.7507,11.7433,11.7804,11.8622,11.8622,11.8993,11.9885,11.9105,11.8696,11.8622,11.7916,11.7507,11.7433,11.7433,11.7433,11.7433,11.7433,11.7433,11.7433,11.7433,11.7302,11.7095,11.7133,11.7614,11.8244,11.8244,11.9368,12.1037,12.1854,12.2634,12.3451,12.4343,12.4499,12.443,12.5208,12.532,12.5133,12.5133,12.3951,12.2584,12.2146,12.26,12.271,12.1205,12.0802,12.0691,12.0802,12.1389,12.1976,12.2086,12.2086,12.2086,12.2196,12.282,12.3114,12.2307,12.4068,12.4693,12.238,12.271,12.26,12.1205,12.0985,12.1279,12.1976,12.2784,12.3188,12.3114,12.3188,12.3188,12.3188,12.249,12.2086,12.2086,12.1389,12.1316,12.2086,12.2086,12.249,12.3298,12.4105,12.4876,12.5684,12.5684,12.5684,12.5684,12.5684,12.5684,12.5684,12.5684,12.5684,12.5794,12.6675,12.7005,12.7115,12.8694,12.9318,12.9428,12.0231,12.0012,11.9727,11.9215,11.9023,11.8753,11.8222,11.773,11.7433,11.7433,11.7433,11.7433,11.7433,11.7433,11.7433,11.7433,11.7433,11.7433,11.7433,11.7433,11.7507,11.7804,11.7916,11.8027,11.8325,11.8027,11.7916,11.7916,11.7507,11.7433,11.7433,11.7433,11.7433,11.7433,11.7433,11.7433,11.7433,11.7433,11.7572,11.797,11.797,11.8452,11.9428,12.0431,12.1173,12.2002,12.3377,12.4009,12.438,12.5272,12.5442,12.5554,12.6333,12.6411,12.606,12.5449,12.5096,12.4727,12.3026,12.2322,12.1801,12.1059,12.0912,12.0912,12.0912,12.1095,12.1499,12.1976,12.249,12.282,12.282,12.3885,12.4509,12.3701,12.3885,12.3885,12.3004,12.2196,12.1609,12.0985,12.0912,12.1205,12.1976,12.1903,12.2013,12.249,12.26,12.26,12.26,12.227,12.1866,12.1389,12.1499,12.1793,12.2086,12.26,12.3188,12.4105,12.4876,12.539,12.5684,12.5684,12.5684,12.5684,12.5684,12.5684,12.5684,12.5684,12.5684,12.5794,12.6601,12.6895,12.7115,12.8694,12.9318,12.9428,12.1875,12.1495,12.0859,12.0519,11.9818,11.918,11.8594,11.7896,11.7433,11.7433,11.7433,11.7433,11.7433,11.7433,11.7433,11.7433,11.7433,11.7433,11.7433,11.7433,11.7433,11.7433,11.7433,11.7433,11.7433,11.7433,11.7433,11.7433,11.7433,11.7433,11.7433,11.7433,11.7433,11.7433,11.7433,11.7507,11.7804,11.8102,11.8622,11.9402,11.9699,12.0294,12.1185,12.23,12.2783,12.3303,12.4677,12.5197,12.5272,12.6089,12.6386,12.6498,12.6981,12.7113,12.6708,12.5375,12.5524,12.5468,12.3545,12.2215,12.1441,12.1066,12.0971,12.1007,12.0875,12.0912,12.1095,12.1609,12.2196,12.2527,12.2527,12.3885,12.4803,12.4215,12.3885,12.3591,12.3298,12.2086,12.1205,12.0912,12.0912,12.1095,12.1683,12.1499,12.1499,12.2086,12.2086,12.1976,12.1683,12.1683,12.1572,12.1279,12.1793,12.2307,12.2784,12.3408,12.3995,12.4509,12.528,12.5684,12.5684,12.5684,12.5684,12.5684,12.5684,12.5684,12.5684,12.5684,12.5684,12.5794,12.6601,12.7078,12.7409,12.8804,12.9501,12.9795,12.2074,12.1771,12.1294,11.9786,11.8973,11.8505,11.8505,11.7927,11.7433,11.7433,11.7433,11.7433,11.7433,11.7433,11.7433,11.7433,11.7433,11.7433,11.7433,11.7433,11.7433,11.7433,11.7433,11.7433,11.7433,11.7433,11.7433,11.7433,11.7433,11.7433,11.7433,11.7433,11.7433,11.7433,11.7433,11.7916,11.8733,11.9513,12.0368,12.1185,12.2002,12.2783,12.3488,12.3488,12.4083,12.49,12.568,12.5978,12.6089,12.6906,12.7204,12.7204,12.7204,12.7204,12.6869,12.5272,12.4789,12.464,12.352,12.2578,12.1896,12.1274,12.1181,12.116,12.1007,12.0912,12.0912,12.0912,12.0912,12.0912,12.0912,12.2196,12.3298,12.3298,12.3995,12.4215,12.3408,12.26,12.1793,12.0985,12.0912,12.0912,12.0912,12.1609,12.2086,12.2086,12.2086,12.1683,12.0912,12.0912,12.1279,12.2086,12.2086,12.2894,12.4509,12.4509,12.4509,12.4509,12.528,12.5684,12.5684,12.5684,12.5684,12.5684,12.5684,12.5684,12.5684,12.5684,12.5684,12.5794,12.6601,12.7409,12.818,12.9024,12.9795,13.0492,12.1716,12.1666,12.1399,12.0378,11.9596,11.9036,11.8579,11.7927,11.7433,11.7433,11.7433,11.7433,11.7433,11.7433,11.7433,11.7433,11.7433,11.7433,11.7433,11.7433,11.7433,11.7433,11.7433,11.7433,11.7433,11.7433,11.7433,11.7433,11.7433,11.7433,11.7433,11.8027,11.8213,11.8325,11.8882,11.9588,12.0405,12.0591,12.1482,12.2783,12.3005,12.3674,12.4492,12.4974,12.5383,12.568,12.6572,12.6795,12.6869,12.7092,12.7204,12.7204,12.7204,12.6386,12.5383,12.49,12.4789,12.4492,12.2992,12.2807,12.283,12.1698,12.1533,12.1533,12.1441,12.1696,12.2007,12.2007,12.2411,12.2816,12.2816,12.3221,12.3515,12.3515,12.3065,12.271,12.249,12.1793,12.1205,12.0912,12.0912,12.1095,12.1683,12.1389,12.1499,12.2086,12.1572,12.1205,12.0912,12.1389,12.1866,12.2086,12.3188,12.3995,12.4509,12.4509,12.4803,12.528,12.5573,12.5684,12.5684,12.5684,12.5684,12.5684,12.5684,12.5684,12.5684,12.5684,12.5684,12.5794,12.6601,12.7409,12.818,12.9024,12.9795,13.0492,12.16,12.16,12.1506,12.1016,12.0436,11.9736,11.9005,11.828,11.773,11.7359,11.7433,11.7433,11.7433,11.7433,11.7433,11.7433,11.7433,11.7433,11.7433,11.7433,11.7433,11.7433,11.7433,11.7433,11.7433,11.7433,11.7433,11.7433,11.773,11.7916,11.7916,11.8696,11.929,11.9588,12.0108,12.0999,12.2077,12.2374,12.3303,12.4492,12.4789,12.5272,12.5792,12.6275,12.6498,12.6498,12.6981,12.7204,12.7204,12.7204,12.7204,12.7092,12.6795,12.6089,12.5272,12.5272,12.4974,12.4603,12.3971,12.3897,12.3772,12.3097,12.2472,12.2159,12.2068,12.264,12.2859,12.2564,12.2932,12.3059,12.2785,12.2911,12.3037,12.3132,12.2536,12.2086,12.2086,12.1389,12.0912,12.0912,12.0912,12.1095,12.1572,12.1205,12.1095,12.1572,12.1205,12.0985,12.1389,12.1793,12.238,12.3004,12.3995,12.4693,12.4986,12.4986,12.5206,12.5684,12.5684,12.5684,12.5684,12.5684,12.5684,12.5684,12.5684,12.5684,12.5684,12.5684,12.5904,12.6271,12.7078,12.7886,12.8694,12.9501,13.0088,13.0492,12.16,12.16,12.16,12.16,12.1003,12.0302,11.9698,11.8973,11.8279,11.7643,11.7359,11.7433,11.7433,11.7433,11.7433,11.7433,11.7433,11.7433,11.7433,11.7433,11.7433,11.7507,11.7507,11.7507,11.7619,11.7507,11.7507,11.7507,11.8325,11.8733,11.8733,11.9699,12.0479,12.1185,12.1371,12.23,12.3786,12.4566,12.5383,12.62,12.6906,12.7204,12.7204,12.7204,12.7204,12.7204,12.7204,12.7204,12.7204,12.7204,12.7204,12.6981,12.6275,12.5978,12.5903,12.5978,12.5383,12.4789,12.5569,12.5197,12.4566,12.4566,12.3869,12.3208,12.2861,12.3527,12.3767,12.2954,12.2547,12.2326,12.1809,12.188,12.2206,12.2285,12.2169,12.194,12.194,12.1389,12.0912,12.0912,12.0912,12.0912,12.0912,12.0985,12.0985,12.0985,12.1095,12.1389,12.2196,12.227,12.3004,12.4472,12.4582,12.4986,12.5684,12.5684,12.5684,12.5684,12.5684,12.5684,12.5684,12.5684,12.5684,12.5684,12.5684,12.5684,12.5684,12.5684,12.6197,12.7005,12.7813,12.8583,12.9428,13.0199,13.0492,13.0492,12.16,12.16,12.16,12.16,12.1003,12.0493,12.0302,11.9279,11.8393,11.8318,11.7805,11.7433,11.7433,11.7433,11.7433,11.7433,11.7433,11.7433,11.7433,11.7433,11.773,11.8325,11.8325,11.8696,11.929,11.8696,11.8325,11.8325,11.9216,11.9588,11.9588,12.1074,12.1891,12.2077,12.3377,12.4492,12.5495,12.568,12.62,12.6981,12.7092,12.7204,12.7204,12.7204,12.7204,12.7204,12.7204,12.7204,12.7204,12.7204,12.6795,12.6275,12.6795,12.6089,12.5197,12.5792,12.49,12.3786,12.4009,12.3488,12.2783,12.2783,12.3117,12.3401,12.3438,12.3816,12.408,12.3266,12.3117,12.3043,12.2895,12.2361,12.2028,12.2065,12.1662,12.1381,12.1381,12.1081,12.0912,12.0912,12.0912,12.0912,12.0912,12.1499,12.1793,12.1793,12.2417,12.2894,12.3004,12.3591,12.4105,12.4509,12.5096,12.55,12.5684,12.5684,12.5684,12.5684,12.5684,12.5684,12.5684,12.5684,12.5684,12.5684,12.5684,12.5684,12.5684,12.5684,12.6197,12.7005,12.7813,12.8583,12.9428,13.0199,13.0492,13.0492,12.2908,12.2793,12.2793,12.2793,12.2166,12.1487,12.1216,12.0213,11.927,11.8967,11.8393,11.7853,11.7853,11.7606,11.7433,11.7433,11.7804,11.8027,11.8027,11.8399,11.8807,11.9216,11.9216,11.9402,11.9885,11.9811,11.9588,11.9216,12.0071,12.0479,12.0479,12.1705,12.2485,12.2894,12.3786,12.4603,12.5383,12.5383,12.568,12.6089,12.6089,12.6089,12.6089,12.6089,12.6089,12.6089,12.6089,12.6089,12.6089,12.6089,12.5792,12.5495,12.5903,12.5197,12.4306,12.5197,12.4492,12.36,12.4009,12.3786,12.3488,12.3488,12.3786,12.4009,12.36,12.4106,12.4388,12.3498,12.3297,12.306,12.283,12.2208,12.1933,12.2022,12.1716,12.1404,12.1404,12.1218,12.1029,12.1029,12.1301,12.1609,12.2013,12.2417,12.271,12.271,12.3114,12.3518,12.3885,12.4289,12.4693,12.5096,12.55,12.5684,12.5684,12.5684,12.5684,12.5684,12.5684,12.5684,12.5684,12.5684,12.5684,12.5684,12.5684,12.5684,12.5684,12.5684,12.6381,12.7482,12.7886,12.8804,12.9905,13.0309,13.0492,13.0492,12.4716,12.4486,12.4486,12.4486,12.3909,12.311,12.2299,12.1369,12.0493,11.9799,11.9074,11.869,11.8693,11.8183,11.7804,11.7804,11.8399,11.8807,11.8807,11.9476,11.9996,12.0071,12.0071,12.0182,12.0294,12.0962,12.0888,12.0071,12.0888,12.1297,12.1297,12.2077,12.2894,12.3488,12.3674,12.4083,12.4789,12.4789,12.4789,12.4789,12.4789,12.4789,12.4789,12.4789,12.4789,12.4789,12.4789,12.4789,12.4789,12.4789,12.4789,12.4789,12.4789,12.4306,12.3897,12.4566,12.4194,12.3674,12.438,12.4492,12.438,12.438,12.438,12.4194,12.3488,12.3971,12.4306,12.3488,12.3164,12.2852,12.2411,12.1948,12.1806,12.1948,12.1769,12.1716,12.1716,12.1551,12.1532,12.1402,12.1948,12.26,12.3224,12.3408,12.3518,12.3518,12.3591,12.3995,12.4693,12.4693,12.4986,12.5684,12.5684,12.5684,12.5684,12.5684,12.5684,12.5684,12.5684,12.5684,12.5684,12.5684,12.5684,12.5684,12.5684,12.5684,12.5684,12.5794,12.6785,12.8106,12.829,12.9207,13.0492,13.0492,13.0492,13.0492,12.6409,12.6294,12.6294,12.6294,12.5601,12.4832,12.3889,12.2598,12.1313,12.0474,11.9823,11.9369,11.9518,11.9564,11.9588,11.9588,11.9699,11.9699,11.9699,11.9773,12.0182,12.0888,12.0888,12.1297,12.2002,12.2077,12.1705,12.0888,12.1705,12.2077,12.2188,12.2968,12.3377,12.3488,12.4269,12.4677,12.4789,12.4789,12.4789,12.4789,12.4789,12.4789,12.4789,12.4789,12.4789,12.4789,12.4789,12.4789,12.4789,12.4789,12.4789,12.4789,12.4789,12.4677,12.4603,12.4789,12.4194,12.3488,12.36,12.3191,12.2597,12.2597,12.2597,12.2597,12.2485,12.308,12.3377,12.2597,12.2411,12.2411,12.23,12.2176,12.2176,12.2337,12.2074,12.1859,12.1859,12.2307,12.2529,12.2285,12.2831,12.3188,12.3298,12.3922,12.4289,12.4289,12.4986,12.539,12.55,12.55,12.5573,12.5684,12.5684,12.5684,12.5684,12.5684,12.5684,12.5684,12.5684,12.5684,12.5684,12.5684,12.5684,12.5684,12.5684,12.5684,12.5794,12.6491,12.7299,12.818,12.8914,12.9721,13.0492,13.0492,13.0492,13.0492,12.8179,12.8102,12.8102,12.8102,12.7409,12.6486,12.5678,12.4597,12.3484,12.2601,12.1924,12.1468,12.1569,12.1339,12.1059,12.1059,12.1472,12.1773,12.1773,12.2186,12.2371,12.2383,12.2383,12.2362,12.2262,12.23,12.2077,12.178,12.2077,12.23,12.23,12.2671,12.2783,12.2783,12.3191,12.3377,12.3377,12.3377,12.3377,12.3377,12.3377,12.3377,12.3377,12.3377,12.3377,12.3377,12.3377,12.3377,12.3377,12.3377,12.3377,12.3377,12.3377,12.3377,12.3377,12.3377,12.308,12.2783,12.2783,12.2597,12.23,12.23,12.23,12.23,12.23,12.2597,12.2708,12.2374,12.23,12.23,12.23,12.23,12.23,12.23,12.2584,12.2793,12.2793,12.3319,12.3711,12.3758,12.3993,12.4338,12.4582,12.4986,12.517,12.517,12.55,12.5684,12.5684,12.5684,12.5684,12.5684,12.5684,12.5684,12.5684,12.5684,12.5684,12.5684,12.5684,12.5684,12.5684,12.5684,12.5684,12.5684,12.5684,12.5977,12.6381,12.6785,12.7592,12.8804,12.9207,12.9795,13.0492,13.0492,13.0492,13.0492]},{"header":{"parameterUnit":"m.s-1","parameterCategory":1,"la1":30.6,"la2":28.766,"lo1":-90.7593,"lo2":-88.6598,"dx":0.0162,"dy":0.0183,"nx":116,"ny":114,"refTime":"2022-12-20T06:00:00:Z","depth":0,"parameterNumber":3,"parameterNumberName":"V-component_of_WINDS"},"data":[0.0,0.0,0.0,0.0,0.0,0.0,0.0,0.0,0.0,0.0,0.0,0.0,0.0,0.0,0.0,0.0,0.0,0.0,0.0,0.0,0.0,0.0,0.0,0.0,0.0,0.0,0.0,0.0,0.0,0.0,0.0,0.0,0.0,0.0,0.0,0.0,0.0,0.0,0.0,0.0,0.0,0.0,0.0,0.0,0.0,0.0,0.0,0.0,0.0,0.0,0.0,0.0,0.0,0.0,0.0,0.0,0.0,0.0,0.0,0.0,0.0,0.0,0.0,0.0,0.0,0.0,0.0,0.0,0.0,0.0,0.0,0.0,0.0,0.0,0.0,0.0,0.0,0.0,0.0,0.0,0.0,0.0,0.0,0.0,0.0,0.0,0.0,0.0,0.0,0.0,0.0,0.0,0.0,0.0,0.0,0.0,0.0,0.0,0.0,0.0,0.0,0.0,0.0,0.0,0.0,0.0,0.0,0.0,0.0,0.0,0.0,0.0,0.0,0.0,0.0,0.0,0.0,0.0,0.0,0.0,0.0,0.0,0.0,0.0,0.0,0.0,0.0,0.0,0.0,0.0,0.0,0.0,0.0,0.0,0.0,0.0,0.0,0.0,0.0,0.0,0.0,0.0,0.0,0.0,0.0,0.0,0.0,0.0,0.0,0.0,0.0,0.0,0.0,0.0,0.0,0.0,0.0,0.0,0.0,0.0,0.0,0.0,0.0,0.0,0.0,0.0,0.0,0.0,0.0,0.0,0.0,0.0,0.0,0.0,0.0,0.0,0.0,0.0,0.0,0.0,0.0,0.0,0.0,0.0,0.0,0.0,0.0,0.0,0.0,0.0,0.0,0.0,0.0,0.0,0.0,0.0,0.0,0.0,0.0,0.0,0.0,0.0,0.0,0.0,0.0,0.0,0.0,0.0,0.0,0.0,0.0,0.0,0.0,0.0,0.0,0.0,0.0,0.0,0.0,0.0,0.0,0.0,0.0,0.0,0.0,0.0,0.0,0.0,0.0,0.0,0.0,0.0,0.0,0.0,0.0,0.0,0.0,0.0,0.0,0.0,0.0,0.0,0.0,0.0,0.0,0.0,0.0,0.0,0.0,0.0,0.0,0.0,0.0,0.0,0.0,0.0,0.0,0.0,0.0,0.0,0.0,0.0,0.0,0.0,0.0,0.0,0.0,0.0,0.0,0.0,0.0,0.0,0.0,0.0,0.0,0.0,0.0,0.0,0.0,0.0,0.0,0.0,0.0,0.0,0.0,0.0,0.0,0.0,0.0,0.0,0.0,0.0,0.0,0.0,0.0,0.0,0.0,0.0,0.0,0.0,0.0,0.0,0.0,0.0,0.0,0.0,0.0,0.0,0.0,0.0,0.0,0.0,0.0,0.0,0.0,0.0,0.0,0.0,0.0,0.0,0.0,0.0,0.0,0.0,0.0,0.0,0.0,0.0,0.0,0.0,0.0,0.0,0.0,0.0,0.0,0.0,0.0,0.0,0.0,0.0,0.0,0.0,0.0,0.0,0.0,0.0,0.0,0.0,0.0,0.0,0.0,0.0,0.0,0.0,0.0,0.0,0.0,0.0,0.0,0.0,0.0,0.0,0.0,0.0,0.0,0.0,0.0,0.0,0.0,0.0,0.0,0.0,0.0,0.0,0.0,0.0,0.0,0.0,0.0,0.0,0.0,0.0,0.0,0.0,0.0,0.0,0.0,0.0,0.0,0.0,0.0,0.0,0.0,0.0,0.0,0.0,0.0,0.0,0.0,0.0,0.0,0.0,0.0,0.0,0.0,0.0,0.0,0.0,0.0,0.0,0.0,0.0,0.0,0.0,0.0,0.0,0.0,0.0,0.0,0.0,0.0,0.0,0.0,0.0,0.0,0.0,0.0,0.0,0.0,0.0,0.0,0.0,0.0,0.0,0.0,0.0,0.0,0.0,0.0,0.0,0.0,0.0,0.0,0.0,0.0,0.0,0.0,0.0,0.0,0.0,0.0,0.0,0.0,0.0,0.0,0.0,0.0,0.0,0.0,0.0,0.0,0.0,0.0,0.0,0.0,0.0,0.0,0.0,0.0,0.0,0.0,0.0,0.0,0.0,0.0,0.0,0.0,0.0,0.0,0.0,0.0,0.0,0.0,0.0,0.0,0.0,0.0,0.0,0.0,0.0,0.0,0.0,0.0,0.0,0.0,0.0,0.0,0.0,0.0,0.0,0.0,0.0,0.0,0.0,0.0,0.0,0.0,0.0,0.0,0.0,0.0,0.0,0.0,0.0,0.0,0.0,0.0,0.0,0.0,0.0,0.0,0.0,0.0,0.0,0.0,0.0,0.0,0.0,0.0,0.0,0.0,0.0,0.0,0.0,0.0,0.0,0.0,0.0,0.0,0.0,0.0,0.0,0.0,0.0,0.0,0.0,0.0,0.0,0.0,0.0,0.0,0.0,0.0,0.0,0.0,0.0,0.0,0.0,0.0,0.0,0.0,0.0,0.0,0.0,0.0,0.0,0.0,0.0,0.0,0.0,0.0,0.0,0.0,0.0,0.0,0.0,0.0,0.0,0.0,0.0,0.0,0.0,0.0,0.0,0.0,0.0,0.0,0.0,0.0,0.0,0.0,0.0,0.0,0.0,0.0,0.0,0.0,0.0,0.0,0.0,0.0,0.0,0.0,0.0,0.0,0.0,0.0,0.0,0.0,0.0,0.0,0.0,0.0,0.0,0.0,0.0,0.0,0.0,0.0,0.0,0.0,0.0,0.0,0.0,0.0,0.0,0.0,0.0,0.0,0.0,0.0,0.0,0.0,0.0,0.0,0.0,0.0,0.0,0.0,0.0,0.0,0.0,0.0,0.0,0.0,0.0,0.0,0.0,0.0,0.0,0.0,0.0,0.0,0.0,0.0,0.0,0.0,0.0,0.0,0.0,0.0,0.0,0.0,0.0,0.0,0.0,0.0,0.0,0.0,0.0,0.0,0.0,0.0,0.0,0.0,0.0,0.0,0.0,0.0,0.0,0.0,0.0,0.0,0.0,0.0,0.0,0.0,0.0,0.0,0.0,0.0,0.0,0.0,0.0,0.0,0.0,0.0,0.0,0.0,0.0,0.0,0.0,0.0,0.0,0.0,0.0,0.0,0.0,0.0,0.0,0.0,0.0,0.0,0.0,0.0,0.0,0.0,0.0,0.0,0.0,0.0,0.0,0.0,0.0,0.0,0.0,0.0,0.0,0.0,0.0,0.0,0.0,0.0,0.0,0.0,0.0,0.0,0.0,0.0,0.0,0.0,0.0,0.0,0.0,0.0,0.0,0.0,0.0,0.0,0.0,0.0,0.0,0.0,0.0,0.0,0.0,0.0,0.0,0.0,0.0,0.0,0.0,0.0,0.0,0.0,0.0,0.0,0.0,0.0,0.0,0.0,0.0,0.0,0.0,0.0,0.0,0.0,0.0,0.0,0.0,0.0,0.0,0.0,0.0,0.0,0.0,0.0,0.0,0.0,0.0,0.0,0.0,0.0,0.0,0.0,0.0,0.0,0.0,0.0,0.0,0.0,0.0,0.0,0.0,0.0,0.0,0.0,0.0,0.0,0.0,0.0,0.0,0.0,0.0,0.0,0.0,0.0,0.0,0.0,0.0,0.0,0.0,0.0,0.0,0.0,0.0,0.0,0.0,0.0,0.0,0.0,0.0,0.0,0.0,0.0,0.0,0.0,0.0,0.0,0.0,0.0,0.0,0.0,0.0,0.0,0.0,0.0,0.0,0.0,0.0,0.0,0.0,0.0,0.0,0.0,0.0,0.0,0.0,0.0,0.0,0.0,0.0,0.0,0.0,0.0,0.0,0.0,0.0,0.0,0.0,0.0,0.0,0.0,0.0,0.0,0.0,0.0,0.0,0.0,0.0,0.0,0.0,0.0,0.0,0.0,0.0,0.0,0.0,0.0,0.0,0.0,0.0,0.0,0.0,0.0,0.0,0.0,0.0,0.0,0.0,0.0,0.0,0.0,0.0,0.0,0.0,0.0,0.0,0.0,0.0,0.0,0.0,0.0,0.0,0.0,0.0,0.0,0.0,0.0,0.0,0.0,0.0,0.0,0.0,0.0,0.0,0.0,0.0,0.0,0.0,0.0,0.0,0.0,0.0,0.0,0.0,0.0,0.0,0.0,0.0,0.0,0.0,0.0,0.0,0.0,0.0,0.0,0.0,0.0,0.0,0.0,0.0,0.0,0.0,0.0,0.0,0.0,0.0,0.0,0.0,0.0,0.0,0.0,0.0,0.0,0.0,0.0,0.0,0.0,0.0,0.0,0.0,0.0,0.0,0.0,0.0,0.0,0.0,0.0,0.0,0.0,0.0,0.0,0.0,0.0,0.0,0.0,0.0,0.0,0.0,0.0,0.0,0.0,0.0,0.0,0.0,0.0,0.0,0.0,0.0,0.0,0.0,0.0,0.0,0.0,0.0,0.0,0.0,0.0,0.0,0.0,0.0,0.0,0.0,0.0,0.0,0.0,0.0,0.0,0.0,0.0,0.0,0.0,0.0,0.0,0.0,0.0,0.0,0.0,0.0,0.0,0.0,0.0,0.0,0.0,0.0,0.0,0.0,0.0,0.0,0.0,0.0,0.0,0.0,0.0,0.0,0.0,0.0,0.0,0.0,0.0,0.0,0.0,0.0,0.0,0.0,0.0,0.0,0.0,0.0,0.0,0.0,0.0,0.0,0.0,0.0,0.0,0.0,0.0,0.0,0.0,0.0,0.0,0.0,0.0,0.0,0.0,0.0,0.0,0.0,0.0,0.0,0.0,0.0,0.0,0.0,0.0,0.0,0.0,0.0,0.0,0.0,0.0,0.0,0.0,0.0,0.0,0.0,0.0,0.0,0.0,0.0,0.0,0.0,0.0,0.0,0.0,0.0,0.0,0.0,0.0,0.0,0.0,0.0,0.0,0.0,0.0,0.0,0.0,0.0,0.0,0.0,0.0,0.0,0.0,0.0,0.0,0.0,0.0,0.0,0.0,0.0,0.0,0.0,0.0,0.0,0.0,0.0,0.0,0.0,0.0,0.0,0.0,0.0,0.0,0.0,0.0,0.0,0.0,0.0,0.0,0.0,0.0,0.0,0.0,0.0,0.0,0.0,0.0,0.0,0.0,0.0,0.0,0.0,0.0,0.0,0.0,0.0,0.0,0.0,0.0,0.0,0.0,0.0,0.0,0.0,0.0,0.0,0.0,0.0,0.0,0.0,0.0,0.0,0.0,0.0,0.0,0.0,0.0,0.0,0.0,0.0,0.0,0.0,0.0,0.0,0.0,0.0,0.0,0.0,0.0,0.0,0.0,0.0,0.0,0.0,0.0,0.0,0.0,0.0,0.0,0.0,0.0,0.0,0.0,0.0,0.0,0.0,0.0,0.0,0.0,0.0,0.0,0.0,0.0,0.0,0.0,0.0,0.0,0.0,0.0,0.0,0.0,0.0,0.0,0.0,0.0,0.0,0.0,0.0,0.0,0.0,0.0,0.0,0.0,0.0,0.0,0.0,0.0,0.0,0.0,0.0,0.0,0.0,0.0,0.0,0.0,0.0,0.0,0.0,0.0,0.0,0.0,0.0,0.0,0.0,0.0,0.0,0.0,0.0,0.0,0.0,0.0,0.0,0.0,0.0,0.0,0.0,0.0,0.0,0.0,0.0,0.0,0.0,0.0,0.0,0.0,0.0,0.0,0.0,0.0,0.0,0.0,0.0,0.0,0.0,0.0,0.0,0.0,0.0,0.0,0.0,0.0,0.0,0.0,0.0,0.0,0.0,0.0,0.0,0.0,0.0,0.0,0.0,0.0,0.0,0.0,0.0,0.0,0.0,0.0,0.0,0.0,0.0,0.0,0.0,0.0,0.0,0.0,0.0,0.0,0.0,0.0,0.0,0.0,0.0,0.0,0.0,0.0,0.0,0.0,0.0,0.0,0.0,0.0,0.0,0.0,0.0,0.0,0.0,0.0,0.0,0.0,0.0,0.0,0.0,0.0,0.0,0.0,0.0,0.0,0.0,0.0,0.0,0.0,0.0,0.0,0.0,0.0,0.0,0.0,0.0,0.0,0.0,0.0,0.0,0.0,0.0,0.0,0.0,-4.5234,0.0,0.0,0.0,0.0,0.0,0.0,0.0,0.0,0.0,0.0,0.0,0.0,0.0,0.0,0.0,0.0,0.0,0.0,0.0,0.0,0.0,0.0,0.0,0.0,-3.6543,-3.668,-3.668,-3.6875,0.0,0.0,0.0,0.0,0.0,0.0,0.0,0.0,0.0,-3.7598,-3.8242,-3.8887,-3.9316,-3.9531,-3.9082,-3.9101,-3.9531,0.0,0.0,0.0,0.0,0.0,0.0,0.0,0.0,0.0,0.0,0.0,0.0,0.0,0.0,0.0,0.0,0.0,0.0,0.0,0.0,0.0,0.0,0.0,0.0,0.0,0.0,0.0,0.0,0.0,0.0,0.0,0.0,0.0,0.0,0.0,0.0,0.0,0.0,0.0,0.0,0.0,0.0,0.0,0.0,0.0,0.0,0.0,0.0,0.0,0.0,0.0,0.0,0.0,0.0,0.0,0.0,0.0,0.0,0.0,0.0,0.0,0.0,0.0,0.0,0.0,0.0,0.0,0.0,0.0,0.0,0.0,-4.5996,0.0,0.0,0.0,0.0,0.0,0.0,0.0,0.0,0.0,0.0,0.0,0.0,0.0,0.0,0.0,0.0,0.0,0.0,0.0,0.0,0.0,-3.5586,-3.6074,-3.6523,-3.666,-3.6387,-3.6758,-3.6855,-3.6484,-3.6465,0.0,0.0,0.0,0.0,0.0,0.0,-3.7949,-3.8574,-3.9004,-3.9473,-4.0,-3.9922,-3.998,-4.0117,-3.9961,0.0,0.0,0.0,0.0,0.0,0.0,0.0,0.0,0.0,0.0,0.0,0.0,0.0,0.0,0.0,0.0,0.0,0.0,0.0,0.0,0.0,0.0,0.0,0.0,0.0,0.0,0.0,0.0,0.0,0.0,0.0,0.0,0.0,0.0,0.0,0.0,0.0,0.0,0.0,0.0,0.0,0.0,0.0,0.0,0.0,0.0,0.0,0.0,0.0,0.0,0.0,0.0,0.0,0.0,0.0,0.0,0.0,0.0,0.0,0.0,0.0,0.0,0.0,0.0,-4.7734,-4.7793,-4.7793,-4.8027,-4.8379,-4.7246,-4.7148,-4.7754,0.0,0.0,0.0,0.0,0.0,0.0,0.0,0.0,0.0,0.0,0.0,0.0,0.0,0.0,0.0,0.0,0.0,0.0,0.0,0.0,-3.5703,-3.6504,-3.6953,-3.7344,-3.7637,-3.8066,-3.8301,-3.8242,-3.8242,0.0,0.0,0.0,0.0,0.0,-3.8379,-3.8828,-3.8574,-3.9004,-3.9629,-4.043,-4.0059,-4.0293,-4.0976,-4.0234,-3.9902,-3.9883,0.0,0.0,0.0,0.0,0.0,0.0,0.0,0.0,0.0,0.0,0.0,0.0,0.0,0.0,0.0,0.0,0.0,0.0,0.0,0.0,0.0,0.0,0.0,0.0,0.0,0.0,0.0,0.0,0.0,0.0,0.0,0.0,0.0,0.0,0.0,0.0,0.0,0.0,0.0,0.0,0.0,-4.332,-4.4199,0.0,0.0,0.0,0.0,0.0,0.0,0.0,0.0,0.0,0.0,0.0,0.0,0.0,0.0,-4.6465,-4.6777,-4.7109,-4.75,-4.793,-4.832,-4.8691,-4.8691,-4.8926,-4.9316,-4.8769,0.0,-4.8672,-4.8574,0.0,0.0,0.0,0.0,0.0,0.0,0.0,0.0,0.0,0.0,0.0,0.0,0.0,0.0,0.0,0.0,0.0,0.0,0.0,0.0,0.0,-3.7187,-3.7266,-3.7226,-3.7402,-3.75,-3.75,-3.75,0.0,0.0,0.0,0.0,-3.8008,-3.832,-3.875,-3.9316,-3.9512,-3.9902,-4.0508,-4.0098,-4.0098,-4.0449,-4.0059,-4.0019,-4.0215,-3.9707,0.0,0.0,0.0,0.0,0.0,0.0,0.0,0.0,0.0,0.0,0.0,0.0,0.0,0.0,0.0,0.0,0.0,0.0,0.0,0.0,0.0,0.0,0.0,0.0,0.0,0.0,0.0,0.0,0.0,0.0,0.0,0.0,0.0,0.0,0.0,0.0,0.0,0.0,0.0,-4.418,-4.459,-4.5683,-4.582,-4.6152,0.0,0.0,0.0,0.0,0.0,0.0,0.0,0.0,0.0,-4.7656,-4.7891,-4.793,-4.7734,-4.793,-4.8242,-4.8672,-4.8867,-4.918,-4.959,-4.959,-4.9844,-5.0234,-5.0039,-5.0098,-5.0254,-4.9531,-4.9375,-4.959,0.0,0.0,0.0,0.0,0.0,-4.9687,0.0,0.0,0.0,0.0,0.0,0.0,0.0,0.0,0.0,0.0,0.0,0.0,-3.7187,-3.7305,-3.7226,-3.7012,-3.709,-3.7148,-3.7148,-3.7266,-3.7461,-3.7773,0.0,-3.8301,-3.9062,-3.875,-3.9062,-4.0059,-4.0059,-4.0273,-4.0684,-4.0586,-4.0547,-4.0547,-4.0547,-4.0469,-4.0332,-3.9766,-4.0039,-4.0801,0.0,0.0,0.0,0.0,0.0,0.0,0.0,0.0,0.0,0.0,0.0,0.0,0.0,0.0,0.0,0.0,0.0,0.0,0.0,0.0,0.0,0.0,0.0,0.0,0.0,0.0,0.0,0.0,0.0,0.0,0.0,0.0,0.0,0.0,0.0,0.0,0.0,-4.5351,0.0,-4.666,-4.6953,-4.7305,0.0,0.0,0.0,0.0,0.0,0.0,-4.8203,-4.8418,-4.8535,-4.8535,-4.8867,-4.9082,-4.9199,-4.9199,-4.9414,-4.9844,-4.9746,-4.9922,-5.0332,-5.0234,-5.041,-5.0801,-5.0683,-5.0937,-5.1367,-5.041,-5.0215,-5.0488,-5.0391,-5.0332,-5.0371,-5.0566,-5.0644,-5.0644,0.0,0.0,0.0,0.0,0.0,0.0,0.0,0.0,0.0,0.0,0.0,-3.5898,-3.7168,-3.7305,-3.7461,-3.7832,-3.8242,-3.8476,-3.8476,-3.8848,-3.9082,-3.9101,-3.9531,-3.998,-4.041,-4.041,-4.043,-4.0488,-4.0488,-4.0723,-4.1152,-4.1933,-4.2305,-4.2305,-4.2305,-4.1406,-3.9961,-4.0312,-4.0273,-4.0019,-4.0801,0.0,0.0,0.0,0.0,0.0,0.0,0.0,0.0,0.0,0.0,0.0,0.0,0.0,0.0,0.0,0.0,0.0,0.0,0.0,0.0,0.0,0.0,0.0,0.0,0.0,0.0,0.0,0.0,0.0,0.0,0.0,0.0,0.0,0.0,0.0,0.0,0.0,0.0,-4.6328,-4.7051,0.0,0.0,0.0,0.0,-4.7676,-4.875,-4.9082,-4.8242,-4.9004,-4.9453,-4.9453,-4.9492,-4.9687,-5.0117,-5.0117,-5.0332,-5.0742,-5.0332,-5.0371,-5.0762,-5.0351,-5.041,-5.0781,-5.0391,-5.0683,-5.1426,-5.1367,-5.1348,-5.1328,-5.0937,-5.0781,-5.0723,-5.0351,-5.0215,-5.0215,0.0,0.0,0.0,-3.3418,-3.3418,-3.3574,-3.4004,-3.4297,-3.4941,-3.6269,-3.6309,-3.6797,-3.8359,-3.7793,-3.7578,-3.8281,-3.7988,-3.7871,-3.8144,-3.8555,-3.8926,-3.9199,-3.9648,-3.9961,-4.0117,-4.0918,-4.1348,-4.1348,-4.1894,-4.2246,-4.2402,-4.2715,-4.2695,-4.2422,-4.2422,-4.209,-4.1484,-4.0801,-4.0762,-4.1094,-4.0859,-4.0898,0.0,0.0,0.0,0.0,0.0,0.0,0.0,0.0,0.0,0.0,0.0,0.0,0.0,0.0,0.0,0.0,0.0,0.0,0.0,0.0,0.0,0.0,0.0,0.0,0.0,0.0,0.0,0.0,0.0,0.0,0.0,0.0,0.0,0.0,0.0,0.0,0.0,-4.7891,-4.8223,0.0,0.0,-4.8867,-4.9004,-4.8848,-4.9004,-4.8965,-4.8652,-4.8926,-4.9101,-4.9101,-4.9101,-4.916,-4.9336,-4.9336,-4.9551,-4.998,-5.0117,-5.0391,-5.0801,-5.0937,-5.123,-5.1621,-5.1465,-5.1719,-5.2266,-5.2266,-5.1933,-5.1406,-5.1269,-5.1211,-5.1191,-5.1035,-5.1172,-5.1406,0.0,-3.3848,0.0,-3.3633,-3.3633,-3.3789,-3.4219,-3.4766,-3.5508,-3.6543,-3.6914,-3.7519,-3.8652,-3.8144,-3.7949,-3.8516,-3.8066,-3.7969,-3.8555,-3.8984,-3.9492,-4.0059,-4.0644,-4.084,-4.0547,-4.1797,-4.2363,-4.2226,-4.2949,-4.3281,-4.3301,-4.3457,-4.3281,-4.2871,-4.3027,-4.3008,-4.2793,-4.1797,-4.1543,-4.1758,-4.1348,-4.1328,-4.1562,0.0,0.0,0.0,0.0,0.0,0.0,0.0,0.0,0.0,0.0,0.0,0.0,0.0,0.0,0.0,0.0,0.0,0.0,0.0,0.0,0.0,0.0,0.0,0.0,0.0,0.0,0.0,0.0,0.0,0.0,0.0,0.0,0.0,0.0,0.0,-4.8066,-4.8769,-4.8867,-4.8965,-4.9277,-4.9297,-4.9355,-4.9512,-4.9101,-4.8867,-4.8867,-4.8867,-4.8926,-4.9082,-4.9238,-4.9375,-4.9512,-4.9648,-4.9883,-5.0176,-5.0469,-5.0742,-5.1035,-5.1308,-5.1582,-5.1855,-5.1855,-5.2031,-5.2285,-5.2285,-5.1933,-5.1465,-5.1758,-5.1855,-5.1855,-5.1855,-5.2051,-5.2266,0.0,-3.4062,-3.4062,-3.4082,-3.4082,-3.4219,-3.4648,-3.5469,-3.6172,-3.6621,-3.7402,-3.793,-3.7949,-3.832,-3.8594,-3.8613,-3.8613,-3.8965,-3.9863,-4.0312,-4.0918,-4.1777,-4.2617,-4.2676,-4.1855,-4.3066,-4.3516,-4.3144,-4.3555,-4.375,-4.3769,-4.4219,-4.418,-4.3769,-4.4219,-4.416,-4.373,-4.3301,-4.2656,-4.1933,-4.2285,-4.1953,-4.1269,0.0,0.0,0.0,0.0,0.0,0.0,0.0,0.0,0.0,0.0,0.0,0.0,0.0,0.0,0.0,0.0,0.0,0.0,0.0,0.0,0.0,0.0,0.0,0.0,0.0,0.0,0.0,0.0,0.0,0.0,0.0,0.0,0.0,-4.8769,-4.8476,-4.8379,-4.8808,-4.8867,-4.8867,-4.8867,-4.8867,-4.9043,-4.9473,-4.9101,-4.8867,-4.8887,-4.8887,-4.9082,-4.9531,-4.9961,-5.0371,-5.0781,-5.1191,-5.1387,-5.1387,-5.1406,-5.1406,-5.1406,-5.1426,-5.1445,-5.1445,-5.1465,-5.1484,-5.1484,-5.1504,-5.1504,-5.1582,-5.2363,-5.2676,-5.2676,-5.2676,-5.2676,-5.2637,-3.4023,-3.3828,-3.3691,-3.4023,-3.4082,-3.4336,-3.5078,-3.5664,-3.6172,-3.6621,-3.7402,-3.8047,-3.8359,-3.8496,-3.8828,-3.9473,-3.9219,-3.9394,-4.0293,-4.0762,-4.1367,-4.2207,-4.248,-4.2637,-4.2715,-4.3379,-4.3965,-4.4492,-4.4609,-4.4824,-4.5137,-4.4941,-4.4785,-4.4668,-4.4805,-4.4785,-4.4648,-4.4531,-4.4355,-4.4043,-4.2891,-4.248,-4.2539,0.0,0.0,0.0,0.0,0.0,0.0,0.0,0.0,0.0,0.0,0.0,0.0,0.0,0.0,0.0,0.0,0.0,0.0,0.0,0.0,0.0,0.0,0.0,0.0,0.0,0.0,0.0,0.0,0.0,0.0,0.0,0.0,-4.8242,-4.8359,-4.8555,-4.873,-4.8848,-4.8867,-4.8867,-4.8867,-4.8867,-4.8906,-4.9023,-4.8926,-4.9004,-4.9336,-4.9336,-4.9551,-4.998,-5.0117,-5.0234,-5.0351,-5.0469,-5.0527,-5.0527,-5.084,-5.0976,-5.0976,-5.1289,-5.1601,-5.1914,-5.2226,-5.2539,-5.2851,-5.3183,-5.332,-5.3223,-5.2187,-5.1777,-5.1777,-5.1777,-5.1973,-5.2285,-3.4062,-3.3867,-3.3828,-3.4258,-3.4336,-3.457,-3.5293,-3.6055,-3.6523,-3.6406,-3.7773,-3.8574,-3.8086,-3.8691,-3.9258,-3.957,-3.9355,-3.9726,-4.0976,-4.1797,-4.2461,-4.293,-4.3144,-4.3281,-4.334,-4.4121,-4.4687,-4.5019,-4.5215,-4.543,-4.5664,-4.5234,-4.5019,-4.5019,-4.5019,-4.5019,-4.5019,-4.5019,-4.5019,-4.4941,-4.3926,-4.3555,-4.3613,-4.3359,-4.3281,-4.3301,-4.3047,-4.2969,-4.3008,-4.334,0.0,0.0,0.0,0.0,0.0,0.0,0.0,0.0,0.0,0.0,0.0,0.0,0.0,0.0,0.0,0.0,0.0,0.0,0.0,0.0,0.0,0.0,0.0,0.0,-4.8652,-4.8476,-4.8476,-4.8691,-4.8926,-4.9121,-4.8965,-4.8926,-4.9121,-4.8965,-4.9004,-4.9375,-4.9238,-4.9336,-4.9785,-4.9805,-4.9922,-5.0176,-5.0351,-5.0449,-5.0449,-5.0625,-5.0801,-5.0976,-5.123,-5.1426,-5.1621,-5.1855,-5.2109,0.0,-5.2598,-5.2851,-5.3105,-5.3359,-5.3476,0.0,0.0,0.0,0.0,0.0,-5.2676,-5.293,-3.4219,-3.4141,-3.4277,-3.4707,-3.4785,-3.4922,-3.5391,-3.6504,-3.6992,-3.6133,-3.8242,-3.918,-3.748,-3.8809,-3.9668,-3.9316,-3.9277,-4.0019,-4.1758,-4.3027,-4.3711,-4.3711,-4.4141,-4.4219,-4.3867,-4.5039,-4.5508,-4.5176,-4.5508,-4.5703,-4.5742,-4.5312,-4.5117,-4.5176,-4.5176,-4.5176,-4.5176,-4.5176,-4.5176,-4.5176,-4.5176,-4.4883,-4.4473,-4.4473,-4.4238,-4.3926,-4.3926,-4.3965,-4.3945,-4.3574,0.0,0.0,0.0,0.0,0.0,0.0,0.0,0.0,0.0,0.0,0.0,0.0,0.0,0.0,0.0,0.0,0.0,0.0,0.0,0.0,0.0,0.0,0.0,0.0,-4.8867,-4.8867,-4.8867,-4.8867,-4.9004,-4.9414,-4.9101,-4.9043,-4.9492,-4.916,-4.9277,-5.0117,-4.9824,-4.9785,-5.0215,0.0,0.0,0.0,0.0,-5.0976,-5.1016,-5.1387,-5.1777,-5.2148,-5.2148,-5.2344,-5.2715,-5.2715,-5.2715,-5.2715,-5.2754,-5.2773,-5.2793,-5.2832,-5.2851,-5.293,-5.3613,-5.3887,-5.3887,-5.3887,-5.3887,-5.3887,-3.4668,-3.457,-3.4726,-3.5176,-3.5254,-3.541,-3.584,-3.6699,-3.6992,-3.6133,-3.7949,-3.8809,-3.7441,-3.8516,-3.9453,-3.9726,-3.9766,-4.0488,-4.2187,-4.3183,-4.3711,-4.3711,-4.4141,-4.4512,-4.4766,-4.5371,-4.5801,-4.6055,-4.5801,-4.584,-4.6172,-4.5742,-4.5723,-4.6055,-4.6055,-4.6055,-4.6055,-4.6055,-4.6055,-4.6055,-4.6055,-4.5586,-4.4902,-4.4902,-4.5058,-4.5293,-4.5293,-4.5508,-4.5781,-4.5703,-4.5449,-4.5156,-4.5078,-4.4922,0.0,0.0,0.0,0.0,0.0,0.0,0.0,0.0,0.0,0.0,0.0,0.0,0.0,0.0,0.0,0.0,0.0,0.0,0.0,-4.8848,-4.8867,-4.8867,-4.8867,-4.8867,-4.8887,-4.8984,-4.8906,-4.9043,-4.9492,-4.9453,-4.9609,-5.0137,-5.0098,-5.0234,-5.0664,-5.0683,0.0,-5.1699,-5.1797,-5.1992,-5.2344,-5.2422,-5.25,-5.2598,0.0,0.0,-5.2715,-5.2715,-5.2715,-5.2734,-5.3086,-5.3242,-5.3262,-5.3633,-5.3769,-5.373,-5.3183,-5.2969,-5.2969,-5.2969,-5.2969,-5.2969,-3.541,-3.5,-3.4844,-3.5312,-3.5391,-3.5605,-3.625,-3.6894,-3.7148,-3.6719,-3.834,-3.9141,-3.8066,-3.9082,-4.0039,-4.0488,-4.1113,-4.1855,-4.2695,-4.3359,-4.3808,-4.4043,-4.4473,-4.4805,-4.5019,-4.5664,-4.5996,-4.5996,-4.5996,-4.6094,-4.6289,-4.6094,-4.6113,-4.6308,-4.6308,-4.6308,-4.6308,-4.6308,-4.6308,-4.6308,-4.6308,-4.6055,-4.5644,-4.543,-4.5488,-4.5683,-4.5683,-4.5664,-4.5703,-4.5918,-4.5703,-4.5351,-4.5351,-4.5351,-4.543,0.0,0.0,0.0,0.0,0.0,0.0,0.0,0.0,0.0,0.0,0.0,0.0,0.0,0.0,-4.8672,0.0,0.0,-4.8867,-4.8867,-4.8867,-4.8945,-4.916,-4.9199,-4.9199,-4.9199,-4.9199,-4.9355,-4.9805,-4.9844,-5.0039,-5.0469,-5.0488,-5.0762,-5.1406,-5.1445,-5.1738,-5.2383,-5.2402,-5.25,-5.2715,-5.2715,-5.2812,-5.3027,-5.3027,-5.3144,-5.3379,-5.3379,-5.3379,-5.3379,-5.3594,-5.3691,-5.3711,-5.3945,-5.4023,-5.3984,-5.3535,-5.3379,-5.3379,-5.3379,-5.3379,-5.3379,-3.6016,-3.5449,-3.5078,-3.5449,-3.5508,-3.5781,-3.6562,-3.7031,-3.7305,-3.7305,-3.8672,-3.9375,-3.8652,-3.959,-4.0469,-4.0996,-4.207,-4.2773,-4.2949,-4.334,-4.3789,-4.4238,-4.4824,-4.5117,-4.5019,-4.5859,-4.6133,-4.5801,-4.6133,-4.6308,-4.6308,-4.6308,-4.6308,-4.6308,-4.6308,-4.6308,-4.6308,-4.6308,-4.6308,-4.6308,-4.6308,-4.6308,-4.6269,-4.5918,-4.5801,-4.5801,-4.5898,-4.5703,-4.5449,-4.5801,-4.5683,-4.5391,-4.5293,-4.5508,-4.5898,-4.6406,-4.6484,0.0,0.0,0.0,0.0,0.0,0.0,0.0,0.0,0.0,-4.8965,-4.9316,-4.9101,-4.8965,-4.9336,-4.9101,-4.8887,-4.8965,-4.8984,-4.9141,-4.959,-4.9648,-4.9687,-4.9766,-4.9707,-4.9824,-5.0254,-5.0293,-5.0508,-5.1016,-5.1055,-5.1387,-5.2168,-5.2207,-5.2402,-5.2812,-5.2832,-5.2871,-5.2969,-5.2969,-5.3144,-5.3496,-5.3496,-5.3672,-5.4023,-5.4121,-5.416,-5.416,-5.4238,-5.4277,-5.4277,-5.4277,-5.4277,-5.4277,-5.4277,-5.4277,-5.4258,-5.4101,-5.4082,-5.416,-3.6016,-3.5937,-3.5879,-3.5937,-3.5957,-3.6113,-3.6601,-3.7031,-3.7305,-3.7305,-3.8125,-3.8691,-3.8594,-3.9043,-3.9687,-4.0527,-4.1074,-4.1699,-4.2461,-4.291,-4.334,-4.3769,-4.4941,-4.543,-4.5039,-4.5859,-4.6289,-4.623,-4.6289,-4.6308,-4.6308,-4.6308,-4.6308,-4.6308,-4.6308,-4.6308,-4.6308,-4.6308,-4.6308,-4.6308,-4.6308,-4.6308,-4.6289,-4.625,-4.623,-4.6289,-4.666,-4.6758,-4.6719,-4.6777,-4.6758,-4.666,-4.6269,-4.6191,-4.6387,-4.7207,-4.7168,-4.6973,-4.7441,-4.7226,0.0,-4.6855,-4.75,-4.8144,0.0,0.0,-4.8867,-4.8926,-4.8887,-4.8867,-4.8926,-4.8887,-4.8984,-4.9394,-4.9453,-4.9609,-5.0039,-5.0098,-5.0234,-5.0625,-5.0332,-5.0273,-5.0703,-5.0742,-5.1074,-5.1875,-5.1933,-5.2148,-5.2617,-5.2637,-5.2832,-5.3281,-5.3281,-5.3476,-5.3887,-5.3887,-5.3906,-5.3965,-5.3965,-5.3984,-5.4043,-5.4433,-5.4609,-5.4629,-5.5,-5.5156,-5.5156,-5.5156,-5.5156,-5.5156,-5.5156,-5.5156,-5.5078,-5.4316,-5.4277,-5.4609,-3.6016,-3.6016,-3.6016,-3.6016,-3.6016,-3.625,-3.6934,-3.7187,-3.748,-3.7969,-3.8574,-3.8945,-3.8945,-3.9785,-4.0586,-4.1211,-4.166,-4.2051,-4.2402,-4.2832,-4.3164,-4.334,-4.459,-4.5215,-4.5039,-4.5859,-4.6308,-4.6308,-4.6308,-4.6308,-4.6308,-4.6308,-4.6308,-4.6308,-4.6308,-4.6308,-4.6308,-4.6308,-4.6308,-4.6289,-4.6035,-4.5937,-4.5937,-4.5937,-4.5781,-4.5703,-4.6894,-4.7148,0.0,-4.7226,-4.7305,-4.7226,-4.6797,-4.6836,-4.7109,-4.748,-4.7266,-4.6914,-4.6855,-4.6875,0.0,0.0,-4.7012,-4.7461,-4.7461,-4.7988,-4.8418,-4.8164,-4.8711,-4.918,-4.8906,-4.9277,-4.9687,0.0,-4.9902,-5.0058,-5.0488,-5.0547,-5.0801,-5.1465,-5.1387,-5.1348,-5.1523,-5.1543,-5.1797,-5.2402,-5.2441,-5.2637,-5.3066,-5.3086,-5.3301,-5.373,-5.375,-5.3848,-5.4023,-5.4277,-5.4414,-5.4414,-5.4648,-5.4765,-5.4785,-5.4961,-5.5039,-5.5058,-5.5234,-5.5312,-5.5312,-5.5312,-5.5312,-5.5312,-5.5312,-5.5312,-5.5273,-5.4902,-5.4883,-5.5039,-3.6367,-3.6367,-3.6367,-3.6367,-3.6367,-3.6582,-3.7207,-3.7305,-3.7598,-3.8457,-3.8848,-3.9062,-3.9199,-4.0273,-4.1113,-4.1426,-4.1719,-4.1992,-4.2246,-4.2656,-4.2949,-4.3066,-4.4336,-4.5019,-4.5019,-4.5762,-4.6191,-4.6308,-4.6308,-4.6308,-4.6308,-4.6308,-4.6308,-4.6308,-4.6308,-4.6308,-4.6308,-4.6308,-4.6308,-4.6269,-4.5976,-4.584,-4.584,-4.584,-4.5723,-4.5703,-4.6953,-4.7129,-4.6836,-4.7383,-4.7578,-4.7519,-4.7207,-4.7324,-4.7578,-4.7578,-4.7363,-4.7012,-4.6582,-4.6699,0.0,-4.6406,-4.6621,-4.6933,-4.6933,-4.7598,-4.8125,-4.7812,-4.8691,-4.9433,-4.9101,-4.9668,0.0,-5.0332,-5.0351,-5.0547,-5.1074,-5.1152,-5.1426,-5.2168,-5.2246,-5.2305,-5.2422,-5.2324,-5.2441,-5.2851,-5.2891,-5.3086,-5.3516,-5.3555,-5.3691,-5.4023,-5.4141,-5.4199,-5.4199,-5.4629,-5.4863,-5.4863,-5.5156,-5.5312,-5.5312,-5.543,-5.5547,-5.5664,-5.5664,-5.5664,-5.5664,-5.5664,-5.5664,-5.5664,-5.5664,-5.5664,-5.5664,-5.5664,-5.5586,-5.5488,-3.7266,-3.7266,-3.7266,-3.7266,-3.7266,-3.7266,-3.7285,-3.7305,-3.7598,-3.8457,-3.8594,-3.875,-3.916,-4.0,-4.0547,-4.0566,-4.0566,-4.0937,-4.1758,-4.2207,-4.2637,-4.3066,-4.4336,-4.5019,-4.5019,-4.5469,-4.5898,-4.6308,-4.6308,-4.6308,-4.6308,-4.6308,-4.6308,-4.6308,-4.6308,-4.6308,-4.6308,-4.6308,-4.6308,-4.6308,-4.6289,-4.6289,-4.6289,-4.6289,-4.6523,-4.6875,-4.6933,-4.668,-4.6445,-4.7305,-4.7578,-4.7578,-4.7558,-4.7578,-4.7578,-4.7578,-4.7578,-4.7461,-4.7031,0.0,-4.6816,-4.6406,-4.6621,-4.6933,-4.6933,-4.7598,-4.8203,-4.8183,-4.8906,-4.9531,-4.9512,-4.9883,-5.0312,-5.0723,-5.0781,-5.1074,-5.1933,-5.2051,-5.2207,-5.2637,-5.2695,-5.2851,0.0,-5.2949,-5.2871,-5.3301,-5.334,-5.3535,-5.3984,-5.4004,-5.4023,-5.4023,-5.4433,-5.4668,-5.4668,-5.5078,-5.5293,-5.5293,-5.5293,-5.5312,-5.5312,-5.5723,-5.6152,-5.6543,-5.6543,-5.6543,-5.6543,-5.6543,-5.6543,-5.6543,-5.6543,-5.6543,-5.6543,-5.6543,-5.6269,-5.5918,-3.7305,-3.7305,-3.7305,-3.7305,-3.7305,-3.7383,-3.7676,-3.7715,-3.793,-3.8496,-3.8574,0.0,0.0,0.0,0.0,0.0,-4.0781,-4.1074,-4.1367,-4.2031,-4.25,-4.2637,-4.3906,-4.4609,-4.4609,-4.5312,-4.5742,-4.5879,-4.5879,-4.6035,-4.6289,-4.6016,-4.6035,-4.6308,-4.6308,-4.6308,-4.6308,-4.6308,-4.6308,-4.6289,-4.5996,-4.5879,-4.5918,-4.6191,-4.6387,-4.6621,0.0,-4.7695,-4.7617,-4.7891,-4.8183,-4.8379,-4.8086,-4.8203,-4.8379,-4.8086,-4.7598,-4.7109,-4.6973,0.0,-4.6484,-4.6328,-4.6406,-4.6582,-4.6875,-4.7383,-4.7793,-4.7793,-4.916,-5.0293,-5.0019,-5.0762,-5.1582,-5.1992,-5.1836,-5.1855,-5.2422,-5.25,-5.2656,-5.3086,-5.3144,0.0,0.0,0.0,0.0,-5.3769,-5.3808,-5.3867,-5.4023,-5.4297,-5.4453,-5.4453,-5.4883,-5.5098,-5.5098,-5.5508,-5.5723,-5.5723,-5.6015,-5.6152,-5.6152,-5.6308,-5.6445,-5.6582,-5.6582,-5.6582,-5.6582,-5.6582,-5.6582,-5.6582,-5.6582,-5.6582,-5.6621,-5.6894,-5.6914,-5.6738,-3.7754,-3.7754,-3.7754,-3.7754,-3.7754,0.0,0.0,0.0,0.0,0.0,0.0,0.0,0.0,0.0,0.0,0.0,0.0,-4.1172,-4.1172,-4.1816,-4.2266,-4.2422,-4.3398,-4.4082,-4.4394,-4.5078,-4.5527,-4.5683,-4.582,-4.5957,-4.6074,-4.5801,-4.582,-4.6074,-4.6074,-4.6152,-4.6308,-4.6308,-4.6387,-4.6484,-4.6074,-4.6074,-4.6367,-4.6484,-4.6621,0.0,-4.7851,-4.8203,-4.8223,-4.8379,-4.8516,-4.8574,-4.8301,-4.8301,-4.8398,-4.8437,-4.7832,0.0,0.0,-4.6738,-4.6562,-4.6719,-4.6758,-4.6875,-4.7285,-4.7734,-4.8047,-4.8047,-4.9394,-5.0586,-5.0625,-5.1426,-5.2226,-5.2637,-5.248,-5.2461,-5.2891,-5.2949,-5.3105,-5.3555,-5.3594,0.0,0.0,0.0,0.0,-5.4004,-5.4023,-5.4101,-5.4258,-5.4531,-5.4746,-5.4902,-5.5312,-5.5527,-5.5527,-5.5957,-5.6172,-5.6172,-5.6445,-5.6582,-5.6582,-5.6582,-5.6582,-5.6582,-5.6582,-5.668,-5.6797,-5.6797,-5.6894,-5.7051,-5.7051,-5.7051,-5.707,-5.7344,-5.7441,-5.7402,-3.8574,-3.8574,-3.8574,0.0,0.0,0.0,0.0,0.0,0.0,0.0,0.0,0.0,0.0,0.0,0.0,0.0,0.0,0.0,-4.1172,-4.1562,-4.1973,-4.2383,-4.2832,-4.3476,-4.4316,-4.4766,-4.5215,-4.5644,-4.6035,-4.6055,-4.5703,-4.5683,-4.5683,-4.5703,-4.5703,-4.5937,-4.6328,-4.6328,-4.6562,-4.6894,-4.6523,-4.6836,-4.75,-4.7109,-4.7226,-4.7637,-4.8066,-4.8203,-4.8281,-4.8711,-4.8574,-4.8203,-4.8183,-4.7891,-4.7734,-4.8555,-4.8203,-4.7461,-4.707,-4.6953,-4.7051,-4.75,-4.7617,-4.7734,-4.8164,-4.8594,-4.8906,-4.8926,-4.9648,-5.0527,0.0,0.0,-5.2324,-5.2773,-5.2812,-5.293,-5.3359,-5.3418,-5.3555,0.0,0.0,0.0,0.0,0.0,0.0,-5.4062,0.0,-5.4258,-5.4687,-5.4726,-5.4922,-5.5332,-5.5742,-5.5976,-5.5976,-5.6387,-5.6582,-5.6582,-5.6582,-5.6601,-5.6621,-5.6621,-5.6621,-5.664,-5.664,-5.6875,-5.7246,-5.7246,-5.748,-5.7871,-5.7871,-5.7871,-5.7871,-5.7871,-5.791,-5.793,0.0,0.0,0.0,0.0,0.0,0.0,0.0,0.0,0.0,0.0,0.0,0.0,0.0,0.0,0.0,0.0,0.0,0.0,-4.1172,-4.1562,-4.1855,-4.1953,-4.2676,-4.3183,-4.3418,-4.416,-4.4766,-4.5195,-4.5293,-4.5625,-4.6133,-4.582,-4.584,-4.6152,-4.6152,-4.6367,-4.6777,-4.6777,-4.6836,-4.6953,-4.7168,-4.7187,-4.7109,-4.7324,-4.748,-4.7637,-4.8066,-4.8203,-4.8281,-4.8711,-4.8574,0.0,0.0,-4.7656,-4.7617,-4.7851,-4.7519,-4.7148,-4.7363,-4.7187,-4.7109,-4.7851,-4.8047,-4.8242,-4.9023,-4.9277,-4.9453,-4.9785,-5.0781,-5.1758,0.0,0.0,0.0,-5.4512,-5.4101,0.0,-5.4277,-5.4062,0.0,0.0,0.0,-5.4023,-5.4023,-5.4336,0.0,0.0,-5.4512,-5.4707,-5.5117,-5.5449,-5.5664,-5.5762,-5.6191,-5.6426,-5.6426,-5.6523,-5.6582,-5.6582,-5.6582,-5.6758,-5.7051,-5.7051,-5.7226,-5.7539,-5.7539,-5.7598,-5.7695,-5.7695,-5.7754,-5.7871,-5.7871,-5.7871,-5.791,-5.8242,-5.8555,-5.8887,0.0,0.0,0.0,0.0,0.0,0.0,0.0,0.0,0.0,0.0,0.0,0.0,0.0,0.0,0.0,0.0,0.0,0.0,0.0,-4.1387,-4.1523,-4.1523,-4.2168,-4.2598,-4.2793,-4.3652,-4.4394,-4.5019,-4.5215,-4.5566,-4.6016,-4.5781,-4.5801,-4.6035,-4.6035,-4.6269,-4.666,-4.6855,-4.6933,0.0,0.0,-4.7363,-4.748,-4.7344,-4.7519,-4.7891,-4.8125,-4.832,-4.8476,0.0,0.0,-4.7891,-4.7656,-4.7441,-4.7324,-4.7519,0.0,-4.7226,-4.7285,-4.7383,-4.7695,-4.8574,-4.8926,-4.9297,-5.0156,-5.0215,-5.0215,-5.0644,-5.1289,0.0,0.0,0.0,0.0,0.0,0.0,0.0,-5.4668,-5.4316,-5.4023,0.0,-5.4199,0.0,-5.4316,-5.4707,-5.5039,0.0,-5.5058,-5.5137,-5.5566,-5.5801,-5.6015,-5.6211,-5.6445,-5.6582,-5.6582,-5.6582,-5.668,-5.6855,-5.6855,-5.709,-5.75,-5.75,-5.7637,-5.7871,0.0,-5.7969,-5.8183,-5.8379,-5.8555,-5.8711,-5.8711,-5.8711,-5.873,-5.8769,-5.8945,-5.9238,0.0,0.0,0.0,0.0,0.0,0.0,0.0,0.0,0.0,-3.875,-3.9004,0.0,0.0,0.0,0.0,0.0,0.0,0.0,0.0,0.0,-4.1152,-4.1094,-4.1484,-4.1914,-4.2344,-4.3125,-4.4004,-4.4941,-4.5312,-4.5527,-4.5586,-4.5644,-4.5683,-4.5683,-4.5742,-4.5996,-4.6406,-4.6777,-4.6933,-4.6933,-4.7051,-4.75,-4.8047,0.0,-4.7519,-4.8203,-4.8203,-4.8535,0.0,0.0,-4.7578,-4.7558,-4.7441,-4.7148,-4.6933,-4.7363,-4.7539,-4.7519,-4.7266,-4.7773,-4.8594,-4.9473,-4.998,-5.0469,-5.125,-5.1152,-5.1016,-5.1426,0.0,-5.1992,-5.3301,0.0,-5.4883,-5.5469,0.0,-5.5254,-5.4902,-5.4473,-5.418,-5.4121,-5.4453,-5.4707,-5.4765,-5.5137,-5.5547,-5.5898,-5.5644,-5.5625,-5.5996,-5.6015,-5.6191,-5.6582,-5.6582,-5.6582,-5.6582,-5.6582,-5.6797,-5.7207,-5.7207,-5.7461,-5.7969,-5.7969,-5.8027,-5.8105,0.0,0.0,-5.8711,-5.9062,-5.9414,-5.9746,-5.9805,-5.9805,-5.9765,-5.9531,-5.9473,-5.9531,0.0,0.0,0.0,0.0,0.0,0.0,0.0,-3.9101,-3.9238,-3.9609,-3.9394,-3.9355,0.0,0.0,0.0,0.0,0.0,0.0,0.0,0.0,0.0,-4.0644,-4.1055,-4.1484,-4.1894,-4.2402,-4.3262,-4.4512,-4.459,-4.4805,-4.5137,-4.5508,-4.5683,-4.5683,-4.6035,-4.6426,-4.6816,-4.6894,-4.6933,-4.6992,-4.7695,-4.7871,-4.7676,-4.7519,0.0,0.0,-4.8203,-4.873,-4.9219,-4.7988,-4.7578,-4.7461,-4.6758,-4.6465,-4.6504,-4.6914,-4.7305,-4.7715,-4.8359,-4.8906,-4.9512,-5.0371,-5.0644,-5.082,-5.1308,-5.1367,0.0,0.0,0.0,-5.2891,-5.4199,-5.457,0.0,-5.664,0.0,0.0,0.0,0.0,-5.4961,0.0,0.0,0.0,0.0,0.0,0.0,0.0,0.0,0.0,-5.6465,-5.6465,-5.6504,-5.6582,-5.6582,-5.6582,-5.6582,-5.6582,-5.6797,-5.7207,-5.7207,-5.7637,-5.8418,-5.8418,-5.8828,-5.9453,-5.9121,0.0,-5.957,-5.9297,-5.9238,-5.9355,-5.9687,-5.9805,-5.9883,-6.0508,-6.0976,-6.1308,0.0,0.0,0.0,0.0,0.0,0.0,0.0,-3.9414,-3.9726,-4.0156,-4.0039,-3.998,-4.0195,-4.0605,-4.0859,0.0,0.0,0.0,0.0,0.0,0.0,-4.0547,-4.0937,-4.1367,-4.1797,-4.2207,-4.3086,-4.4394,0.0,-4.4609,-4.5039,-4.5234,-4.5449,-4.5683,-4.5879,-4.6211,-4.6621,-4.6836,-4.6797,-4.668,-4.7539,-4.7754,-4.7578,-4.7578,0.0,0.0,0.0,0.0,-4.9746,-4.8887,-4.8437,-4.8047,-4.6973,-4.6621,-4.6719,-4.7148,-4.7734,-4.834,-4.875,-4.9512,-5.0293,-5.0703,-5.0976,-5.1308,-5.1953,0.0,0.0,0.0,-5.291,-5.3379,-5.4473,-5.4863,0.0,0.0,0.0,0.0,0.0,0.0,0.0,0.0,0.0,0.0,0.0,0.0,0.0,0.0,0.0,0.0,-5.6582,-5.6582,-5.6582,-5.6582,-5.6582,-5.6582,-5.6582,-5.6797,-5.7129,-5.7558,-5.7793,-5.8242,-5.8887,-5.8887,-5.9121,-5.9473,-5.9297,0.0,-5.9512,-5.9746,-5.9824,-5.9863,-6.0332,-6.0449,-6.0508,-6.0918,-6.1074,-6.1133,0.0,0.0,0.0,0.0,0.0,0.0,0.0,-3.9805,-4.0176,-4.0605,-4.0664,-4.0664,-4.0664,-4.0976,-4.1172,0.0,0.0,0.0,0.0,0.0,0.0,0.0,0.0,-4.1269,-4.1797,0.0,0.0,0.0,-4.4258,0.0,0.0,0.0,0.0,0.0,-4.5586,-4.5859,-4.6191,-4.6621,-4.666,0.0,0.0,-4.7637,0.0,0.0,0.0,0.0,0.0,0.0,0.0,0.0,-4.9297,-4.8828,-4.7812,-4.7285,-4.7148,-4.7598,-4.8262,-4.8887,-4.8984,-4.9883,-5.082,-5.0918,-5.1191,-5.1641,-5.2402,-5.2324,0.0,-5.3183,-5.3437,-5.3769,-5.4648,-5.5078,-5.5605,0.0,-5.664,0.0,0.0,0.0,0.0,0.0,0.0,0.0,0.0,0.0,0.0,0.0,0.0,0.0,-5.6582,-5.6582,-5.6582,-5.6582,-5.668,-5.668,-5.6582,-5.709,-5.7519,-5.7871,-5.8418,-5.8828,-5.918,-5.9297,-5.9297,-5.9297,-5.9297,0.0,0.0,-6.0156,-6.043,-6.0488,-6.0918,-6.1094,-6.1094,-6.1308,-6.1152,-6.0957,0.0,0.0,0.0,0.0,0.0,0.0,0.0,-4.043,-4.0625,-4.1055,-4.1113,-4.1113,-4.1113,-4.1152,-4.1172,0.0,0.0,0.0,0.0,0.0,0.0,0.0,0.0,0.0,0.0,0.0,0.0,0.0,0.0,0.0,0.0,0.0,0.0,0.0,0.0,0.0,-4.5762,-4.6191,0.0,0.0,0.0,0.0,0.0,0.0,0.0,0.0,0.0,0.0,0.0,0.0,0.0,-4.9433,-4.9316,-4.8476,-4.7598,-4.8027,0.0,0.0,-4.9355,-5.0117,-5.0898,-5.1269,-5.1406,-5.1562,-5.2031,0.0,-5.2324,-5.3183,-5.3691,-5.4238,-5.5098,-5.5273,-5.5703,-5.6953,-5.6836,-5.6562,-5.6484,-5.6465,-5.6308,-5.5879,0.0,0.0,0.0,0.0,0.0,0.0,0.0,0.0,0.0,-5.6582,-5.6582,-5.6582,-5.6953,-5.6973,-5.6582,-5.7402,-5.7812,-5.7871,-5.873,-5.9121,-5.918,-5.959,-5.9746,-5.9746,-5.9746,0.0,0.0,-6.039,-6.043,-6.0488,-6.0918,-6.1094,-6.1191,-6.1953,-6.2246,-6.2305,0.0,0.0,0.0,0.0,0.0,0.0,-4.0469,-4.0742,-4.0976,-4.1152,-4.1172,-4.1172,-4.1172,-4.1172,-4.1172,-4.1172,0.0,0.0,0.0,0.0,0.0,0.0,0.0,0.0,0.0,0.0,0.0,0.0,0.0,0.0,0.0,0.0,0.0,0.0,0.0,0.0,0.0,-4.623,0.0,0.0,0.0,0.0,0.0,0.0,0.0,0.0,0.0,0.0,0.0,0.0,0.0,0.0,-5.0293,-4.9766,-4.9062,0.0,-4.9277,-4.9961,-4.9609,-5.0332,-5.123,-5.1387,-5.1426,-5.1621,-5.2305,-5.2656,-5.3105,-5.3965,-5.4492,-5.498,-5.5566,-5.5683,-5.5937,-5.6699,-5.6914,-5.6601,-5.5586,-5.5879,-5.5937,-5.5254,-5.541,0.0,0.0,0.0,0.0,0.0,0.0,0.0,0.0,-5.6582,-5.6699,-5.6953,-5.7129,-5.7265,-5.7344,-5.7969,-5.8379,-5.8672,-5.9004,-5.9297,-5.957,-5.9746,-5.9805,-5.9805,-6.0098,0.0,0.0,-6.0723,-6.084,-6.0859,-6.1308,-6.1484,-6.1543,-6.2129,-6.2363,-6.248,0.0,0.0,0.0,0.0,0.0,-3.9778,-4.0221,-4.0666,-4.086,-4.1016,-4.0997,-4.1016,-4.1172,-4.1172,-4.1172,-4.0997,-4.1172,0.0,0.0,0.0,0.0,0.0,0.0,0.0,0.0,0.0,0.0,0.0,0.0,0.0,0.0,0.0,0.0,0.0,0.0,0.0,0.0,0.0,0.0,0.0,0.0,0.0,0.0,0.0,0.0,0.0,0.0,0.0,0.0,0.0,0.0,-5.0996,-5.0996,-5.0781,-5.0332,-4.9199,-4.9609,-5.0293,-4.9687,-5.0273,-5.1113,-5.1367,-5.1523,-5.1855,-5.2715,-5.3242,-5.3808,-5.4687,-5.5195,-5.5586,-5.5879,-5.6035,-5.623,-5.6543,-5.6719,-5.6406,-5.5215,-5.5566,-5.5703,-5.5117,0.0,0.0,0.0,0.0,0.0,0.0,0.0,0.0,0.0,-5.6777,-5.6914,-5.7207,-5.7461,-5.7695,-5.7871,-5.8437,-5.8828,-5.9004,-5.9238,-5.9531,-5.9805,-5.9922,-5.998,-6.0039,0.0,0.0,0.0,-6.1094,-6.1269,-6.1308,-6.1601,-6.1777,-6.1953,-6.2246,-6.2363,-6.248,0.0,0.0,0.0,0.0,0.0,0.0,-3.9845,-3.9902,-4.0059,-4.0509,-4.0509,-4.0666,-4.1172,-4.1172,-4.0997,-4.0509,-4.0997,0.0,0.0,0.0,0.0,0.0,0.0,0.0,0.0,0.0,0.0,0.0,0.0,0.0,0.0,0.0,0.0,0.0,0.0,0.0,0.0,0.0,0.0,0.0,0.0,0.0,0.0,0.0,0.0,0.0,0.0,0.0,0.0,0.0,0.0,0.0,0.0,-5.1426,-5.1074,-4.9355,-4.918,-4.9531,-4.9531,-4.9844,-5.0391,-5.123,-5.1758,-5.2305,-5.3164,-5.3691,-5.4258,-5.5117,-5.5644,-5.5937,-5.5937,-5.6289,-5.6582,-5.6582,-5.623,-5.5937,-5.5918,-5.5918,-5.5937,0.0,0.0,0.0,0.0,0.0,0.0,0.0,0.0,0.0,0.0,-5.7207,-5.7207,-5.7207,-5.8066,-5.8301,-5.7871,-5.873,-5.8945,-5.8535,-5.9394,-5.9805,-5.9805,-6.0254,-6.043,0.0,0.0,0.0,0.0,-6.1543,-6.1719,-6.1719,-6.1719,-6.1953,-6.2363,-6.2363,-6.2363,-6.2422,0.0,0.0,0.0,0.0,0.0,0.0,0.0,-3.9902,-3.9902,-4.0059,-4.0353,-4.0509,-4.0685,-4.0685,-4.0666,-4.0509,-4.0997,0.0,0.0,0.0,0.0,0.0,0.0,0.0,0.0,0.0,0.0,0.0,0.0,0.0,0.0,0.0,0.0,0.0,0.0,0.0,0.0,0.0,0.0,0.0,0.0,0.0,0.0,0.0,0.0,0.0,0.0,0.0,0.0,0.0,0.0,0.0,0.0,0.0,0.0,-5.0098,-5.0273,-5.0703,-5.0137,-5.0488,-5.1094,-5.1367,-5.1973,-5.2656,-5.3223,-5.416,-5.5058,-5.5625,-5.6074,-5.6387,-5.6387,-5.6973,-5.7168,-5.6289,-5.6523,-5.6406,-5.5234,-5.582,0.0,-5.5976,0.0,0.0,0.0,0.0,0.0,0.0,0.0,0.0,0.0,-5.75,-5.7793,-5.8125,-5.8359,-5.8594,-5.8769,-5.9062,-5.9414,-5.9844,-5.9805,-6.0098,-6.0683,-6.0801,0.0,0.0,0.0,0.0,0.0,-6.166,-6.1719,-6.1758,-6.207,-6.2246,-6.2363,-6.2363,-6.2754,-6.3223,0.0,0.0,0.0,0.0,0.0,0.0,0.0,-3.943,-3.943,-3.9588,-3.9902,-4.004,-4.0197,-4.0197,-4.0273,-4.0268,-4.0621,0.0,0.0,0.0,0.0,0.0,0.0,0.0,0.0,0.0,0.0,0.0,0.0,0.0,-4.4931,-4.5723,-4.5918,-4.5918,0.0,0.0,0.0,0.0,0.0,0.0,0.0,0.0,-5.0547,0.0,0.0,0.0,0.0,0.0,0.0,0.0,0.0,0.0,0.0,0.0,0.0,0.0,-5.1269,-5.1484,-5.0644,-5.0918,-5.1465,-5.1641,-5.2441,-5.332,-5.375,-5.4726,-5.5664,-5.6094,-5.6133,-5.6152,-5.6308,-5.664,-5.668,-5.6035,-5.625,-5.623,-5.5508,-5.6074,0.0,-5.6426,0.0,0.0,0.0,0.0,0.0,0.0,0.0,0.0,0.0,0.0,-5.8144,-5.8769,-5.8769,-5.8887,-5.918,-5.9355,-5.9687,-6.0215,-6.0098,-6.039,-6.1094,-6.1094,0.0,0.0,0.0,0.0,0.0,-6.1894,-6.1953,-6.2012,-6.2246,-6.248,-6.2637,-6.2637,-6.3047,-6.3672,0.0,0.0,0.0,0.0,0.0,0.0,0.0,-3.864,-3.8798,-3.9272,-3.9272,-3.943,-3.9745,-3.994,-3.9952,-3.9869,0.0,0.0,0.0,0.0,0.0,0.0,0.0,0.0,0.0,0.0,0.0,-4.3722,-4.4911,-4.5338,-4.503,-4.5764,-4.6308,-4.6308,-4.6308,-4.6328,0.0,0.0,0.0,0.0,0.0,0.0,0.0,0.0,0.0,0.0,0.0,0.0,0.0,0.0,0.0,0.0,0.0,0.0,0.0,0.0,0.0,0.0,0.0,-5.123,-5.1621,-5.207,-5.3125,-5.418,-5.4629,-5.5371,0.0,-5.6465,-5.5898,-5.5488,-5.5898,-5.5664,-5.5527,-5.5957,-5.5644,-5.5664,-5.6543,-5.6699,-5.6855,0.0,0.0,0.0,0.0,0.0,0.0,0.0,0.0,0.0,0.0,0.0,-5.8262,-5.918,-5.9238,-5.9238,-5.9238,-5.9629,-5.9863,-5.9922,-6.0312,-6.0723,-6.1133,-6.1133,0.0,0.0,0.0,0.0,0.0,-6.2187,-6.2363,-6.2363,-6.2363,-6.2656,-6.3086,-6.3086,-6.3398,-6.3867,0.0,0.0,0.0,0.0,0.0,0.0,0.0,0.0,0.0,0.0,-3.9114,-3.9272,-3.943,-3.9729,-3.9954,0.0,0.0,0.0,0.0,0.0,0.0,0.0,0.0,0.0,0.0,0.0,0.0,-4.3652,-4.4185,-4.4777,-4.5453,-4.5373,-4.5431,-4.5783,-4.5783,-4.5956,0.0,0.0,0.0,0.0,0.0,0.0,0.0,0.0,0.0,0.0,-5.0293,-5.0742,0.0,0.0,0.0,0.0,0.0,0.0,0.0,0.0,-5.1102,-5.0923,-5.1454,0.0,-5.2519,-5.2949,-5.3789,-5.4629,0.0,-5.582,-5.6367,-5.6133,-5.5918,-5.5918,-5.6348,-5.6348,-5.6426,-5.6836,-5.6289,-5.6211,-5.7402,-5.7851,-5.7969,-5.7734,0.0,0.0,0.0,0.0,0.0,0.0,0.0,0.0,0.0,0.0,-5.8262,-5.918,-5.9473,-5.9648,-5.9648,-5.9746,-6.0156,-6.0801,-6.0898,-6.1152,-6.1543,-6.1543,0.0,0.0,0.0,0.0,-6.2187,-6.1953,-6.207,-6.2363,-6.2363,-6.2832,-6.3515,-6.3515,-6.4199,-6.5117,0.0,0.0,0.0,0.0,0.0,0.0,0.0,0.0,0.0,0.0,0.0,-3.8956,-3.8956,-3.9326,0.0,0.0,0.0,0.0,0.0,0.0,0.0,0.0,0.0,0.0,0.0,0.0,0.0,0.0,-4.4178,-4.4674,-4.4902,-4.4902,-4.5078,-4.5255,-4.5445,-4.5865,0.0,0.0,0.0,0.0,0.0,0.0,0.0,0.0,0.0,0.0,-4.9505,-4.9796,0.0,-4.9819,-5.0358,-5.0977,0.0,0.0,0.0,0.0,-5.1276,-5.117,-5.1992,-5.2358,-5.2703,-5.3149,-5.4111,-5.5078,-5.5508,-5.6113,-5.6523,-5.6289,-5.6074,-5.6074,-5.6504,-5.6426,-5.6426,-5.6855,-5.6699,-5.6914,-5.8027,-5.8359,-5.8418,-5.8203,0.0,0.0,0.0,0.0,0.0,0.0,0.0,0.0,0.0,-5.8086,-5.8555,-5.9453,-5.9687,-5.9805,-5.9805,-6.0215,-6.0625,-6.1094,-6.1269,-6.1484,-6.1719,-6.1719,-6.1719,0.0,0.0,0.0,-6.207,-6.2246,-6.2461,-6.2695,-6.289,-6.3398,-6.3984,-6.4199,-6.4824,-6.5586,0.0,0.0,0.0,0.0,0.0,0.0,0.0,0.0,0.0,0.0,0.0,0.0,0.0,0.0,0.0,0.0,0.0,0.0,0.0,0.0,0.0,0.0,0.0,0.0,0.0,0.0,-4.2994,-4.3403,-4.4397,-4.4642,-4.4286,-4.4698,-4.4913,-4.4932,-4.5328,-4.5951,0.0,0.0,0.0,0.0,0.0,0.0,0.0,0.0,0.0,0.0,0.0,0.0,0.0,-4.85,-4.9166,-5.0144,-5.028,0.0,0.0,0.0,0.0,0.0,-5.2063,-5.2265,-5.2482,-5.3038,-5.4143,-5.522,-5.5706,-5.6115,-5.6368,-5.6582,-5.6289,-5.5959,-5.6387,-5.6387,-5.6269,-5.6485,-5.6913,-5.738,-5.7925,-5.834,-5.8418,-5.8359,0.0,0.0,0.0,0.0,0.0,0.0,0.0,0.0,0.0,-5.8379,-5.9004,-5.9863,-5.998,-5.998,-5.998,-6.0742,-6.1133,-6.1191,-6.1543,-6.1719,-6.1719,-6.1719,-6.1719,0.0,0.0,0.0,-6.1992,-6.2734,-6.3105,-6.3262,-6.3633,-6.4082,-6.4551,-6.4883,-6.5351,-6.582,0.0,0.0,0.0,0.0,0.0,0.0,0.0,0.0,0.0,0.0,0.0,0.0,0.0,0.0,0.0,0.0,0.0,0.0,0.0,0.0,0.0,0.0,0.0,0.0,0.0,0.0,-4.2647,-4.3033,-4.3807,-4.4355,-4.4715,-4.4688,-4.4854,-4.5418,-4.5298,-4.5742,-4.6597,-4.7608,0.0,0.0,0.0,0.0,0.0,0.0,0.0,0.0,0.0,0.0,0.0,-4.8038,-4.8982,-5.0318,-4.9473,0.0,0.0,0.0,0.0,0.0,-5.1425,-5.1444,-5.1593,-5.314,-5.3939,-5.4667,-5.5436,-5.5471,-5.5529,-5.6368,-5.6096,-5.5978,-5.6403,-5.6638,-5.6716,-5.6287,-5.6927,-5.731,0.0,0.0,-5.7851,0.0,0.0,0.0,0.0,0.0,0.0,0.0,0.0,0.0,0.0,0.0,-5.9473,-6.0312,-6.0683,-6.0898,-6.0898,-6.1035,-6.1269,-6.1601,-6.166,-6.1719,-6.1719,-6.1719,-6.1719,0.0,0.0,-6.2187,-6.2851,-6.2969,-6.3437,-6.414,-6.4199,-6.4707,-6.541,-6.5469,-6.5996,-6.6699,0.0,0.0,0.0,0.0,0.0,0.0,0.0,0.0,0.0,0.0,0.0,0.0,0.0,0.0,0.0,0.0,0.0,0.0,0.0,0.0,0.0,0.0,0.0,0.0,0.0,-4.2399,-4.2894,-4.3518,-4.3903,-4.4377,-4.4762,-4.4764,-4.4985,-4.5391,-4.539,-4.5703,-4.6315,-4.7128,0.0,0.0,0.0,0.0,0.0,0.0,0.0,0.0,0.0,0.0,0.0,0.0,-4.8192,-4.9348,-4.922,0.0,0.0,0.0,0.0,0.0,-5.0601,-5.1181,-5.1723,-5.2282,-5.2893,-5.3653,-5.4703,-5.4736,-5.4813,-5.5471,-5.5874,-5.6096,-5.6535,-5.6448,-5.6199,-5.5734,0.0,0.0,0.0,0.0,0.0,0.0,0.0,0.0,0.0,0.0,0.0,0.0,0.0,0.0,0.0,0.0,-5.8975,-6.0282,-6.0515,-6.0728,-6.1426,-6.1426,-6.1543,-6.1719,-6.1719,-6.1719,-6.1719,-6.1719,-6.1719,-6.1719,0.0,-6.2637,-6.3086,-6.3555,-6.4082,-6.4668,-6.4902,-6.5371,-6.5937,-6.6172,-6.6523,-6.6816,0.0,0.0,0.0,0.0,0.0,0.0,0.0,0.0,0.0,0.0,0.0,0.0,0.0,0.0,0.0,0.0,0.0,0.0,0.0,0.0,0.0,0.0,0.0,0.0,0.0,-4.2711,-4.3261,-4.4086,-4.4178,-4.4526,-4.5095,-4.5003,-4.5187,-4.5572,-4.5572,-4.5737,-4.6085,-4.6892,-4.7379,0.0,0.0,0.0,0.0,0.0,0.0,0.0,0.0,0.0,0.0,0.0,0.0,0.0,0.0,0.0,0.0,-5.0028,-5.0413,-5.0651,-5.0358,-5.0914,-5.164,-5.1403,-5.2133,-5.2874,-5.393,-5.4251,-5.4458,-5.5204,-5.5791,-5.6137,-5.6458,-5.5835,-5.5163,-5.5647,0.0,0.0,0.0,0.0,0.0,0.0,0.0,0.0,0.0,0.0,0.0,0.0,0.0,0.0,0.0,0.0,-5.8843,-6.0245,-6.0032,-6.0437,-6.1466,-6.1232,-6.1232,-6.1466,-6.1466,-6.1466,-6.1466,-6.1583,-6.1621,-6.1894,-6.2812,-6.3262,-6.3379,-6.4015,-6.4598,-6.5293,-6.5455,-6.6074,-6.6406,-6.6758,-6.6816,-6.668,0.0,0.0,0.0,0.0,0.0,0.0,0.0,0.0,0.0,0.0,0.0,0.0,0.0,0.0,0.0,0.0,0.0,0.0,0.0,0.0,0.0,0.0,0.0,0.0,0.0,-4.2858,-4.3261,-4.4086,-4.4453,-4.5223,-4.6342,-4.5975,-4.6012,-4.6397,-4.6397,-4.6415,-4.6489,-4.7314,-4.7442,-4.713,-4.7516,0.0,0.0,0.0,0.0,0.0,0.0,0.0,0.0,0.0,0.0,0.0,0.0,0.0,-5.0101,-5.012,-5.0413,-5.0706,-5.0688,-5.0725,-5.0945,-5.1697,-5.2564,-5.3382,-5.3867,-5.3803,-5.4321,-5.6231,-5.6178,-5.5768,-5.5824,-5.4709,-5.4321,-5.6141,0.0,0.0,0.0,0.0,0.0,0.0,0.0,0.0,0.0,0.0,0.0,0.0,0.0,0.0,0.0,0.0,0.0,-6.0706,-6.0041,-6.0041,-6.0783,-6.0295,-6.0295,-6.0783,-6.0783,-6.0783,-6.0783,-6.1187,-6.1872,-6.2363,-6.3281,-6.3848,-6.4297,-6.4397,-6.5245,-6.6191,-6.5864,-6.6291,-6.6816,-6.6875,-6.6621,-6.6269,0.0,0.0,0.0,0.0,0.0,0.0,0.0,0.0,0.0,0.0,0.0,0.0,0.0,0.0,0.0,0.0,0.0,0.0,0.0,0.0,0.0,0.0,0.0,-4.2986,-4.3261,-4.3499,-4.3903,-4.4453,-4.5113,-4.5792,-4.647,-4.6085,-4.6103,-4.647,-4.6213,-4.625,-4.6507,-4.68,-4.7002,-4.7094,-4.6984,-4.6745,0.0,0.0,0.0,0.0,0.0,0.0,0.0,0.0,-4.7827,-4.8377,-4.8891,-4.9368,-4.9735,-4.9735,-5.0211,-5.067,-5.0413,-5.0706,-5.122,-5.1788,-5.2627,-5.3304,-5.2995,-5.329,-5.364,-5.4191,-5.4654,-5.4855,-5.5076,-5.4906,-5.4778,-5.4708,0.0,0.0,0.0,0.0,0.0,0.0,0.0,0.0,0.0,0.0,0.0,0.0,0.0,0.0,0.0,0.0,0.0,-5.9608,-5.9372,-5.9589,-6.0079,-5.9844,-5.9844,-5.9608,-6.0098,-6.0098,-6.0333,-6.1258,-6.206,-6.2376,-6.3723,-6.4462,-6.4397,-6.4746,-6.4994,-6.5358,-6.5785,-6.6388,-6.6875,-6.6875,-6.6582,-6.6191,0.0,0.0,0.0,0.0,0.0,0.0,0.0,0.0,0.0,0.0,0.0,0.0,0.0,0.0,0.0,0.0,0.0,0.0,0.0,0.0,0.0,0.0,0.0,-4.3133,-4.3664,-4.4068,-4.4398,-4.4673,-4.5608,-4.6287,-4.6672,-4.6397,-4.6342,-4.647,-4.6342,-4.636,-4.6489,-4.6617,-4.6764,-4.6874,-4.6599,-4.6397,0.0,0.0,0.0,0.0,0.0,0.0,0.0,0.0,-4.8066,-4.8414,-4.9093,-4.9404,-4.9533,-4.9661,-5.0193,-5.0688,-5.0541,-5.1,-5.1642,-5.2174,-5.2907,-5.3366,-5.2834,-5.3017,-5.3329,-5.3329,-5.3952,-5.4704,-5.5199,-5.5346,0.0,0.0,0.0,0.0,0.0,0.0,0.0,0.0,0.0,0.0,0.0,0.0,0.0,0.0,0.0,0.0,0.0,0.0,0.0,0.0,-5.8681,-5.8918,-5.9391,-5.9391,-5.9192,-5.8867,-5.9104,-5.956,-5.9853,-6.1315,-6.1994,-6.2293,-6.4049,-6.4515,-6.4592,-6.4723,-6.4597,-6.4569,-6.5334,-6.5842,-6.6115,-6.6115,-6.5768,-6.5227,0.0,0.0,0.0,0.0,0.0,0.0,0.0,0.0,0.0,0.0,0.0,0.0,0.0,0.0,0.0,0.0,0.0,0.0,-4.2234,-4.1922,-4.2051,-4.2839,-4.2876,-4.3261,-4.4068,-4.4471,-4.4673,-4.4691,-4.5883,-4.669,-4.7112,-4.7094,-4.6874,0.0,0.0,0.0,-4.6507,-4.6929,-4.6855,-4.6489,-4.6489,-4.625,-4.5938,0.0,0.0,0.0,0.0,0.0,0.0,0.0,-4.8286,-4.8359,-4.8781,-4.9184,-4.9588,-5.001,-5.0413,-5.0798,-5.1202,-5.1605,-5.2119,-5.2907,-5.3696,-5.4117,-5.3274,-5.3439,-5.3751,-5.3751,-5.4374,-5.5181,-5.6006,-5.5456,0.0,0.0,0.0,0.0,0.0,0.0,0.0,0.0,0.0,0.0,0.0,0.0,0.0,0.0,0.0,0.0,0.0,0.0,0.0,0.0,-5.8425,-5.8188,-5.8899,-5.8188,-5.817,-5.8555,-5.8555,-5.8832,-5.9552,-6.0819,-6.1852,-6.2438,-6.3688,-6.4237,-6.4275,-6.3908,-6.3801,-6.382,-6.4569,-6.4843,-6.4843,-6.4843,-6.4294,-6.3593,0.0,0.0,0.0,0.0,0.0,0.0,0.0,0.0,0.0,0.0,0.0,0.0,0.0,0.0,0.0,0.0,0.0,0.0,-4.3078,-4.2747,-4.2876,-4.3683,-4.3719,-4.3958,-4.449,-4.4911,-4.5388,-4.5938,-4.603,-4.6562,-4.7497,-4.6654,0.0,-4.7295,0.0,0.0,-4.691,-4.6727,-4.6764,-4.691,-4.691,-4.6855,-4.6764,0.0,0.0,0.0,0.0,0.0,0.0,0.0,0.0,0.0,-4.9111,-4.9404,-4.9643,-5.034,-5.0633,-5.0872,-5.1568,-5.1422,-5.1403,-5.2779,-5.3274,-5.3329,-5.2815,-5.3476,-5.4062,-5.3806,-5.4374,-5.4979,-5.5236,-5.4869,0.0,0.0,0.0,0.0,0.0,0.0,0.0,0.0,0.0,0.0,0.0,0.0,0.0,0.0,0.0,0.0,0.0,0.0,0.0,0.0,-5.7912,-5.7912,-5.8169,-5.8262,-5.8445,-5.8592,-5.9454,-5.9692,-5.9679,-6.1113,-6.2186,-6.256,-6.3984,-6.4399,-6.3908,-6.3251,-6.3306,-6.3745,-6.3739,-6.4088,-6.4786,-6.418,-6.3802,-6.3555,0.0,0.0,0.0,0.0,0.0,0.0,0.0,0.0,-4.3114,-4.3114,-4.3114,-4.3206,0.0,0.0,0.0,-4.3463,-4.2747,0.0,-4.3206,-4.2858,-4.3004,-4.3811,-4.3848,-4.4105,-4.4655,-4.5242,-4.5773,-4.625,-4.6158,-4.658,-4.7442,-4.6709,0.0,-4.7185,0.0,-4.68,-4.7094,-4.7002,-4.7112,-4.7332,-4.7167,-4.7112,-4.713,0.0,0.0,0.0,0.0,0.0,0.0,0.0,0.0,0.0,-4.9239,-4.9386,-4.9459,-5.0431,-5.0615,-5.0688,-5.1678,-5.1458,-5.1348,-5.2962,-5.3366,-5.3329,-5.3274,-5.3439,-5.3696,-5.3916,-5.4228,-5.4503,-5.4649,-5.4484,0.0,0.0,0.0,0.0,0.0,0.0,0.0,0.0,0.0,0.0,0.0,0.0,0.0,0.0,0.0,0.0,0.0,0.0,0.0,0.0,-5.7639,-5.7749,-5.7969,-5.8335,-5.872,-5.9069,-5.9986,-6.0518,-6.0774,-6.1716,-6.2086,-6.2616,-6.354,-6.3838,-6.3306,-6.3049,-6.3068,-6.3269,-6.2844,-6.3118,-6.3739,-6.3084,-6.2747,-6.2579,0.0,0.0,0.0,0.0,0.0,0.0,0.0,-4.3499,-4.3499,-4.3499,-4.3499,-4.3499,0.0,0.0,0.0,-4.3463,-4.2821,-4.2546,-4.2894,-4.2582,-4.2747,-4.3573,-4.3646,-4.3976,-4.4655,-4.5407,-4.5792,-4.5828,-4.6232,-4.6672,-4.7167,0.0,-4.691,-4.6672,0.0,-4.7461,-4.7185,-4.7552,-4.7699,-4.7662,-4.7351,-4.7222,-4.7259,-4.7607,0.0,0.0,0.0,0.0,0.0,0.0,0.0,0.0,-4.9258,-4.9258,-4.9203,-5.0413,-5.0486,-5.045,-5.166,-5.166,-5.1678,-5.3256,-5.3641,-5.3751,-5.4172,-5.3384,-5.2889,-5.4007,0.0,-5.3842,-5.4172,0.0,0.0,0.0,0.0,0.0,0.0,0.0,0.0,0.0,0.0,0.0,0.0,0.0,0.0,0.0,0.0,0.0,0.0,0.0,0.0,-5.7382,-5.7749,-5.7969,-5.8024,-5.839,-5.9032,-5.9821,-6.0298,-6.1086,-6.2205,-6.2205,-6.2205,-6.226,-6.2645,-6.2792,-6.2792,-6.2792,-6.2792,-6.27,-6.2315,-6.215,-6.2095,-6.1636,-6.1251,-6.0994,0.0,0.0,0.0,0.0,0.0,0.0,-4.3499,-4.3499,-4.3499,-4.3499,-4.3499,-4.3499,-4.3499,-4.3408,0.0,-4.3481,-4.3334,-4.3261,-4.3353,-4.3279,-4.3591,-4.438,-4.4728,-4.4838,-4.4673,-4.4838,-4.5095,-4.5425,-4.5828,-4.6544,-4.7552,0.0,0.0,-4.7882,0.0,-4.7351,-4.7571,-4.7662,-4.7699,-4.7717,-4.7937,-4.8029,-4.8029,-4.8121,-4.8157,0.0,0.0,0.0,0.0,0.0,0.0,0.0,-4.9349,-4.9441,-4.9606,-5.0817,-5.0908,-5.0853,-5.2064,-5.1862,-5.155,-5.254,-5.2779,-5.298,-5.3696,-5.3421,-5.3054,-5.3329,-5.3586,0.0,0.0,0.0,0.0,0.0,0.0,0.0,0.0,0.0,0.0,0.0,0.0,0.0,0.0,0.0,0.0,0.0,0.0,0.0,0.0,0.0,0.0,-5.7382,-5.7473,-5.7804,-5.8445,-5.8867,-5.9454,0.0,-6.0994,-6.1636,-6.2205,-6.2205,-6.237,-6.2682,-6.2737,-6.2792,-6.2792,-6.2792,-6.2627,-6.2315,-6.1893,-6.1728,-6.1636,-6.0939,-6.0774,-6.0939,0.0,0.0,0.0,0.0,0.0,0.0,0.0,0.0,-4.3701,-4.3518,-4.3499,-4.3499,-4.3499,-4.3499,0.0,0.0,-4.3499,-4.3499,-4.3499,-4.3499,-4.3848,-4.4636,-4.526,-4.5297,-4.4691,-4.4875,-4.4985,-4.5003,-4.5407,-4.6122,0.0,0.0,0.0,-4.7717,0.0,-4.7497,-4.7699,-4.7901,-4.7974,-4.7992,-4.8212,-4.8286,-4.8286,-4.8286,-4.8286,-4.8286,-4.8286,0.0,0.0,0.0,0.0,0.0,0.0,0.0,-4.9973,-5.078,-5.1018,-5.1183,-5.2027,-5.1788,-5.1458,-5.2082,-5.2687,-5.3164,-5.3384,-5.3421,-5.3366,-5.3164,0.0,0.0,0.0,0.0,0.0,0.0,0.0,0.0,0.0,0.0,0.0,0.0,0.0,0.0,0.0,0.0,0.0,0.0,0.0,0.0,0.0,-5.6648,-5.696,-5.7382,-5.7382,-5.7749,-5.8592,-5.9179,-5.9876,-6.0683,-6.1508,-6.2095,-6.248,-6.2315,-6.2425,-6.2792,-6.237,-6.2315,-6.248,-6.2315,-6.2095,-6.1838,-6.1471,-6.1306,-6.1215,-6.0609,-6.0518,-6.0664,0.0,0.0,0.0,0.0,0.0,0.0,0.0,0.0,0.0,-4.3536,-4.3124,-4.3124,-4.3499,-4.3499,-4.3463,0.0,0.0,0.0,-4.3389,-4.3573,-4.3958,-4.4545,-4.5352,-4.5443,-4.4691,-4.4948,-4.4985,-4.4783,-4.4985,-4.5498,0.0,0.0,0.0,-4.7222,-4.7626,-4.7791,-4.7827,-4.8139,-4.8286,-4.8286,-4.8286,-4.8286,-4.8286,-4.8286,-4.8322,-4.8377,-4.8304,-4.8322,-4.8451,-4.8799,0.0,0.0,0.0,0.0,-5.0303,-5.0615,-5.1055,-5.1477,-5.1752,-5.1623,-5.1458,-5.1678,-5.2632,-5.3421,-5.2999,-5.3274,-5.3531,-5.3274,0.0,0.0,0.0,0.0,0.0,0.0,0.0,0.0,0.0,0.0,0.0,0.0,0.0,0.0,0.0,0.0,0.0,0.0,0.0,0.0,-5.6061,-5.6483,-5.6905,-5.7272,-5.7473,-5.7969,-5.8812,-5.9509,-6.0298,-6.1196,-6.1948,-6.2425,-6.2682,-6.226,-6.2315,-6.2645,-6.1893,-6.1783,-6.2058,-6.1728,-6.1526,-6.1416,-6.1105,-6.0939,-6.0829,-6.0518,-6.0408,-6.0408,0.0,0.0,0.0,0.0,0.0,0.0,0.0,0.0,0.0,0.0,-4.2012,-4.1634,-4.3303,-4.3499,-4.3353,-4.2986,-4.3279,-4.3334,-4.2968,0.0,0.0,-4.4178,-4.4948,-4.515,-4.4673,-4.4398,-4.4563,-4.5223,-4.4563,-4.4655,0.0,0.0,0.0,-4.7644,0.0,-4.8212,-4.8212,-4.8267,-4.8286,-4.8286,-4.8286,-4.8286,-4.8286,-4.8286,-4.8506,-4.8781,-4.8414,-4.8524,-4.8836,-4.8891,-4.9129,0.0,0.0,0.0,-5.0651,-5.0706,-5.1257,-5.1788,-5.1477,-5.1623,-5.1697,-5.1037,-5.1788,-5.2577,-5.2192,-5.2669,-5.3274,0.0,0.0,0.0,0.0,0.0,0.0,0.0,0.0,0.0,0.0,0.0,0.0,0.0,0.0,0.0,0.0,0.0,0.0,0.0,0.0,0.0,-5.5658,-5.6355,-5.6758,-5.685,-5.7859,-5.8812,-5.9619,-6.0078,-6.0884,-6.2058,-6.248,-6.2572,-6.226,-6.1838,-6.1893,-6.226,-6.1783,-6.1618,-6.1673,-6.1581,-6.1361,-6.105,-6.0994,-6.0774,-6.0463,-6.0408,-6.0408,-6.0408,0.0,0.0,0.0,0.0,0.0,0.0,0.0,0.0,0.0,0.0,0.0,-4.1273,-4.3303,-4.3499,-4.3334,-4.2894,-4.3261,-4.3408,-4.3224,-4.3921,-4.4361,-4.4416,-4.4985,-4.5095,-4.4673,-4.4728,-4.482,-4.4948,-4.4581,-4.471,0.0,-4.6067,-4.6635,0.0,0.0,0.0,-4.8286,-4.8286,-4.8286,-4.8286,-4.8286,-4.7473,-4.6676,-4.8144,-4.7924,-4.7243,-4.8526,-4.9093,-4.9276,-4.9514,-4.9716,-4.9936,-5.034,0.0,0.0,0.0,-5.1605,-5.2504,-5.21,-5.1972,-5.1788,-5.1202,-5.1788,-5.243,-5.2027,-5.254,-5.3219,0.0,0.0,0.0,0.0,0.0,0.0,0.0,0.0,0.0,0.0,0.0,0.0,0.0,0.0,0.0,0.0,0.0,0.0,0.0,0.0,-5.5933,-5.6208,-5.6373,-5.674,-5.7382,-5.7969,-5.8757,-5.9766,-6.0408,-6.1361,-6.2535,-6.248,-6.237,-6.2205,-6.1526,-6.1471,-6.1838,-6.1196,-6.105,-6.1251,-6.0994,-6.0829,-6.0664,-6.0664,-6.0554,-6.0408,-6.0408,-6.0408,-6.0444,0.0,0.0,0.0,0.0,0.0,0.0,0.0,0.0,0.0,0.0,0.0,-3.9889,-4.1832,0.0,0.0,0.0,-4.2887,-4.3499,-4.3499,-4.3488,-4.3687,-4.4655,-4.5077,-4.5205,-4.4985,-4.5187,-4.5205,-4.4985,-4.4765,-4.4893,-4.5315,-4.57,-4.6103,0.0,-4.7332,0.0,0.0,0.0,0.0,-4.8286,-4.7781,-4.6599,-4.519,-4.6715,-4.6264,-4.5106,-4.6863,-4.813,-4.8862,0.0,-4.9835,-5.0486,-5.078,-5.1367,0.0,0.0,0.0,-5.2779,-5.2577,-5.2394,-5.2119,-5.1605,-5.2229,-5.2852,-5.2357,0.0,0.0,0.0,0.0,0.0,0.0,0.0,0.0,0.0,0.0,0.0,0.0,0.0,0.0,0.0,0.0,0.0,0.0,0.0,0.0,0.0,0.0,-5.5988,-5.6575,-5.6538,-5.6905,-5.7914,-5.828,-5.8977,-6.0078,-6.0994,-6.1893,-6.2792,-6.2407,-6.215,-6.2003,-6.1306,-6.1105,-6.1251,-6.0664,-6.0554,-6.0829,-6.0518,-6.0408,-6.0408,-6.0408,-6.0408,-6.0408,-6.0408,-6.0463,-6.0609,0.0,0.0,0.0,0.0,0.0,0.0,0.0,0.0,0.0,0.0,0.0,-3.6088,-3.7807,-3.9606,-4.0541,-4.0146,-4.2139,-4.3499,-4.3499,-4.2167,-4.2372,-4.4655,-4.5077,0.0,-4.5828,-4.548,-4.548,-4.5828,-4.5058,0.0,-4.5315,-4.57,-4.6103,-4.6507,-4.7332,-4.7919,-4.8286,0.0,0.0,0.0,-4.6443,-4.5549,-4.5346,-4.3312,-4.2693,-4.2884,-4.2246,-4.4111,0.0,0.0,0.0,0.0,-5.1275,-5.1587,-5.1843,0.0,0.0,0.0,-5.243,-5.2779,-5.287,-5.21,-5.3091,-5.4026,-5.3219,0.0,0.0,0.0,0.0,0.0,0.0,0.0,0.0,0.0,0.0,0.0,0.0,0.0,0.0,0.0,0.0,0.0,0.0,0.0,0.0,0.0,0.0,-5.6153,-5.6208,-5.6905,-5.7528,-5.7969,-5.9087,-6.0096,-6.0939,-6.2113,-6.2737,-6.2792,-6.2407,-6.2003,-6.1581,-6.1196,-6.0774,-6.0463,-6.0408,-6.0408,-6.0444,-6.0408,-6.0408,-6.0408,-6.0408,-6.0408,-6.0408,-6.0408,-6.0628,-6.0939,0.0,0.0,0.0,0.0,0.0,0.0,0.0,0.0,0.0,0.0,0.0,0.0,0.0,-3.8804,-3.8949,-3.8347,-4.0027,-4.1353,-4.1616,-4.1015,-4.0811,-4.0848,-4.2138,-4.3164,-4.3568,-4.3691,-4.3691,-4.3586,-4.1953,-4.123,-4.1599,-4.3106,-4.4271,-4.4887,-4.6839,-4.7919,-4.8286,-4.8286,0.0,0.0,0.0,0.0,-4.3653,-4.2821,-4.1853,0.0,0.0,0.0,0.0,0.0,0.0,0.0,0.0,-5.0669,-5.0378,-5.2309,-5.243,-5.2137,-5.3054,-5.2834,-5.2357,-5.232,-5.3146,-5.3806,-5.3219,-5.4062,0.0,0.0,0.0,0.0,0.0,0.0,0.0,0.0,0.0,0.0,0.0,0.0,0.0,0.0,0.0,0.0,0.0,0.0,0.0,0.0,0.0,0.0,-5.6538,-5.707,-5.7547,-5.7969,-5.9142,-6.0408,-6.1783,-6.248,-6.2682,-6.2425,-6.2003,-6.1581,-6.1196,-6.0774,-6.0518,-6.0408,-6.0408,-6.0408,-6.0408,-6.0408,-6.0408,-6.0408,-6.0408,-6.0408,-6.0444,-6.0664,-6.0884,-6.105,0.0,0.0,0.0,0.0,0.0,0.0,0.0,0.0,0.0,0.0,0.0,0.0,0.0,0.0,-3.7383,-3.7597,-3.8191,-3.8775,-3.9774,-3.9221,-3.874,-3.8751,-4.0109,-4.1046,-4.1448,-4.1682,-4.1749,-4.144,-4.0078,-3.9657,0.0,-4.1505,-4.2799,-4.4094,-4.5084,-4.6211,0.0,0.0,0.0,-4.6432,0.0,0.0,-4.1695,0.0,0.0,0.0,0.0,0.0,0.0,0.0,0.0,0.0,0.0,-4.9196,-4.9451,-5.1755,-5.1725,-5.135,-5.2214,-5.1908,-5.1495,-5.2635,-5.3439,-5.3952,-5.3916,-5.4649,0.0,0.0,0.0,0.0,0.0,0.0,0.0,0.0,0.0,0.0,0.0,0.0,0.0,0.0,0.0,0.0,0.0,0.0,0.0,0.0,0.0,0.0,-5.674,-5.7272,-5.7859,-5.8555,-5.9619,-6.0829,-6.2205,-6.259,-6.259,-6.2205,-6.1783,-6.1361,-6.0994,-6.0573,-6.0408,-6.0408,-6.0408,-6.0408,-6.0408,-6.0408,-6.0408,-6.0408,-6.0408,-6.0499,-6.0609,-6.0884,-6.116,-6.1471,0.0,0.0,0.0,0.0,0.0,0.0,0.0,0.0,0.0,0.0,0.0,0.0,0.0,0.0,0.0,-3.7726,-3.6351,-3.634,-3.8245,-3.6531,-3.6489,-3.8733,-3.8941,-3.9114,-3.9673,-3.9689,-3.9652,-3.9984,-4.0,-3.9976,-4.0322,0.0,-4.2237,-4.4089,-4.2425,-4.2791,-4.4817,0.0,-4.3819,-4.2118,0.0,-3.9412,-3.9487,0.0,0.0,0.0,-3.6286,-3.8138,0.0,0.0,0.0,0.0,0.0,-4.6928,-4.93,-4.93,-4.9779,-4.9984,0.0,0.0,0.0,-5.3052,-5.3822,-5.4297,-5.5101,0.0,0.0,0.0,0.0,0.0,0.0,0.0,0.0,0.0,0.0,0.0,0.0,0.0,0.0,0.0,0.0,0.0,0.0,0.0,0.0,0.0,0.0,-5.6758,-5.6758,-5.7547,-5.85,-5.9729,-6.0554,-6.1361,-6.2205,-6.259,-6.259,-6.2205,-6.1783,-6.1361,-6.0939,-6.0573,-6.0408,-6.0408,-6.0408,-6.0408,-6.0408,-6.0408,-6.0408,-6.0408,-6.0408,-6.0664,-6.0994,-6.1031,-6.1526,-6.2205,0.0,0.0,0.0,0.0,0.0,-3.4068,-3.4068,-3.3895,0.0,0.0,0.0,0.0,0.0,0.0,0.0,-3.6371,-3.5853,-3.578,-3.634,-3.5765,-3.5348,-3.4703,-3.607,-3.6998,-3.7326,-3.7566,-3.7745,-3.7835,-3.6478,-3.6153,-3.6463,-3.8148,-3.9321,0.0,-4.1565,-4.1499,-4.067,-4.2326,0.0,0.0,-4.0765,-3.9965,0.0,0.0,0.0,0.0,0.0,-3.7113,0.0,0.0,-4.0207,-4.0505,0.0,-4.4859,-4.6863,-4.7139,-4.709,-4.7492,-4.974,0.0,0.0,0.0,0.0,0.0,0.0,0.0,0.0,0.0,0.0,0.0,0.0,0.0,0.0,0.0,0.0,0.0,0.0,0.0,0.0,0.0,0.0,0.0,0.0,0.0,0.0,0.0,-5.663,-5.6905,-5.718,-5.7694,-5.85,-5.9729,-5.9986,-6.0774,-6.2205,-6.2315,-6.215,-6.1746,-6.1636,-6.1215,-6.0554,-6.0463,-6.0408,-6.0408,-6.0408,-6.0408,-6.0408,-6.0408,-6.0408,-6.0444,-6.0719,-6.0884,-6.105,-6.1673,-6.2003,-6.226,0.0,0.0,-3.4122,-3.4295,-3.4215,-3.4135,-3.4135,-3.3881,-3.3748,0.0,0.0,0.0,0.0,0.0,0.0,0.0,-3.4984,-3.4984,-3.4858,-3.4844,-3.428,-3.316,-3.446,-3.521,-3.5379,-3.5688,-3.5914,-3.6054,-3.502,-3.4656,-3.495,-3.6163,-3.7538,-3.866,-3.9152,-3.9105,-3.9143,0.0,0.0,0.0,-3.8981,0.0,0.0,-3.7748,-3.7235,0.0,0.0,0.0,0.0,-3.8486,-3.8513,0.0,0.0,0.0,-4.4597,-4.501,-4.4812,-4.5285,-4.6892,-4.5985,-4.5295,-4.816,0.0,0.0,0.0,0.0,0.0,0.0,0.0,0.0,0.0,0.0,0.0,0.0,0.0,0.0,0.0,0.0,0.0,0.0,0.0,0.0,0.0,0.0,0.0,-5.696,-5.7327,-5.7694,-5.8115,-5.8335,-5.8867,-5.9729,-5.9931,-6.0664,-6.1948,-6.1948,-6.1838,-6.1581,-6.1416,-6.0994,-6.0408,-6.0408,-6.0408,-6.0408,-6.0408,-6.0408,-6.0408,-6.0408,-6.0499,-6.0664,-6.0884,-6.1196,-6.1563,-6.204,-6.2315,-6.248,0.0,0.0,-3.4336,-3.4362,-3.4135,-3.3935,-3.3935,-3.3668,-3.3494,0.0,0.0,0.0,0.0,0.0,0.0,0.0,-3.4015,-3.4215,-3.3948,-3.3935,-3.3814,-3.3521,-3.3788,-3.3935,-3.3935,-3.4215,-3.4496,-3.4763,0.0,0.0,0.0,0.0,0.0,-3.8474,-3.6197,-3.6615,-3.8811,-3.7305,0.0,-3.6513,-3.662,-3.6914,0.0,0.0,-3.7555,0.0,-3.7742,-3.7742,-3.7676,-3.7448,0.0,0.0,0.0,0.0,0.0,-4.2541,-4.2745,-4.292,-4.2933,-4.26,-4.3121,-4.5981,-4.6001,0.0,0.0,0.0,0.0,0.0,0.0,0.0,0.0,0.0,0.0,0.0,0.0,0.0,0.0,0.0,0.0,0.0,0.0,0.0,0.0,-5.7015,-5.7437,-5.7583,-5.8225,-5.8812,-5.9179,-5.9179,-5.9344,-5.9766,-6.0133,-6.0719,-6.1581,-6.1526,-6.1526,-6.1581,-6.1196,-6.0774,-6.0408,-6.0408,-6.0408,-6.0408,-6.0408,-6.0408,-6.0408,-6.0463,-6.0664,-6.0994,-6.105,-6.1526,-6.2205,-6.226,-6.248,-6.2792,-3.4148,-3.4282,-3.4389,-3.4629,-3.4429,-3.4242,-3.4242,-3.3988,-3.3961,0.0,0.0,0.0,0.0,0.0,0.0,0.0,-3.4255,-3.4295,-3.4242,-3.4242,-3.4202,-3.4148,-3.4202,-3.4242,-3.4242,-3.4523,-3.471,-3.4763,0.0,0.0,0.0,0.0,0.0,0.0,-3.5926,-3.6168,-3.6747,0.0,0.0,-3.658,-3.7275,0.0,0.0,-3.7555,-3.7489,-3.7155,-3.7382,-3.7301,-3.7128,0.0,-3.7569,-3.7903,0.0,0.0,0.0,0.0,0.0,-4.0123,-4.2614,-4.1638,-4.0605,-4.3445,0.0,0.0,0.0,0.0,0.0,0.0,0.0,0.0,0.0,0.0,0.0,0.0,0.0,0.0,0.0,0.0,0.0,0.0,0.0,0.0,0.0,-5.7657,-5.7804,-5.8757,-5.8977,-5.9087,-5.9179,-5.9179,-5.9344,-5.9766,-5.9876,-6.0463,-6.1581,-6.1251,-6.1251,-6.1581,-6.1196,-6.0774,-6.0408,-6.0408,-6.0408,-6.0408,-6.0408,-6.0408,-6.0408,-6.0719,-6.0939,-6.1031,-6.1361,-6.1783,-6.226,-6.2572,-6.2737,-6.2792,-3.4509,-3.4656,-3.4803,-3.495,-3.4616,-3.4376,-3.4523,-3.4295,-3.4215,0.0,0.0,0.0,0.0,0.0,0.0,0.0,0.0,-3.4696,-3.4549,-3.4536,-3.4469,-3.4322,-3.4456,-3.4616,-3.475,-3.5044,-3.5191,-3.5191,-3.5485,0.0,0.0,0.0,0.0,0.0,-3.5939,-3.6313,0.0,0.0,-3.7301,-3.7195,-3.7489,0.0,-3.6981,-3.7422,-3.7422,-3.7235,-3.7676,-3.7635,-3.7448,-3.7889,-3.7956,0.0,0.0,-3.8584,-3.8718,0.0,-3.8825,-3.9218,0.0,-4.0192,-3.9474,-4.1145,0.0,0.0,0.0,0.0,0.0,0.0,0.0,0.0,0.0,0.0,0.0,0.0,0.0,0.0,0.0,0.0,0.0,0.0,0.0,0.0,0.0,-5.4043,-5.4906,-5.7369,-5.7635,-5.8271,-5.9802,-5.8716,-5.8788,-6.0078,-5.8967,-5.938,-6.1251,-5.9578,-5.9596,-6.127,-6.0884,-6.0609,-6.0408,-6.0408,-6.0408,-6.0408,-6.0408,-6.0408,-6.0444,-6.0829,-6.1105,-6.1306,-6.1728,-6.215,-6.2535,-6.2737,-6.2792,-6.2792,-3.491,-3.499,-3.511,-3.511,-3.467,-3.4402,-3.4643,-3.4469,-3.4336,0.0,0.0,0.0,0.0,0.0,0.0,0.0,0.0,-3.5044,-3.4857,-3.4843,-3.471,-3.4416,-3.4683,-3.4923,-3.511,-3.5404,-3.5551,-3.5551,0.0,0.0,0.0,0.0,0.0,0.0,0.0,0.0,0.0,0.0,0.0,-3.7782,0.0,0.0,-3.7155,-3.7489,-3.7569,-3.7529,-3.7996,-3.8076,-3.7969,-3.8464,0.0,-3.8143,-3.8651,-3.8798,0.0,0.0,0.0,0.0,0.0,0.0,0.0,0.0,0.0,-3.8945,0.0,0.0,0.0,0.0,0.0,0.0,0.0,0.0,0.0,0.0,0.0,0.0,0.0,0.0,0.0,0.0,0.0,0.0,0.0,-5.0762,-5.248,-5.4904,-5.6245,-5.7507,-5.8844,-5.7657,-5.7744,-5.9753,-5.7439,-5.7411,-6.0333,-5.7552,-5.7518,-6.0188,-6.0342,-6.0408,-6.0408,-6.0408,-6.0408,-6.0408,-6.0408,-6.0444,-6.0554,-6.0939,-6.1361,-6.1728,-6.2058,-6.2462,-6.2792,-6.2792,-6.2792,-6.2792,-3.5257,-3.4963,-3.4817,-3.4817,-3.4536,-3.4336,-3.4362,-3.4336,-3.4416,0.0,0.0,0.0,0.0,0.0,0.0,0.0,0.0,0.0,-3.5137,0.0,-3.5017,-3.4723,-3.499,-3.5044,-3.4817,-3.5097,-3.5244,-3.5244,-3.5284,-3.5257,0.0,-3.5271,-3.5431,-3.5698,-3.5952,0.0,0.0,0.0,-3.7555,0.0,-3.7782,-3.7742,0.0,-3.8357,-3.825,-3.7782,-3.7849,-3.7996,-3.8223,0.0,-3.8624,-3.9012,0.0,-3.9118,0.0,0.0,0.0,0.0,0.0,0.0,0.0,0.0,-3.9346,0.0,0.0,0.0,0.0,0.0,0.0,0.0,0.0,0.0,0.0,0.0,0.0,0.0,0.0,0.0,0.0,0.0,0.0,0.0,0.0,0.0,-5.3986,-5.2394,-5.6768,-5.7689,-5.3436,-5.5359,-5.6834,-5.7307,-5.4486,-5.4667,-5.7895,-5.6916,-5.6727,-5.7359,-5.9326,-6.0408,-6.0408,-6.0408,-6.0408,-6.0408,-6.0408,-6.0609,-6.0939,-6.1361,-6.1746,-6.215,-6.2205,-6.2462,-6.2792,-6.2792,-6.2792,-6.2792,-3.5458,-3.5217,-3.5017,-3.5017,-3.4776,-3.4629,-3.4803,-3.483,-3.487,0.0,0.0,0.0,0.0,0.0,0.0,0.0,0.0,0.0,0.0,0.0,-3.5217,-3.5271,-3.5551,-3.5725,-3.5778,-3.5725,-3.5698,-3.5698,-3.5698,-3.5525,-3.5204,-3.5712,-3.5925,-3.5912,-3.654,0.0,-3.6981,0.0,0.0,0.0,0.0,0.0,0.0,-3.829,-3.8397,-3.8317,-3.8143,-3.837,-3.8731,0.0,-3.8544,0.0,0.0,0.0,0.0,0.0,0.0,0.0,0.0,0.0,0.0,0.0,0.0,0.0,-3.9306,0.0,-3.964,0.0,0.0,0.0,0.0,0.0,0.0,0.0,-4.0107,0.0,0.0,0.0,0.0,0.0,0.0,0.0,0.0,0.0,0.0,0.0,0.0,-5.2652,-5.2447,-5.2105,-5.2733,-5.4246,-5.1666,-5.1822,-5.4802,-5.2783,-5.3392,-5.6817,-5.7518,-5.8862,-6.0408,-6.0408,-6.0408,-6.0408,-6.0408,-6.0609,-6.1031,-6.1416,-6.1838,-6.2205,-6.248,-6.2645,-6.2792,-6.2792,-6.2792,-6.2792,-3.5591,-3.5391,-3.5191,-3.5191,-3.5017,-3.495,-3.5164,-3.5191,-3.5164,0.0,0.0,0.0,-3.4549,-3.4523,0.0,0.0,0.0,-3.4442,0.0,0.0,-3.5177,0.0,0.0,0.0,0.0,-3.6099,-3.6072,-3.6072,-3.6072,-3.5859,-3.5458,-3.6086,-3.6353,-3.634,0.0,-3.7301,-3.7448,0.0,0.0,-3.7929,-3.8397,-3.8437,-3.8183,-3.825,-3.8437,-3.8691,-3.8477,-3.8731,-3.9078,-3.8651,-3.8731,0.0,-3.8972,0.0,0.0,0.0,0.0,0.0,-3.9813,0.0,0.0,0.0,0.0,0.0,0.0,0.0,0.0,0.0,0.0,0.0,0.0,0.0,-3.9306,-3.9733,0.0,-3.9666,0.0,-4.0174,0.0,0.0,0.0,0.0,0.0,0.0,0.0,0.0,0.0,-4.9064,-5.0321,-4.9338,-4.9644,-5.1531,-4.8888,-4.8947,-5.1794,-4.9405,-5.0245,-5.4338,-5.4854,-5.6555,-5.9378,-5.9378,-5.9627,-6.0389,-5.9753,-5.9721,-6.0135,-6.0514,-6.0929,-6.1308,-6.2406,-6.2792,-6.2792,-6.2792,-6.2792,-6.2792,-3.5631,-3.5391,-3.5191,-3.5191,-3.5191,-3.5191,-3.5191,-3.5191,-3.5097,0.0,0.0,0.0,0.0,0.0,0.0,0.0,0.0,-3.4442,-3.475,0.0,-3.4776,0.0,0.0,0.0,0.0,0.0,-3.6072,-3.6072,-3.6072,-3.6059,-3.6046,-3.6072,-3.638,-3.6901,-3.6941,-3.7595,-3.8611,-3.8063,-3.8317,-3.9052,-3.8504,-3.8611,-3.9052,0.0,-3.8437,-3.8718,-3.8718,0.0,0.0,-3.9118,-3.9346,0.0,0.0,0.0,0.0,0.0,0.0,0.0,0.0,0.0,0.0,-3.9533,0.0,0.0,0.0,0.0,-3.9599,0.0,0.0,0.0,0.0,-3.9372,-3.9159,-3.9185,-3.9412,0.0,0.0,0.0,0.0,0.0,0.0,0.0,0.0,0.0,0.0,0.0,0.0,0.0,-4.49,-4.6989,-4.8684,-4.93,-4.6155,-4.5989,-4.8859,-4.826,-4.8099,-4.8344,-5.1152,-5.3722,-5.652,-5.652,-5.7827,-6.016,-5.7979,-5.7022,-5.7416,-5.781,-5.817,-5.8791,-6.1741,-6.2792,-6.2792,-6.2792,-6.2792,-6.2792,-3.5925,-3.5845,-3.5712,-3.5511,-3.5485,-3.5485,-3.5485,-3.5485,-3.5311,0.0,0.0,0.0,0.0,0.0,-3.4389,0.0,0.0,-3.4442,-3.475,-3.5124,0.0,0.0,0.0,-3.6366,0.0,0.0,-3.6353,-3.6353,-3.6166,-3.6072,-3.6086,-3.6473,-3.6754,-3.6967,0.0,-3.7823,0.0,0.0,0.0,0.0,0.0,-3.8584,-3.8544,0.0,0.0,-3.9239,-3.8865,-3.9265,0.0,-3.9346,-3.9479,-3.9893,-3.9893,-3.9559,-3.9332,-4.0214,-4.0321,0.0,0.0,0.0,-4.0762,-4.0294,0.0,0.0,0.0,0.0,0.0,0.0,0.0,0.0,0.0,-3.9519,-3.9452,-3.9452,-3.9533,-3.9599,0.0,0.0,0.0,0.0,0.0,0.0,0.0,0.0,0.0,0.0,0.0,0.0,0.0,-4.503,-4.5558,-4.5861,-4.4819,-4.486,-4.6279,-4.5517,-4.6402,-4.8391,-4.9196,-5.0911,-5.3468,-5.3468,-5.3993,-5.5007,-5.4371,-5.4184,-5.4559,-5.4917,-5.5291,-5.6129,-5.8808,-5.987,-6.0148,-6.1999,-6.2792,-6.2792,-3.5912,-3.6006,-3.6019,-3.5819,-3.5792,-3.5752,-3.5645,-3.5538,0.0,0.0,-3.483,0.0,0.0,0.0,-3.4643,0.0,-3.4416,-3.4603,-3.4897,-3.5177,0.0,0.0,-3.6326,0.0,0.0,0.0,0.0,-3.6647,-3.6473,-3.6473,-3.6687,-3.6981,-3.7195,-3.7422,0.0,-3.8183,0.0,0.0,-3.8651,0.0,0.0,-3.8544,0.0,0.0,-3.8691,-3.9239,0.0,-3.9372,-3.992,-3.9346,-3.9479,-3.9893,-3.9893,-3.9626,-3.9452,-4.0214,-4.0441,-4.0508,-4.0802,-4.1096,0.0,-4.0735,-4.0548,0.0,-4.0107,0.0,0.0,0.0,0.0,0.0,0.0,-3.9746,-3.9746,-3.9746,-3.9746,-3.9746,0.0,-4.0,0.0,0.0,0.0,0.0,0.0,0.0,0.0,0.0,0.0,0.0,0.0,0.0,-4.4289,-4.4583,-4.4409,-4.4436,-4.473,-4.4329,-4.4962,-4.6834,-4.6635,-4.8084,-5.0638,-5.0638,-5.1245,-5.2383,-5.1681,-5.1517,-5.1856,-5.2211,-5.2473,-5.2925,-5.5881,-5.7726,-5.8774,-6.1741,-6.2258,-6.1446,-3.5698,-3.5925,-3.6126,-3.6139,-3.6112,-3.5992,-3.5698,0.0,-3.5137,0.0,-3.4563,-3.4402,-3.4389,-3.4656,-3.471,-3.4429,0.0,0.0,-3.5217,-3.499,0.0,0.0,-3.6099,-3.6112,0.0,0.0,0.0,0.0,-3.6967,-3.7235,-3.7782,-3.7529,-3.7716,-3.8263,-3.8263,0.0,-3.9159,-3.9185,-3.9052,-3.8798,-3.8183,-3.8611,-3.9533,-3.8664,-3.8504,-3.8798,-3.9052,-3.9159,-3.9185,-3.9159,-3.9346,-3.9599,-3.9599,-3.9599,-3.964,-3.964,-3.964,-3.9706,-4.0,-4.0294,-4.0615,-4.0869,-4.0735,0.0,0.0,0.0,-3.992,0.0,0.0,0.0,0.0,-4.0067,-4.0107,-4.0067,-4.0027,-4.0027,-4.004,-4.0294,0.0,0.0,0.0,0.0,0.0,0.0,0.0,0.0,0.0,0.0,0.0,0.0,-4.4543,-4.4877,-4.4877,-4.477,-4.4476,-4.4476,-4.4289,-4.4008,-4.4008,-4.5283,-4.7824,-4.7824,-4.9545,-5.1941,-4.9665,-4.8974,-4.9294,-4.9629,-4.9746,-5.003,-5.2956,-5.5865,-5.8512,-6.1482,-6.0668,-5.8791,-3.6647,-3.6647,-3.6794,-3.7021,-3.6687,-3.6299,0.0,0.0,0.0,0.0,-3.5391,-3.5538,-3.5311,-3.5551,-3.5712,-3.5631,-3.5698,0.0,0.0,0.0,0.0,-3.6072,-3.6473,-3.6727,-3.6727,0.0,0.0,-3.7275,0.0,-3.7342,-3.7489,-3.7863,-3.8116,-3.8263,-3.8504,-3.8798,-3.9185,-3.9626,-4.0027,-4.0294,-3.9706,-3.964,0.0,0.0,-3.9346,-3.9012,-3.8865,-3.9118,-3.9452,-3.9225,-3.9346,-3.9599,-3.9599,-3.9746,-3.992,-3.992,-4.0214,-4.0588,-4.0655,-4.1056,-4.1416,-4.1269,-4.135,-4.1416,0.0,0.0,0.0,0.0,0.0,0.0,0.0,0.0,-4.0869,-4.0441,-4.0,-3.9853,-4.0294,0.0,0.0,0.0,0.0,0.0,0.0,0.0,0.0,0.0,0.0,0.0,0.0,0.0,0.0,-4.4877,-4.509,-4.5064,-4.477,-4.477,-4.4516,-4.4008,-4.4008,-4.4245,-4.5021,-4.5021,-4.5712,-4.6518,-4.604,-4.6101,-4.6402,-4.669,-4.6813,-4.7086,-5.0016,-5.2925,-5.5617,-5.8529,-5.7726,-5.5865,-3.7008,-3.6941,-3.7088,-3.7489,0.0,0.0,-3.5851,0.0,0.0,-3.5178,0.0,0.0,-3.5832,-3.5979,-3.6072,-3.6072,-3.6072,0.0,0.0,0.0,0.0,-3.6433,-3.6647,-3.6754,-3.6754,-3.6861,0.0,-3.7195,0.0,0.0,-3.7782,-3.8116,-3.8397,-3.8651,-3.8691,-3.8945,-3.9372,-3.9853,-4.0361,-4.0842,-4.0147,0.0,0.0,-3.9599,-3.9265,-3.8945,-3.8798,-3.9012,-3.9372,-3.9225,-3.9346,-3.9599,-3.9599,-3.9813,-4.0027,-4.0027,-4.0361,-4.0762,-4.0869,-4.1163,-4.1416,-4.1523,-4.1563,-4.1603,-4.1603,-4.1456,-4.1269,0.0,-4.1122,-4.1229,0.0,0.0,-4.1229,-4.0909,-4.0468,-4.0294,0.0,0.0,0.0,0.0,0.0,0.0,0.0,0.0,0.0,0.0,0.0,0.0,0.0,0.0,0.0,-4.5064,-4.5104,-4.5104,-4.5064,-4.481,-4.4583,-4.4369,-4.4262,-4.4182,-4.4182,-4.4075,-4.4222,-4.4623,-4.481,-4.5131,-4.5531,-4.5678,-4.5745,-4.6019,-4.8948,-5.0286,-5.081,-5.3726,-5.3741,-5.2925,-3.7261,0.0,-3.7275,0.0,0.0,0.0,0.0,-3.5462,0.0,-3.5219,0.0,-3.5899,-3.6153,-3.6179,-3.6206,0.0,0.0,-3.6366,0.0,-3.6433,0.0,-3.7048,-3.6767,-3.6647,-3.6687,-3.6901,0.0,0.0,0.0,0.0,-3.8263,-3.833,-3.8651,-3.9159,-3.8945,-3.9199,-3.9786,-4.004,-4.0468,-4.0949,-4.004,-3.9813,-3.992,-3.9052,-3.8718,-3.8718,-3.8758,-3.8945,-3.9159,-3.9159,-3.9346,-3.9599,-3.9599,-3.9813,-4.0027,-4.0027,-4.0254,-4.0548,-4.0802,-4.0869,-4.1016,-4.1537,-4.1497,-4.1336,-4.1376,-4.1416,-4.1336,-4.1096,-4.1269,-4.1483,0.0,0.0,-4.1336,-4.1336,-4.1096,0.0,0.0,0.0,0.0,0.0,0.0,0.0,0.0,0.0,-4.2846,0.0,0.0,0.0,0.0,0.0,0.0,-4.5318,-4.5064,-4.5064,-4.5344,0.0,-4.4663,-4.4877,-4.4583,-4.4436,-4.4436,-4.4182,-4.4369,-4.4877,-4.4917,-4.5237,-4.5745,-4.5745,-4.5745,-4.6019,-4.8419,-4.7876,-4.6019,-4.8434,-4.9461,-4.976,0.0,0.0,0.0,0.0,0.0,-3.6091,0.0,-3.5169,-3.5055,-3.5545,-3.5702,0.0,-3.678,-3.6794,-3.6874,-3.7128,-3.7168,0.0,0.0,0.0,0.0,-3.7662,-3.7382,-3.7342,-3.7595,-3.7408,-3.7301,0.0,0.0,0.0,-3.8263,-3.8758,-3.9052,-3.9159,-3.9346,-3.9893,-4.0695,-4.0722,0.0,-4.1537,-4.0401,-4.0,-3.992,-3.9052,-3.8718,-3.8758,-3.9012,-3.9118,-3.9159,-3.9159,-3.9346,-3.9599,-3.9599,-3.9813,-4.0027,-4.0027,-4.0254,-4.0481,-4.0548,-4.0735,-4.0949,-4.1016,-4.1203,-4.1416,-4.1644,-4.171,-4.1684,-4.1644,-4.2044,-4.2298,-4.179,0.0,0.0,0.0,0.0,0.0,0.0,0.0,0.0,0.0,0.0,0.0,0.0,0.0,-4.2445,-4.2766,0.0,0.0,0.0,0.0,0.0,0.0,-4.5277,0.0,0.0,0.0,-4.5064,-4.4877,-4.4583,-4.4436,-4.4436,-4.4396,-4.4543,-4.4877,-4.5131,-4.5424,-4.5745,-4.5745,-4.5745,-4.5745,-4.6293,-4.6006,-4.5758,-4.6266,-4.6553,-4.6813,0.0,0.0,0.0,0.0,0.0,0.0,0.0,-3.4981,0.0,-3.4777,-3.5297,-3.5661,-3.6249,-3.6432,-3.6549,-3.7158,-3.7158,-3.7436,-3.7809,-3.7809,-3.7809,-3.7809,-3.7676,0.0,-3.7809,0.0,-3.7595,-3.7595,0.0,0.0,-3.8504,-3.8798,-3.9159,-3.9626,-4.0067,-4.0334,-4.0468,-4.0949,0.0,-4.1056,-4.0321,-3.996,-3.9746,-3.9159,-3.8945,-3.8972,-3.9265,-3.9493,-3.9599,-3.9452,-3.9493,-3.9599,-3.9599,-3.9813,-4.0067,-4.0214,-4.0361,-4.0548,-4.0842,-4.0909,-4.0989,-4.1269,-4.1456,-4.1644,-4.1924,-4.2004,-4.2044,-4.2218,-4.2338,-4.2298,-4.1857,-4.1523,0.0,0.0,0.0,0.0,0.0,0.0,0.0,0.0,0.0,0.0,0.0,0.0,-4.2512,-4.2659,-4.31,-4.342,0.0,0.0,-4.4329,0.0,0.0,0.0,0.0,0.0,0.0,-4.4877,-4.4583,-4.4436,-4.4436,-4.4436,-4.4583,-4.4877,-4.5197,-4.5491,-4.5745,-4.5745,-4.5745,-4.5745,-4.5745,-4.5745,-4.5745,-4.5745,-4.5745,-4.6006,0.0,-3.6933,0.0,0.0,-3.6382,0.0,0.0,-3.4888,-3.4305,-3.4519,-3.4894,-3.5194,-3.5673,-3.5876,-3.627,-3.6777,-3.679,-3.7045,-3.7768,-3.7782,-3.7782,-3.7996,-3.7956,-3.7929,-3.7929,-3.7956,-3.7956,0.0,0.0,0.0,-3.8825,-3.8825,-3.9265,-4.004,-4.0441,-4.0508,-4.0361,0.0,-4.1016,-4.0615,-4.0254,-3.996,-3.9666,-3.9372,-3.9265,-3.9306,-3.9599,-3.9853,-4.0,-3.9853,-3.9786,-3.9786,-3.9786,-3.9933,-4.0187,-4.0481,-4.0508,-4.0615,-4.1189,-4.1122,-4.1016,-4.1563,-4.167,-4.1777,-4.2071,-4.2111,-4.2218,-4.2512,-4.2445,-4.2258,-4.2004,-4.175,0.0,0.0,0.0,0.0,0.0,0.0,0.0,0.0,0.0,0.0,0.0,0.0,0.0,-4.2846,-4.3461,-4.3821,-4.3821,0.0,0.0,0.0,0.0,-4.5131,-4.5638,0.0,-4.5064,-4.5064,-4.469,-4.4543,-4.4543,-4.4543,-4.4663,-4.4917,-4.5237,-4.5531,-4.5745,-4.5745,-4.5745,-4.5745,-4.5745,-4.5745,-4.5745,-4.5745,-4.5745,-4.5745,0.0,0.0,0.0,0.0,0.0,0.0,0.0,-3.5182,-3.467,-3.5052,-3.5003,-3.5256,-3.5978,-3.6016,-3.6118,-3.6372,-3.6397,-3.673,-3.7684,-3.7697,-3.7955,-3.8651,-3.837,-3.8223,-3.8223,-3.8504,-3.8504,0.0,0.0,-3.9078,-3.9118,-3.9118,-3.9452,-4.0027,-3.9813,-4.0294,0.0,-4.1016,-4.1056,-4.1203,-4.0655,-4.0254,-3.996,-3.9666,-3.9559,-3.9599,-3.9893,-4.0,-4.0067,-4.0321,-4.0401,-4.0401,-4.0401,-4.0401,-4.0481,-4.0802,-4.0695,-4.0615,-4.1189,-4.1122,-4.0976,-4.131,-4.1376,-4.1456,-4.175,-4.1817,-4.1897,-4.2191,-4.2445,-4.2619,-4.2592,-4.2325,-4.1964,0.0,0.0,0.0,0.0,0.0,0.0,-4.2619,0.0,0.0,0.0,-4.2726,-4.2579,-4.338,-4.3273,-4.3167,0.0,0.0,0.0,-4.4543,0.0,-4.5024,-4.5344,-4.5558,-4.5678,-4.5665,-4.509,-4.4837,-4.4837,-4.4837,-4.485,-4.4917,-4.5451,-4.5705,-4.5745,-4.5745,-4.5745,-4.5745,-4.5745,-4.5745,-4.5745,-4.5745,-4.5745,-4.5745,0.0,0.0,0.0,0.0,0.0,0.0,0.0,-3.5374,-3.497,-3.5145,-3.4974,-3.4888,-3.5107,-3.5255,-3.5635,-3.5967,-3.6212,-3.6495,-3.7775,-3.7788,-3.8021,-3.8718,-3.8611,-3.8544,-3.8544,-3.8838,-3.8905,0.0,0.0,0.0,-3.996,-3.9773,-3.9893,-4.0294,-4.0361,-4.0548,-4.0842,-4.0869,-4.0869,-4.0802,-4.0361,-4.0147,-4.0027,-4.0107,-4.0107,-4.0187,-4.0655,-4.0722,-4.0575,-4.0695,-4.0615,-4.0481,-4.0481,-4.0481,-4.0588,-4.1016,-4.0842,-4.0655,-4.1416,-4.1376,-4.1229,-4.1523,-4.175,-4.1897,-4.2004,-4.2044,-4.2111,-4.2445,-4.2726,-4.2873,-4.2699,-4.2552,-4.2472,-4.2405,0.0,0.0,0.0,0.0,0.0,-4.2913,0.0,-4.3086,0.0,0.0,-4.2873,-4.3233,-4.2993,0.0,0.0,0.0,0.0,-4.4396,0.0,-4.5384,-4.5318,-4.5785,-4.5745,-4.5211,-4.481,-4.4703,-4.4877,-4.4877,-4.5064,-4.5424,-4.5638,-4.5745,-4.5745,-4.5745,-4.5745,-4.5745,-4.5745,-4.5745,-4.5785,-4.5932,-4.5892,-4.5785,-3.603,0.0,-3.6301,0.0,-3.6213,-3.5935,-3.5742,-3.5742,-3.5646,-3.5356,-3.5163,-3.4994,-3.4837,-3.4897,-3.5216,-3.5796,-3.571,-3.6129,-3.7076,-3.7322,-3.7555,-3.8021,-3.8021,0.0,-3.8372,-3.8676,-3.911,-3.9176,-3.9626,0.0,-4.0334,-4.0147,-4.0187,-4.0481,-4.0695,-4.0722,-4.0615,-4.0735,-4.0762,-4.0695,-4.0401,-4.0401,-4.0548,-4.0695,-4.0802,-4.0909,-4.1229,-4.1203,-4.1056,-4.1056,-4.0842,-4.0588,-4.0508,-4.0481,-4.0588,-4.1056,-4.0869,-4.0655,-4.1456,-4.1456,-4.1269,-4.1563,-4.1884,-4.2071,-4.2071,-4.2151,-4.2298,-4.2592,-4.2846,-4.2953,-4.2913,-4.2846,-4.2846,-4.306,0.0,0.0,0.0,-4.2806,0.0,-4.306,-4.306,-4.3127,-4.3461,-4.3247,0.0,0.0,0.0,0.0,0.0,0.0,0.0,0.0,0.0,0.0,0.0,-4.5972,-4.5825,-4.5131,-4.477,-4.469,-4.4877,-4.4957,-4.5277,-4.5745,-4.5745,-4.5745,-4.5745,-4.5745,-4.5745,-4.5745,-4.5745,-4.5785,-4.5892,-4.6119,-4.6039,-4.5932,-3.532,-3.5585,-3.5839,-3.6104,-3.637,-3.6563,-3.6563,-3.6563,-3.6454,-3.6201,-3.614,-3.5935,-3.5416,-3.5126,-3.5066,-3.5356,-3.5126,-3.5192,-3.5895,-3.5907,-3.6129,0.0,0.0,-3.6982,-3.7249,-3.8255,-3.8779,-3.9066,0.0,0.0,-4.0027,-4.0027,-4.0187,-4.0481,-4.0481,-4.0655,-4.0869,-4.0588,-4.0802,-4.131,-4.1016,-4.1243,-4.175,-4.1456,-4.1523,-4.175,-4.1456,-4.1336,-4.1336,-4.1336,-4.1163,-4.0842,-4.0588,-4.0481,-4.0548,-4.0842,-4.0695,-4.0615,-4.1203,-4.1122,-4.0976,-4.1269,-4.1563,-4.179,-4.179,-4.2004,-4.2298,-4.2592,-4.2659,-4.2846,-4.342,-4.3273,-4.31,-4.31,0.0,0.0,0.0,-4.2218,0.0,-4.302,-4.2325,-4.2512,-4.4249,0.0,0.0,0.0,0.0,0.0,0.0,0.0,0.0,-4.5277,-4.5865,0.0,-4.6186,-4.6186,-4.6039,-4.5745,-4.5131,-4.4877,-4.4877,-4.5171,-4.5451,-4.5745,-4.5745,-4.5745,-4.5745,-4.5745,-4.5745,-4.5745,-4.5745,-4.5932,-4.6186,-4.6186,-4.6186,-4.6226,-3.6165,-3.6394,-3.6623,-3.672,-3.6949,-3.6985,-3.6623,-3.6563,-3.6394,-3.5971,-3.5911,-3.5911,-3.5911,-3.5682,-3.5549,0.0,-3.5416,-3.5484,0.0,-3.6007,-3.6229,-3.711,-3.711,-3.7249,-3.7529,-3.8074,-3.8253,-3.8356,0.0,0.0,0.0,-4.0615,-4.0695,-4.0762,-4.0548,-4.0628,-4.0909,-4.1016,-4.1163,-4.1336,-4.1456,-4.1603,-4.179,-4.167,-4.1817,-4.2071,-4.1964,-4.1924,-4.1924,-4.171,-4.1563,-4.1456,-4.1163,-4.0949,-4.0842,-4.1122,-4.0989,-4.0842,-4.1229,-4.1269,-4.1269,-4.1563,-4.1857,-4.2071,-4.2071,-4.2151,-4.2298,-4.2592,-4.2806,-4.302,-4.3207,-4.3487,-4.3634,-4.342,-4.338,0.0,-4.3127,-4.3127,-4.3167,-4.338,-4.334,-4.3527,0.0,-4.3501,0.0,0.0,0.0,0.0,0.0,0.0,0.0,0.0,-4.5678,0.0,-4.5892,-4.6079,-4.6039,-4.5745,-4.5171,-4.4877,-4.4877,-4.5384,-4.5665,-4.5745,-4.5745,-4.5745,-4.5745,-4.5745,-4.5745,-4.5745,-4.5745,-4.5932,-4.6226,-4.6413,-4.6373,-4.6266,-3.6563,-3.6684,-3.6816,-3.6816,-3.6949,-3.6985,-3.6756,-3.672,-3.6587,-3.6261,-3.6225,-3.6261,-3.6297,-3.6165,0.0,-3.5935,-3.5682,-3.5775,-3.5989,-3.6067,-3.6043,-3.669,-3.6703,-3.6828,-3.7102,-3.7543,0.0,-3.7794,-3.8906,-3.9884,-4.0909,-4.0909,-4.0717,-4.059,-4.1002,-4.0823,-4.0761,-4.1195,-4.163,-4.1857,-4.1924,-4.2151,-4.2432,-4.2325,-4.2472,-4.2686,-4.2472,-4.2405,-4.2325,-4.2044,-4.1964,-4.1924,-4.1857,-4.171,-4.1537,-4.1376,-4.131,-4.1243,-4.131,-4.1336,-4.1376,-4.1563,-4.1857,-4.2071,-4.2178,-4.2218,-4.2258,-4.2445,-4.2619,-4.2806,-4.2913,-4.3354,-4.3634,-4.3527,-4.3634,-4.3674,-4.3527,-4.3634,-4.3714,-4.3714,-4.3888,0.0,0.0,-4.3821,-4.3714,0.0,0.0,0.0,0.0,0.0,0.0,-4.509,-4.5598,0.0,-4.6079,-4.5932,-4.5758,-4.5571,-4.5104,-4.4877,-4.4917,-4.5491,-4.5745,-4.5745,-4.5745,-4.5745,-4.5745,-4.5745,-4.5745,-4.5745,-4.5852,-4.6079,-4.6373,-4.6547,-4.6587,-4.656,-3.6563,-3.6563,-3.6587,0.0,-3.6587,0.0,-3.6949,-3.6973,-3.6973,-3.6949,-3.6949,-3.6853,-3.6587,-3.6587,-3.649,-3.6237,0.0,0.0,0.0,-3.5778,-3.5778,-3.5802,-3.5802,-3.5935,-3.6225,-3.6711,-3.7333,-3.763,-3.8842,-3.9962,-4.0717,-4.0717,-4.0603,-4.0357,-4.1118,-4.1263,-4.08,-4.1566,-4.2138,-4.2632,-4.2365,-4.2766,-4.3487,-4.3207,-4.3273,-4.342,-4.2873,-4.2659,-4.2659,-4.2365,-4.2285,-4.2365,-4.2619,-4.2699,-4.2552,-4.167,-4.1603,-4.175,-4.1483,-4.1376,-4.1376,-4.1416,-4.1603,-4.1897,-4.2151,-4.2218,-4.2218,-4.2258,-4.2285,-4.2365,-4.2659,-4.2953,-4.3233,-4.3487,-4.3781,-4.3888,-4.3594,-4.3821,-4.4035,-4.4008,0.0,0.0,0.0,-4.4396,-4.4476,0.0,0.0,0.0,0.0,0.0,-4.4917,-4.6079,-4.5638,-4.5745,-4.6547,-4.5745,-4.5318,-4.5277,-4.5024,-4.4877,-4.4917,-4.5491,-4.5745,-4.5745,-4.5745,-4.5745,-4.5745,-4.5745,-4.5745,-4.5785,-4.6079,-4.6373,-4.6627,-4.6627,-4.6801,-4.7068,0.0,0.0,-3.6877,-3.6877,-3.7046,-3.7142,-3.701,-3.6973,-3.6913,-3.6684,-3.6659,-3.6623,-3.6563,-3.6756,-3.6853,-3.678,-3.6358,-3.6068,-3.6068,-3.5875,-3.5875,-3.6068,-3.6068,-3.6297,-3.678,-3.7039,-3.7518,-3.8473,-3.8724,-3.925,-4.0078,-4.0078,-3.9751,-3.9597,-3.9687,-4.0328,-4.08,-4.1274,-4.183,-4.2659,-4.2846,-4.3127,-4.3487,-4.3207,-4.3127,-4.3167,-4.2806,-4.2806,-4.2953,-4.2659,-4.2846,-4.3193,-4.302,-4.3127,-4.3207,-4.2552,-4.2218,-4.2111,-4.2031,-4.1857,-4.175,-4.1964,-4.2071,-4.2138,-4.2218,-4.2218,-4.2325,-4.2806,-4.2873,-4.298,-4.3273,-4.3567,-4.3741,-4.3567,-4.3781,-4.3968,-4.3888,-4.4142,-4.4249,-4.4035,-4.4182,-4.4262,-4.4115,-4.3888,-4.3781,0.0,0.0,0.0,0.0,-4.4182,-4.4436,-4.5171,-4.5718,-4.5972,-4.5959,-4.5531,-4.5211,-4.4984,-4.4917,-4.4984,-4.5211,-4.5571,-4.5745,-4.5745,-4.5745,-4.5745,-4.5745,-4.5745,-4.5745,-4.5785,-4.6079,-4.6373,-4.6627,-4.6627,-4.6801,-4.7068,-3.6563,-3.6684,-3.678,-3.678,-3.6913,-3.6949,-3.6816,-3.6877,-3.6913,-3.678,-3.6853,-3.6913,-3.6913,-3.707,-3.7142,-3.7142,-3.6877,-3.672,-3.672,-3.6587,-3.6623,-3.6877,-3.6889,-3.7082,-3.7504,-3.7504,-3.7853,-3.8771,-3.8771,-3.8961,-3.959,-3.959,-3.9313,-3.9037,-3.9427,-3.9907,-4.02,-4.1209,-4.197,-4.2371,-4.3046,-4.3207,-4.3314,-4.3167,-4.31,-4.306,-4.2913,-4.2953,-4.306,-4.2913,-4.3167,-4.3487,-4.334,-4.3487,-4.3674,-4.3354,-4.306,-4.2793,-4.2659,-4.2512,-4.2405,-4.2405,-4.2325,-4.2258,-4.2405,-4.2405,-4.2552,-4.2993,-4.31,-4.3167,-4.3487,-4.3781,-4.3928,-4.3781,-4.3995,-4.4142,-4.4035,-4.4249,-4.4436,-4.4409,-4.4543,-4.4583,-4.4409,-4.4115,-4.3928,-4.3928,-4.3821,0.0,-4.4182,-4.4182,-4.4409,-4.4877,-4.5211,-4.5384,-4.5344,-4.5064,-4.4917,-4.4877,-4.4877,-4.5024,-4.5318,-4.5598,-4.5745,-4.5745,-4.5745,-4.5745,-4.5745,-4.5745,-4.5745,-4.5785,-4.6226,-4.648,-4.6627,-4.6627,-4.6881,-4.7215,-3.6563,-3.6587,-3.6623,-3.6623,-3.6659,-3.6684,-3.6684,-3.6877,-3.7046,-3.7046,-3.7239,-3.7372,-3.7372,-3.7408,-3.7432,-3.7432,-3.7468,-3.7468,-3.7432,-3.7432,-3.7529,-3.7758,-3.7794,-3.7927,-3.8156,-3.818,-3.8364,-3.8702,-3.8665,-3.8758,-3.9275,-3.9275,-3.8899,-3.8579,-3.9577,-3.9816,-3.9527,-4.1056,-4.1715,-4.2013,-4.253,-4.2815,-4.2855,-4.2855,-4.2841,-4.2828,-4.2828,-4.2868,-4.2908,-4.2908,-4.3094,-4.3359,-4.3386,-4.3848,-4.4075,-4.4075,-4.3888,-4.3674,-4.3314,-4.3207,-4.31,-4.2806,-4.2552,-4.2405,-4.2659,-4.2766,-4.2886,-4.3233,-4.3273,-4.3314,-4.3607,-4.3888,-4.4035,-4.3928,-4.4249,-4.4396,-4.4035,-4.4249,-4.4516,-4.473,-4.473,-4.477,-4.481,-4.4583,-4.4436,-4.4436,-4.4222,-4.4182,-4.4436,-4.4436,-4.4583,-4.4877,-4.469,-4.4663,-4.4877,-4.4583,-4.4583,-4.4877,-4.4877,-4.5064,-4.5384,-4.5638,-4.5745,-4.5745,-4.5745,-4.5745,-4.5745,-4.5745,-4.5745,-4.5812,-4.64,-4.6587,-4.6547,-4.6654,-4.6988,-4.7348,-3.6563,-3.6756,-3.6913,-3.6913,-3.7106,-3.7239,-3.7239,-3.7275,-3.7299,-3.7299,-3.7335,-3.7372,-3.7372,-3.7565,-3.7698,-3.7698,-3.7891,-3.7927,-3.7722,-3.7698,-3.7722,-3.7758,-3.7987,-3.812,-3.8156,-3.8374,-3.8579,-3.8772,-3.8777,-3.8655,-3.8607,-3.8607,-3.8534,-3.8352,-3.84,-3.8693,-3.9254,-3.9535,-4.0454,-4.1713,-4.1687,-4.2101,-4.2324,-4.2324,-4.1818,-4.1299,-4.1299,-4.144,-4.1645,-4.1645,-4.2363,-4.3163,-4.3426,-4.3771,-4.4369,-4.4369,-4.4516,-4.4556,-4.4008,-4.3674,-4.338,-4.31,-4.2993,-4.298,-4.302,-4.3207,-4.3567,-4.4115,-4.4035,-4.3968,-4.4249,-4.4329,-4.4222,-4.3674,-4.4289,-4.4623,-4.4075,-4.4249,-4.4369,-4.4155,-4.4142,-4.4222,-4.4476,-4.4476,-4.4436,-4.4436,-4.4396,-4.4396,-4.4436,-4.4436,-4.4583,-4.4877,-4.5064,-4.509,-4.4877,-4.4583,-4.4583,-4.4877,-4.4877,-4.5171,-4.5678,-4.5705,-4.5745,-4.5745,-4.5745,-4.5745,-4.5745,-4.5745,-4.5745,-4.5812,-4.64,-4.648,-4.6333,-4.6814,-4.7068,-4.7135,-3.7396,-3.7408,-3.7432,-3.7601,-3.7601,-3.7565,-3.7565,-3.7565,-3.7565,-3.7565,-3.7698,-3.7794,-3.7794,-3.7891,-3.7963,-3.7963,-3.8084,-3.8156,-3.818,-3.8048,-3.8023,-3.818,-3.8277,-3.8446,-3.8567,-3.8699,-3.876,-3.8736,-3.8603,-3.847,-3.8349,-3.8349,-3.8277,-3.8156,-3.8156,-3.8388,-3.8681,-3.9072,-3.9647,-4.0416,-4.0787,-4.1095,-4.1095,-4.1276,-4.1056,-4.0836,-4.1141,-4.1345,-4.1484,-4.1802,-4.2259,-4.2667,-4.295,-4.3577,-4.4153,-4.4153,-4.4276,-4.4369,-4.4262,-4.3888,-4.3487,-4.3354,-4.3207,-4.3127,-4.3273,-4.342,-4.3714,-4.4329,-4.4329,-4.4329,-4.4623,-4.4797,-4.477,-4.4329,-4.4623,-4.473,-4.4289,-4.4222,-4.4222,-4.4222,-4.4222,-4.4289,-4.4436,-4.4436,-4.4369,-4.4222,-4.4356,-4.4436,-4.4436,-4.4436,-4.4503,-4.4623,-4.477,-4.477,-4.465,-4.4516,-4.4583,-4.4877,-4.5024,-4.5344,-4.5745,-4.5745,-4.5745,-4.5745,-4.5745,-4.5745,-4.5745,-4.5745,-4.5745,-4.5812,-4.64,-4.644,-4.6266,-4.6841,-4.7068,-4.7068,-3.6977,-3.6895,-3.7115,-3.8036,-3.7951,-3.7854,-3.7854,-3.7854,-3.7854,-3.7854,-3.8023,-3.8156,-3.8156,-3.8156,-3.8156,-3.8156,-3.8156,-3.8253,-3.8446,-3.8253,-3.8277,-3.8543,-3.8543,-3.8663,-3.8953,-3.8893,-3.876,-3.8543,-3.8482,-3.8349,-3.8156,-3.8156,-3.8156,-3.8156,-3.8156,-3.8156,-3.8156,-3.8888,-3.9366,-3.9192,-3.9891,-4.0173,-4.0034,-4.0274,-4.0438,-4.0331,-4.0833,-4.1071,-4.1172,-4.1687,-4.2106,-4.2157,-4.2435,-4.3065,-4.3607,-4.3607,-4.3499,-4.3639,-4.4382,-4.4142,-4.3821,-4.3674,-4.3461,-4.3354,-4.3594,-4.3674,-4.3861,-4.4329,-4.4436,-4.4516,-4.473,-4.5024,-4.5131,-4.4837,-4.4957,-4.4917,-4.4503,-4.4289,-4.4222,-4.4329,-4.4329,-4.4369,-4.4436,-4.4503,-4.4436,-4.4222,-4.4409,-4.4543,-4.4543,-4.4476,-4.4436,-4.4436,-4.4369,-4.4369,-4.4436,-4.4436,-4.4583,-4.4877,-4.5171,-4.5451,-4.5745,-4.5745,-4.5745,-4.5745,-4.5745,-4.5745,-4.5745,-4.5745,-4.5745,-4.5785,-4.6333,-4.6373,-4.6266,-4.6841,-4.7068,-4.7068,-3.3177,-3.3819,-3.4925,-3.7298,-3.7987,-3.812,-3.812,-3.812,-3.812,-3.812,-3.8144,-3.8156,-3.8156,-3.8156,-3.8156,-3.8156,-3.8156,-3.8156,-3.818,-3.8156,-3.8277,-3.8543,-3.8543,-3.8663,-3.8953,-3.8699,-3.8567,-3.8543,-3.8313,-3.818,-3.8156,-3.8156,-3.8156,-3.8156,-3.8156,-3.8156,-3.8156,-3.8156,-3.8681,-3.918,-3.9192,-3.9353,-3.9564,-3.9564,-3.9651,-3.9327,-3.9593,-3.9846,-4.0112,-4.0401,-4.1054,-4.1634,-4.1894,-4.254,-4.3087,-4.3087,-4.268,-4.2808,-4.4156,-4.4623,-4.4663,-4.4115,-4.3968,-4.3928,-4.3968,-4.4182,-4.4396,-4.4436,-4.4436,-4.4436,-4.4476,-4.4703,-4.481,-4.4516,-4.5157,-4.5384,-4.4543,-4.4663,-4.4623,-4.4115,-4.4035,-4.4142,-4.4396,-4.469,-4.4837,-4.481,-4.4837,-4.4837,-4.4837,-4.4583,-4.4436,-4.4436,-4.4182,-4.4155,-4.4436,-4.4436,-4.4583,-4.4877,-4.5171,-4.5451,-4.5745,-4.5745,-4.5745,-4.5745,-4.5745,-4.5745,-4.5745,-4.5745,-4.5745,-4.5785,-4.6106,-4.6226,-4.6266,-4.6841,-4.7068,-4.7108,-3.1374,-3.1596,-3.2361,-3.5313,-3.5822,-3.6307,-3.8128,-3.8253,-3.8156,-3.8156,-3.8156,-3.8156,-3.8156,-3.8156,-3.8156,-3.8156,-3.8156,-3.8156,-3.8156,-3.8156,-3.818,-3.8277,-3.8313,-3.8349,-3.8446,-3.8349,-3.8313,-3.8313,-3.818,-3.8156,-3.8156,-3.8156,-3.8156,-3.8156,-3.8156,-3.8156,-3.8156,-3.8156,-3.8485,-3.8901,-3.8901,-3.906,-3.9093,-3.9421,-3.9664,-3.9641,-4.0088,-4.0293,-4.0414,-4.0703,-4.1062,-4.1098,-4.1353,-4.199,-4.2792,-4.289,-4.3074,-4.2947,-4.2963,-4.3317,-4.3731,-4.4062,-4.4008,-4.4008,-4.4008,-4.4075,-4.4222,-4.4396,-4.4583,-4.4703,-4.4703,-4.509,-4.5318,-4.5024,-4.509,-4.509,-4.477,-4.4476,-4.4262,-4.4035,-4.4008,-4.4115,-4.4396,-4.4369,-4.4409,-4.4583,-4.4623,-4.4623,-4.4623,-4.4503,-4.4356,-4.4182,-4.4222,-4.4329,-4.4436,-4.4623,-4.4837,-4.5171,-4.5451,-4.5638,-4.5745,-4.5745,-4.5745,-4.5745,-4.5745,-4.5745,-4.5745,-4.5745,-4.5745,-4.5785,-4.6079,-4.6186,-4.6266,-4.6841,-4.7068,-4.7108,-2.8979,-2.8888,-2.9854,-3.2575,-3.3792,-3.502,-3.6824,-3.7739,-3.8156,-3.8156,-3.8156,-3.8156,-3.8156,-3.8156,-3.8156,-3.8156,-3.8156,-3.8156,-3.8156,-3.8156,-3.8156,-3.8156,-3.8156,-3.8156,-3.8156,-3.8156,-3.8156,-3.8156,-3.8156,-3.8156,-3.8156,-3.8156,-3.8156,-3.8156,-3.8156,-3.818,-3.8277,-3.8374,-3.8543,-3.8796,-3.8893,-3.9086,-3.9375,-3.9738,-3.9894,-4.0063,-4.051,-4.0679,-4.0703,-4.0969,-4.1065,-4.1102,-4.1259,-4.1608,-4.2089,-4.2254,-4.2304,-4.2591,-4.1938,-4.2082,-4.2409,-4.3467,-4.3731,-4.3744,-4.3995,-4.4008,-4.4075,-4.4262,-4.4476,-4.4596,-4.4596,-4.509,-4.5424,-4.5211,-4.509,-4.4984,-4.4877,-4.4436,-4.4115,-4.4008,-4.4008,-4.4075,-4.4289,-4.4222,-4.4222,-4.4436,-4.4436,-4.4396,-4.4289,-4.4289,-4.4249,-4.4142,-4.4329,-4.4516,-4.469,-4.4917,-4.5131,-4.5318,-4.5598,-4.5745,-4.5745,-4.5745,-4.5745,-4.5745,-4.5745,-4.5745,-4.5745,-4.5745,-4.5745,-4.5785,-4.6079,-4.6253,-4.6373,-4.6881,-4.7135,-4.7241,-2.5392,-2.5883,-2.6613,-2.9311,-3.2157,-3.3981,-3.3981,-3.6335,-3.8156,-3.8156,-3.8156,-3.8156,-3.8156,-3.8156,-3.8156,-3.8156,-3.8156,-3.8156,-3.8156,-3.8156,-3.8156,-3.8156,-3.8156,-3.8156,-3.8156,-3.8156,-3.8156,-3.8156,-3.8156,-3.8156,-3.8156,-3.8156,-3.8156,-3.8156,-3.8156,-3.8313,-3.8579,-3.8832,-3.911,-3.9375,-3.9641,-3.9894,-4.0124,-4.0124,-4.0317,-4.0583,-4.0836,-4.0933,-4.0969,-4.1234,-4.1331,-4.1331,-4.1331,-4.1331,-4.1222,-4.0703,-4.0546,-4.0498,-4.103,-4.1014,-4.1082,-4.2648,-4.2912,-4.3203,-4.3744,-4.4008,-4.4008,-4.4008,-4.4008,-4.4008,-4.4008,-4.4476,-4.4877,-4.4877,-4.5131,-4.5211,-4.4917,-4.4623,-4.4329,-4.4035,-4.4008,-4.4008,-4.4008,-4.4262,-4.4436,-4.4436,-4.4436,-4.4289,-4.4008,-4.4008,-4.4142,-4.4436,-4.4436,-4.473,-4.5318,-4.5318,-4.5318,-4.5318,-4.5598,-4.5745,-4.5745,-4.5745,-4.5745,-4.5745,-4.5745,-4.5745,-4.5745,-4.5745,-4.5745,-4.5785,-4.6079,-4.6373,-4.6654,-4.6961,-4.7241,-4.7495,-2.2559,-2.2824,-2.3598,-2.6412,-2.9265,-3.1618,-3.3722,-3.6335,-3.8156,-3.8156,-3.8156,-3.8156,-3.8156,-3.8156,-3.8156,-3.8156,-3.8156,-3.8156,-3.8156,-3.8156,-3.8156,-3.8156,-3.8156,-3.8156,-3.8156,-3.8156,-3.8156,-3.8156,-3.8156,-3.8156,-3.8156,-3.8349,-3.841,-3.8446,-3.8627,-3.8856,-3.9122,-3.9182,-3.9472,-3.9894,-3.9967,-4.0184,-4.045,-4.0607,-4.0739,-4.0836,-4.1126,-4.1198,-4.1222,-4.1295,-4.1331,-4.1331,-4.1331,-4.1065,-4.0739,-4.0583,-4.0546,-4.045,-4.0259,-4.0199,-4.0503,-4.1904,-4.2144,-4.2144,-4.2409,-4.3095,-4.3505,-4.3505,-4.3649,-4.3793,-4.3793,-4.3938,-4.4043,-4.4043,-4.4488,-4.4663,-4.4583,-4.4329,-4.4115,-4.4008,-4.4008,-4.4075,-4.4289,-4.4182,-4.4222,-4.4436,-4.4249,-4.4115,-4.4008,-4.4182,-4.4356,-4.4436,-4.4837,-4.5131,-4.5318,-4.5318,-4.5424,-4.5598,-4.5705,-4.5745,-4.5745,-4.5745,-4.5745,-4.5745,-4.5745,-4.5745,-4.5745,-4.5745,-4.5745,-4.5785,-4.6079,-4.6373,-4.6654,-4.6961,-4.7241,-4.7495,-2.1441,-2.1441,-2.1972,-2.3523,-2.6149,-2.9022,-3.1887,-3.4756,-3.6838,-3.8132,-3.8156,-3.8156,-3.8156,-3.8156,-3.8156,-3.8156,-3.8156,-3.8156,-3.8156,-3.8156,-3.8156,-3.8156,-3.8156,-3.8156,-3.8156,-3.8156,-3.8156,-3.8156,-3.8253,-3.8313,-3.8313,-3.8567,-3.876,-3.8856,-3.9025,-3.9315,-3.9665,-3.9762,-4.0063,-4.045,-4.0546,-4.0703,-4.0872,-4.1029,-4.1102,-4.1102,-4.1259,-4.1331,-4.1331,-4.1331,-4.1331,-4.1295,-4.1198,-4.0969,-4.0703,-4.0703,-4.0607,-4.0486,-4.0281,-4.0257,-4.0515,-4.1188,-4.1574,-4.1765,-4.2031,-4.2528,-4.3205,-4.3101,-4.3231,-4.3577,-4.3179,-4.3525,-4.3872,-4.3603,-4.3995,-4.4436,-4.4436,-4.4182,-4.4008,-4.4008,-4.4008,-4.4075,-4.4249,-4.4115,-4.4075,-4.4249,-4.4115,-4.4035,-4.4182,-4.4329,-4.4543,-4.477,-4.5131,-4.5384,-4.5491,-4.5491,-4.5571,-4.5745,-4.5745,-4.5745,-4.5745,-4.5745,-4.5745,-4.5745,-4.5745,-4.5745,-4.5745,-4.5745,-4.5825,-4.5959,-4.6253,-4.6547,-4.6841,-4.7135,-4.7348,-4.7495,-2.1441,-2.1441,-2.1441,-2.1441,-2.3795,-2.6395,-2.9013,-3.2157,-3.5036,-3.7375,-3.8132,-3.8156,-3.8156,-3.8156,-3.8156,-3.8156,-3.8156,-3.8156,-3.8156,-3.8156,-3.8156,-3.818,-3.818,-3.818,-3.8217,-3.818,-3.818,-3.818,-3.8446,-3.8579,-3.8579,-3.8893,-3.9146,-3.9375,-3.9436,-3.9738,-4.022,-4.0474,-4.0739,-4.1005,-4.1234,-4.1331,-4.1331,-4.1331,-4.1331,-4.1331,-4.1331,-4.1331,-4.1331,-4.1331,-4.1331,-4.1259,-4.1029,-4.0933,-4.0908,-4.0933,-4.0739,-4.0546,-4.08,-4.0679,-4.0474,-4.0474,-4.0846,-4.1225,-4.2005,-4.2232,-4.2616,-4.2336,-4.2795,-4.2718,-4.1942,-4.316,-4.3876,-4.3304,-4.3863,-4.4382,-4.4382,-4.4182,-4.4008,-4.4008,-4.4008,-4.4008,-4.4008,-4.4035,-4.4035,-4.4035,-4.4075,-4.4182,-4.4476,-4.4503,-4.477,-4.5304,-4.5344,-4.5491,-4.5745,-4.5745,-4.5745,-4.5745,-4.5745,-4.5745,-4.5745,-4.5745,-4.5745,-4.5745,-4.5745,-4.5745,-4.5745,-4.5745,-4.5932,-4.6226,-4.652,-4.6801,-4.7108,-4.7388,-4.7495,-4.7495,-2.1441,-2.1441,-2.1441,-2.1441,-2.3795,-2.5886,-2.6395,-3.0848,-3.4228,-3.4767,-3.6861,-3.8156,-3.8156,-3.8156,-3.8156,-3.8156,-3.8156,-3.8156,-3.8156,-3.8156,-3.8253,-3.8446,-3.8446,-3.8567,-3.876,-3.8567,-3.8446,-3.8446,-3.8736,-3.8856,-3.8856,-3.9339,-3.9605,-3.9665,-4.0088,-4.045,-4.0776,-4.0836,-4.1005,-4.1259,-4.1295,-4.1331,-4.1331,-4.1331,-4.1331,-4.1331,-4.1331,-4.1331,-4.1331,-4.1331,-4.1198,-4.1029,-4.1198,-4.0969,-4.0679,-4.0872,-4.0583,-4.022,-4.0293,-4.0124,-3.9894,-3.9894,-4.0003,-4.0393,-4.0405,-4.1128,-4.1818,-4.1543,-4.1493,-4.1468,-4.1419,-4.1536,-4.1423,-4.1435,-4.2486,-4.3282,-4.3282,-4.3771,-4.4008,-4.4008,-4.4008,-4.4008,-4.4008,-4.4222,-4.4329,-4.4329,-4.4556,-4.473,-4.477,-4.4984,-4.5171,-4.5318,-4.5531,-4.5678,-4.5745,-4.5745,-4.5745,-4.5745,-4.5745,-4.5745,-4.5745,-4.5745,-4.5745,-4.5745,-4.5745,-4.5745,-4.5745,-4.5745,-4.5932,-4.6226,-4.652,-4.6801,-4.7108,-4.7388,-4.7495,-4.7495,-2.1672,-2.1652,-2.1652,-2.1652,-2.2918,-2.4165,-2.5489,-2.803,-3.0568,-3.1877,-3.4509,-3.6312,-3.6312,-3.7363,-3.8156,-3.8156,-3.8277,-3.8349,-3.8349,-3.847,-3.8603,-3.8736,-3.8736,-3.8796,-3.8953,-3.8929,-3.8856,-3.8736,-3.9013,-3.9146,-3.9146,-3.9544,-3.9798,-3.9931,-4.022,-4.0486,-4.0739,-4.0739,-4.0836,-4.0969,-4.0969,-4.0969,-4.0969,-4.0969,-4.0969,-4.0969,-4.0969,-4.0969,-4.0969,-4.0969,-4.0872,-4.0776,-4.0908,-4.0679,-4.0389,-4.0679,-4.045,-4.016,-4.0293,-4.022,-4.0124,-4.0124,-4.022,-4.0293,-4.016,-4.0624,-4.1017,-4.0723,-4.0956,-4.1175,-4.0503,-4.089,-4.1094,-4.0828,-4.1613,-4.2396,-4.2396,-4.2925,-4.3454,-4.3454,-4.3851,-4.4262,-4.4409,-4.4556,-4.4663,-4.4663,-4.481,-4.4957,-4.509,-4.5237,-4.5384,-4.5531,-4.5678,-4.5745,-4.5745,-4.5745,-4.5745,-4.5745,-4.5745,-4.5745,-4.5745,-4.5745,-4.5745,-4.5745,-4.5745,-4.5745,-4.5745,-4.5745,-4.5999,-4.64,-4.6547,-4.6881,-4.7282,-4.7428,-4.7495,-4.7495,-2.1991,-2.195,-2.195,-2.195,-2.1848,-2.2539,-2.4882,-2.5521,-2.6437,-2.8761,-3.1628,-3.3474,-3.4035,-3.6697,-3.8277,-3.8277,-3.847,-3.8603,-3.8603,-3.882,-3.8989,-3.9013,-3.9013,-3.905,-3.9086,-3.9303,-3.9279,-3.9013,-3.9279,-3.9412,-3.9412,-3.9665,-3.9931,-4.0124,-4.0184,-4.0317,-4.0546,-4.0546,-4.0546,-4.0546,-4.0546,-4.0546,-4.0546,-4.0546,-4.0546,-4.0546,-4.0546,-4.0546,-4.0546,-4.0546,-4.0546,-4.0546,-4.0546,-4.0389,-4.0257,-4.0474,-4.0353,-4.0184,-4.0414,-4.045,-4.0414,-4.0414,-4.0414,-4.0353,-4.0124,-4.0281,-4.0389,-4.0124,-4.0613,-4.0808,-3.9774,-4.0803,-4.1348,-4.0803,-4.1335,-4.1613,-4.1613,-4.2448,-4.2739,-4.2991,-4.3784,-4.4623,-4.485,-4.4917,-4.4957,-4.4957,-4.4984,-4.5131,-4.5384,-4.5384,-4.5491,-4.5745,-4.5745,-4.5745,-4.5745,-4.5745,-4.5745,-4.5745,-4.5745,-4.5745,-4.5745,-4.5745,-4.5745,-4.5745,-4.5745,-4.5745,-4.5745,-4.5785,-4.6146,-4.6627,-4.6694,-4.7028,-4.7495,-4.7495,-4.7495,-4.7495,-2.2289,-2.2269,-2.2269,-2.2269,-2.2147,-2.2011,-2.2403,-2.4386,-2.5786,-2.6157,-2.8491,-3.1427,-3.3989,-3.7126,-3.8856,-3.8856,-3.8893,-3.8893,-3.8893,-3.8917,-3.905,-3.9279,-3.9279,-3.9412,-3.9641,-3.9665,-3.9544,-3.9279,-3.9544,-3.9665,-3.9701,-3.9955,-4.0088,-4.0124,-4.0377,-4.051,-4.0546,-4.0546,-4.0546,-4.0546,-4.0546,-4.0546,-4.0546,-4.0546,-4.0546,-4.0546,-4.0546,-4.0546,-4.0546,-4.0546,-4.0546,-4.0546,-4.0546,-4.051,-4.0486,-4.0546,-4.0353,-4.0124,-4.016,-4.0027,-3.9834,-3.9834,-3.9834,-3.9834,-3.9798,-3.9991,-4.0088,-3.9834,-3.9774,-3.9774,-3.9738,-3.9992,-3.9992,-3.975,-4.0549,-4.1069,-4.1069,-4.1815,-4.2489,-4.3304,-4.4101,-4.4837,-4.4877,-4.5104,-4.5237,-4.5237,-4.5491,-4.5638,-4.5678,-4.5678,-4.5705,-4.5745,-4.5745,-4.5745,-4.5745,-4.5745,-4.5745,-4.5745,-4.5745,-4.5745,-4.5745,-4.5745,-4.5745,-4.5745,-4.5745,-4.5745,-4.5785,-4.6039,-4.6333,-4.6654,-4.6921,-4.7215,-4.7495,-4.7495,-4.7495,-4.7495,-2.2601,-2.2588,-2.2588,-2.2588,-2.2466,-2.2303,-2.216,-2.3093,-2.3723,-2.3554,-2.5916,-2.8322,-2.9748,-3.2229,-3.4142,-3.4142,-3.4259,-3.4343,-3.4343,-3.446,-3.5378,-3.7125,-3.7125,-3.7994,-3.9725,-3.9738,-3.9665,-3.9569,-3.9665,-3.9738,-3.9738,-3.9858,-3.9894,-3.9894,-4.0027,-4.0088,-4.0088,-4.0088,-4.0088,-4.0088,-4.0088,-4.0088,-4.0088,-4.0088,-4.0088,-4.0088,-4.0088,-4.0088,-4.0088,-4.0088,-4.0088,-4.0088,-4.0088,-4.0088,-4.0088,-4.0088,-3.9991,-3.9894,-3.9894,-3.9834,-3.9738,-3.9738,-3.9738,-3.9738,-3.9738,-3.9834,-3.987,-3.9762,-3.9738,-3.9738,-3.9738,-3.9738,-3.9738,-3.9738,-4.0126,-4.0491,-4.0491,-4.1262,-4.2296,-4.3825,-4.4213,-4.4642,-4.5344,-4.5491,-4.5558,-4.5558,-4.5678,-4.5745,-4.5745,-4.5745,-4.5745,-4.5745,-4.5745,-4.5745,-4.5745,-4.5745,-4.5745,-4.5745,-4.5745,-4.5745,-4.5745,-4.5745,-4.5745,-4.5745,-4.5745,-4.5852,-4.5999,-4.6146,-4.644,-4.6881,-4.7028,-4.7241,-4.7495,-4.7495,-4.7495,-4.7495]}]]